GFSNGP_sfc_temp_000.txt.gz
Temp
36 37 36 40 41 41 37 41 36 41 40 46 51 51 50 51 51 51 51 51 50 48 47 46 45 43 43 43 42 42 41 40 39 39 40 40 40 40 40 39 39 38 37 36
33 41 40 39 42 44 43 40 39 40 38 55 50 50 48 50 52 52 52 51 50 50 47 45 44 43 44 41 41 41 40 39 40 40 40 40 40 39 38 38 36 36 34 34
33 42 42 37 42 43 38 39 39 35 46 49 46 49 46 47 53 53 53 51 49 48 47 45 44 44 41 40 40 40 39 39 40 40 40 39 39 38 36 35 34 33 33 32
34 38 29 41 51 48 43 45 45 50 46 47 45 41 42 43 47 48 49 49 48 46 43 43 41 41 40 40 39 39 39 39 40 40 39 38 37 35 34 33 33 32 32 31
31 30 37 42 45 46 45 45 48 46 43 44 44 44 42 43 44 44 44 44 44 43 43 41 41 41 40 38 38 38 38 39 40 39 38 36 34 33 33 32 31 30 31 30
33 28 30 39 44 47 47 38 48 47 45 44 44 41 38 41 42 41 42 43 41 41 41 41 38 40 39 37 37 37 38 38 38 37 35 34 32 32 32 30 30 31 31 30
32 32 35 44 45 46 38 40 45 48 48 44 43 42 41 40 39 40 41 40 41 41 39 38 38 39 36 35 35 37 37 36 36 35 34 33 31 30 29 29 29 28 28 28
37 30 28 45 45 41 45 43 43 43 41 39 40 41 40 40 39 40 39 39 39 38 37 36 38 38 34 34 34 35 35 35 34 33 35 35 30 29 28 27 26 25 26 26
38 37 45 43 44 44 46 44 42 41 42 42 40 40 40 38 38 38 38 38 38 37 35 35 35 35 32 32 34 34 33 32 31 32 31 30 28 27 27 26 25 25 29 28
41 42 41 42 44 45 46 44 44 44 44 44 40 40 39 39 38 38 38 37 37 35 33 32 32 32 32 33 33 32 31 30 29 28 29 28 29 29 27 25 24 29 29 28
40 39 39 42 42 44 43 44 43 43 44 43 41 40 40 38 38 38 37 36 36 34 32 30 31 31 32 32 32 30 29 29 27 28 26 26 27 27 29 27 30 29 28 28
39 45 46 44 45 44 44 43 43 43 41 41 42 40 39 38 38 38 36 35 33 31 31 30 30 30 31 31 30 29 28 28 27 27 25 27 25 26 33 35 36 36 36 34
47 45 43 43 43 43 42 43 43 42 42 39 39 40 39 37 36 40 34 33 32 31 30 30 29 29 30 30 29 28 26 27 27 29 27 25 25 24 23 28 34 34 35 35
45 46 42 42 41 42 43 42 42 40 40 40 38 37 37 35 35 32 32 32 31 30 30 29 29 29 29 29 28 26 26 33 26 25 24 24 25 25 24 24 24 25 31 32
41 42 44 41 41 39 41 41 38 36 36 35 36 35 34 32 30 30 30 31 30 29 28 29 28 27 29 29 29 27 26 27 26 25 25 27 26 25 24 24 24 24 26 29
38 40 42 41 39 39 39 38 36 35 35 34 33 32 31 30 29 29 29 29 29 27 28 28 28 28 29 28 27 26 25 31 31 25 25 25 24 24 24 24 23 23 24 24
37 31 33 33 35 35 37 38 37 36 34 33 31 30 29 28 27 27 27 28 28 28 28 28 27 29 29 28 26 25 24 25 31 24 24 24 24 23 23 23 23 23 23 26
42 41 40 40 37 36 35 36 37 36 35 32 30 29 28 28 28 26 26 26 26 26 27 28 28 29 29 29 28 26 24 24 24 23 24 24 24 24 23 23 23 22 23 25
41 39 39 39 38 37 35 33 33 32 31 31 30 28 28 28 27 26 26 25 25 24 24 26 33 29 27 30 29 24 22 22 24 23 24 26 22 23 22 22 22 23 23 24
37 38 37 34 36 36 33 33 32 31 30 30 29 28 27 26 26 25 25 23 23 24 24 27 28 26 26 26 31 23 22 22 22 22 22 23 21 22 22 24 24 23 22 22
35 35 34 33 31 32 32 32 32 30 29 31 30 28 27 25 25 24 24 23 24 26 26 29 26 25 26 27 24 22 21 20 22 20 20 21 21 21 21 21 22 22 21 21
35 35 34 34 32 27 27 28 30 29 29 28 27 26 25 22 21 21 24 23 24 31 26 24 24 29 28 28 23 21 21 19 19 20 19 20 20 20 21 21 19 18 19 17
38 36 35 33 31 27 27 27 27 28 26 26 25 25 25 24 23 23 21 25 25 28 24 23 30 32 29 23 22 20 19 18 17 18 20 20 21 20 17 15 17 17 16 17
35 34 30 29 29 28 24 23 25 24 24 25 23 24 24 22 21 22 26 30 30 26 24 25 27 30 27 18 18 17 17 16 16 17 19 23 19 16 13 14 15 16 16 17
32 30 28 27 25 23 21 21 21 21 22 21 21 22 23 23 22 20 21 23 28 23 20 26 27 27 19 18 17 17 17 17 17 13 14 12 12 10 13 14 14 15 16 14
31 30 27 27 26 25 24 25 22 22 22 20 20 20 20 21 22 20 20 22 20 22 17 17 19 19 18 18 18 17 16 15 16 14 17 12 12 12 12 13 13 13 14 14
27 28 25 24 25 25 24 24 23 22 23 22 20 19 19 20 21 20 22 19 18 17 16 17 17 19 18 17 17 16 15 15 17 16 15 12 12 11 12 13 13 14 14 13

GFSNGP_sfc_temp_003.txt.gz
Temp
36 38 36 36 37 38 36 38 33 39 39 44 48 52 50 49 49 48 48 48 48 46 45 44 43 42 43 42 42 42 41 40 39 39 39 39 39 38 38 37 36 35 36 34
32 36 35 34 36 40 41 42 42 41 40 50 54 50 46 49 50 49 49 49 48 47 45 43 43 42 43 41 41 41 39 38 39 39 39 39 38 37 36 35 35 34 33 32
30 38 36 31 36 39 42 45 43 35 44 51 48 48 46 48 51 51 50 49 48 47 46 43 43 43 40 39 39 39 38 38 39 39 39 37 37 36 35 33 32 32 31 31
32 36 29 40 49 49 45 44 44 43 45 48 48 43 43 44 49 48 49 48 47 45 42 42 40 40 40 40 39 38 37 38 39 39 38 37 35 33 32 31 31 30 31 30
33 31 38 40 43 43 40 39 46 44 46 43 43 44 43 42 44 44 45 46 44 44 42 41 40 40 40 37 37 37 37 38 39 38 36 34 32 31 31 30 29 30 30 29
36 28 29 39 45 49 48 38 48 47 46 42 44 43 43 38 40 40 41 42 41 41 41 40 38 40 38 36 36 36 37 37 36 35 34 32 30 29 29 29 30 30 29 28
34 32 34 42 45 47 36 39 45 49 48 46 44 40 37 38 37 39 40 40 41 41 39 37 38 39 36 35 35 36 36 35 34 33 32 30 29 28 28 27 27 26 27 26
32 28 26 43 43 41 44 40 43 43 40 37 38 39 38 38 38 39 38 38 40 38 36 35 37 38 34 34 33 34 34 33 31 30 33 32 28 27 26 25 24 24 24 25
37 36 43 43 42 42 44 42 39 40 40 41 39 38 39 37 37 37 37 36 38 37 34 33 34 36 32 30 32 32 31 30 29 30 29 29 26 25 26 24 23 24 27 26
41 40 40 41 42 43 43 41 40 42 42 43 39 39 37 37 36 36 36 35 36 35 33 30 31 32 31 31 32 31 28 27 28 27 26 26 28 29 25 24 23 27 27 26
39 38 39 42 41 41 40 42 42 42 43 41 40 38 38 36 36 36 35 35 34 33 31 29 29 29 30 31 30 29 27 28 26 27 24 24 27 25 28 26 28 28 27 27
38 45 46 43 43 42 41 40 41 41 40 41 42 39 38 37 37 36 34 33 31 30 29 28 29 29 29 30 29 28 28 28 27 26 24 26 24 24 32 34 35 35 35 33
45 42 40 40 41 42 40 40 41 40 41 38 39 40 39 36 35 39 33 32 30 30 29 28 28 28 28 29 28 27 25 27 26 29 25 24 24 23 22 28 33 33 34 34
41 43 41 39 39 40 41 41 41 39 38 39 37 37 37 35 35 32 31 30 29 29 28 28 27 27 27 28 28 25 25 32 25 24 23 23 24 24 23 22 22 23 30 31
39 40 43 39 39 38 39 40 38 36 35 34 35 35 35 32 30 29 28 30 30 28 27 27 26 26 27 27 28 26 26 26 25 23 23 26 24 24 23 23 22 22 24 27
37 38 39 39 37 38 38 38 36 34 34 33 32 31 30 29 28 28 28 28 28 26 27 26 27 27 27 27 26 25 25 30 30 24 23 23 23 23 22 22 22 21 22 22
36 29 31 31 34 35 37 39 39 36 33 32 29 29 29 28 27 26 26 27 27 27 27 28 27 29 29 28 26 24 23 24 30 23 22 23 23 22 22 21 21 21 21 24
40 39 40 40 37 35 34 34 34 35 33 32 29 28 26 27 26 25 25 25 25 25 27 28 28 28 28 28 27 24 23 23 23 22 23 23 23 22 21 21 21 20 21 24
40 39 38 38 38 36 34 33 32 32 31 30 29 27 26 26 25 25 25 24 24 23 23 25 33 29 27 30 27 23 21 21 22 22 22 24 21 21 20 20 21 21 22 22
36 37 37 34 35 35 32 31 31 29 29 29 28 27 25 24 26 25 25 23 23 24 23 26 27 26 25 26 29 22 21 20 21 21 21 22 20 20 20 22 22 22 21 21
34 35 34 33 31 31 31 31 31 29 28 29 28 27 26 24 24 24 23 22 23 26 25 29 25 24 25 25 23 20 20 19 20 19 18 19 19 19 20 20 21 20 20 20
34 33 31 32 31 28 28 29 30 29 28 27 26 25 24 21 21 21 23 23 24 30 25 23 24 29 27 27 21 20 19 17 18 19 18 18 19 19 19 19 18 16 17 17
35 35 35 34 31 28 28 28 28 28 26 25 25 24 24 23 23 23 21 24 24 28 23 23 29 31 27 21 21 19 17 16 16 17 18 18 19 19 16 14 15 16 14 15
34 33 31 30 30 29 25 24 25 24 24 25 24 24 24 22 20 22 26 29 30 25 23 25 27 29 25 17 17 16 16 14 14 16 17 21 17 14 12 13 13 14 14 14
32 30 29 27 25 22 21 21 21 22 22 22 22 22 23 23 23 20 21 23 27 22 19 26 27 25 18 17 16 16 15 15 15 11 12 11 10 10 11 11 12 12 15 13
31 30 27 27 25 25 24 25 22 22 22 20 20 20 21 21 23 19 20 22 19 22 16 16 18 18 16 16 17 15 14 14 14 13 15 12 11 10 11 11 11 12 12 12
27 28 25 23 25 25 24 24 23 22 23 23 20 19 19 19 21 20 21 18 18 16 15 16 16 17 17 16 15 14 14 13 16 15 13 9 10 9 11 11 12 12 12 12

GFSNGP_sfc_temp_006.txt.gz
Temp
35 37 34 35 34 35 32 34 30 36 38 43 46 46 49 48 45 45 46 46 46 44 43 42 42 41 41 41 41 42 41 40 38 37 37 37 37 36 36 36 35 34 34 33
32 36 35 33 36 36 36 37 37 38 38 48 48 51 50 48 46 46 47 47 47 46 44 43 42 41 42 40 40 42 40 38 37 37 37 36 36 35 36 34 33 33 31 31
29 36 36 30 35 37 39 40 40 34 41 48 46 47 46 46 48 48 48 47 46 45 44 42 42 42 40 39 40 39 38 37 37 37 37 35 35 35 34 32 30 30 29 29
30 33 28 39 43 43 40 43 44 45 45 47 44 43 41 43 46 48 48 47 46 44 41 41 41 39 39 39 38 37 36 37 37 37 35 35 34 33 31 29 29 28 28 28
31 31 37 39 43 39 38 39 46 45 48 47 42 41 41 42 43 46 46 46 44 44 42 41 40 40 39 37 37 37 36 36 36 36 34 33 31 30 29 28 27 27 28 27
34 30 27 37 43 47 47 36 47 47 47 45 43 40 42 38 40 41 42 42 41 41 41 39 38 40 38 36 36 35 35 35 35 35 33 30 29 28 27 26 28 29 29 27
33 33 33 41 42 47 36 39 43 49 48 41 41 39 36 38 38 39 40 39 41 41 38 37 38 39 36 35 34 34 34 34 32 31 29 28 27 26 25 25 26 24 26 25
31 28 27 42 42 37 43 41 41 41 40 37 35 37 37 38 37 38 37 38 39 38 36 36 38 38 34 32 32 32 32 31 29 29 32 30 26 24 24 24 23 22 23 25
36 35 43 41 42 44 43 42 38 39 39 39 37 36 38 36 36 37 37 37 38 36 35 34 34 36 32 29 31 30 29 28 28 28 28 28 24 24 25 23 22 23 27 25
39 39 39 40 41 40 40 38 39 40 40 42 37 37 36 37 36 36 36 35 36 35 33 30 31 31 30 30 30 29 27 26 27 26 25 24 28 28 25 23 22 26 26 26
38 40 41 41 40 38 38 39 40 41 41 41 39 38 37 35 35 35 35 34 35 33 31 28 30 29 29 30 29 28 26 27 26 26 23 23 26 24 27 24 25 27 26 26
38 44 44 42 40 40 39 38 41 40 39 41 41 38 37 34 35 35 33 33 31 30 29 28 28 28 28 29 28 27 27 27 27 25 23 25 23 23 31 33 35 35 35 32
44 40 38 39 40 39 38 39 40 39 41 39 40 40 38 35 34 37 32 32 31 29 28 28 27 26 27 27 28 27 25 26 26 28 25 23 23 22 21 26 32 33 33 33
40 41 40 39 40 39 40 39 39 37 38 39 38 38 37 35 34 32 31 29 29 29 27 27 26 25 26 27 27 25 25 32 24 23 22 22 23 23 22 21 21 22 28 30
37 39 42 38 38 37 38 39 37 36 37 35 36 35 35 32 31 29 29 30 30 27 26 26 25 24 26 27 28 25 26 25 24 23 23 25 23 23 22 21 21 21 22 26
36 37 38 38 36 37 38 38 37 35 34 33 33 32 30 30 29 28 27 28 28 26 26 25 26 26 27 27 25 24 24 30 29 23 23 22 22 22 21 20 20 20 20 21
35 31 32 32 35 36 37 38 38 36 34 33 29 29 29 28 27 26 25 26 27 26 27 28 27 28 28 27 25 23 23 24 29 22 21 22 21 21 21 20 19 19 20 23
41 40 40 41 37 36 35 35 34 34 32 31 30 29 28 28 26 24 24 24 25 25 27 27 28 27 28 27 26 24 22 22 22 21 22 21 21 21 20 19 20 19 20 22
39 39 39 39 39 37 35 33 32 32 31 30 30 27 26 25 24 23 24 24 24 23 22 25 32 28 26 29 26 22 20 20 21 21 21 23 20 19 19 19 19 20 20 21
36 36 37 34 35 36 32 32 32 31 30 29 28 26 24 23 24 24 24 22 22 23 23 26 26 25 25 26 27 21 20 19 20 19 19 21 18 18 19 21 21 21 20 20
33 34 33 33 31 32 32 32 32 29 29 30 28 27 25 23 23 24 24 23 23 25 25 28 24 24 24 24 22 20 19 17 19 18 17 18 18 18 18 19 19 19 18 18
31 32 31 31 31 29 30 31 30 29 28 27 26 25 24 21 21 21 23 23 23 30 25 23 23 29 26 26 20 19 18 16 16 18 17 17 17 17 18 17 16 15 16 15
33 33 32 32 31 29 29 29 29 28 27 26 26 25 25 23 23 23 21 24 25 28 23 23 29 30 27 20 19 18 16 15 14 15 17 17 17 17 14 12 13 14 12 13
32 32 31 31 32 30 25 24 26 25 25 25 24 25 24 22 21 23 27 30 30 26 23 24 26 28 25 16 16 15 14 13 13 14 16 20 15 13 11 11 11 12 12 13
31 31 31 31 28 24 23 22 22 22 23 22 22 22 23 23 23 21 22 24 27 21 19 26 27 25 17 16 15 15 14 14 14 10 10 10 9 9 9 10 10 11 14 13
31 31 29 30 27 26 26 26 23 23 23 20 20 21 21 22 23 19 20 21 19 21 16 15 17 17 16 15 16 14 13 13 13 12 14 10 10 9 9 10 10 10 11 11
27 28 25 24 25 25 25 25 24 23 24 23 20 19 20 20 21 19 21 17 17 15 14 15 15 16 16 15 14 13 13 12 15 14 10 7 8 7 9 10 10 11 11 11

GFSNGP_sfc_temp_009.txt.gz
Temp
35 37 35 34 34 34 32 33 29 35 36 42 47 47 47 49 51 48 46 45 46 45 45 45 46 46 47 46 46 47 45 45 43 43 43 43 42 42 41 42 41 41 40 39
32 36 35 32 35 35 35 36 36 37 36 47 50 50 46 46 50 49 46 46 46 45 45 45 45 45 45 44 45 46 44 42 41 42 42 41 41 40 40 39 39 39 38 37
29 39 34 31 35 35 36 39 37 32 40 47 46 43 43 47 47 48 47 47 45 46 46 45 45 45 44 44 44 43 42 41 41 41 40 39 40 39 38 38 38 37 37 36
30 33 27 38 45 43 40 42 43 43 45 48 46 46 48 47 44 48 48 47 46 45 44 44 44 43 43 43 42 41 41 41 41 40 39 38 38 38 37 37 36 36 35 35
30 31 36 41 43 40 38 38 45 43 46 49 45 45 47 43 44 49 48 48 46 46 45 44 43 43 42 41 41 41 40 40 40 39 38 37 36 36 35 36 35 34 35 34
33 29 28 39 43 47 46 37 46 47 47 46 45 41 45 40 41 42 44 45 43 44 44 42 42 43 41 40 40 39 39 38 39 38 37 36 35 35 34 34 34 35 34 33
33 32 35 42 44 47 36 39 42 47 48 43 44 43 40 39 39 40 42 42 43 44 41 40 42 42 39 39 37 37 37 37 36 36 34 34 33 33 32 32 32 31 32 33
34 31 27 42 42 37 43 42 43 43 43 39 37 37 37 38 38 39 38 39 40 39 38 40 41 40 37 35 35 36 36 34 34 34 36 33 32 31 31 30 30 30 30 32
36 36 43 43 43 45 43 42 41 41 41 40 37 37 37 36 37 37 38 37 39 38 36 37 39 39 35 33 35 34 33 32 32 33 32 32 31 30 32 30 29 29 30 30
39 40 41 42 43 41 39 40 40 41 40 40 36 37 35 36 36 36 37 37 38 37 35 33 35 36 34 34 34 33 31 31 31 31 30 30 32 32 30 29 29 30 30 29
38 41 41 42 41 39 38 39 39 40 40 38 38 36 36 35 36 36 36 37 37 35 33 31 33 32 33 33 33 31 31 31 31 29 29 29 30 30 31 31 31 31 31 31
39 44 43 42 40 40 39 38 39 39 38 39 39 36 36 34 35 35 34 34 33 33 31 30 31 31 31 32 32 31 30 30 30 30 29 30 29 29 32 34 34 34 34 33
44 40 40 39 40 39 38 38 39 39 40 38 39 38 37 35 35 37 34 33 33 31 31 30 30 29 29 30 31 30 28 29 31 30 29 28 27 27 25 29 31 32 32 32
42 41 39 39 40 40 40 39 39 38 39 39 38 39 38 36 35 34 32 31 32 30 29 29 28 27 28 30 29 29 30 31 28 28 27 27 27 26 26 25 24 25 29 30
39 38 40 38 38 37 38 39 37 35 36 36 37 36 36 33 32 30 30 31 31 29 28 28 27 26 28 29 29 28 29 29 28 27 27 28 27 26 25 25 24 24 25 27
36 37 38 37 36 37 38 37 36 35 36 36 35 33 32 32 30 29 29 30 30 27 27 27 27 27 28 29 27 27 28 32 30 27 26 26 25 25 24 24 23 23 23 23
35 30 32 33 35 36 37 39 38 37 36 34 31 31 30 29 28 28 27 28 28 27 28 29 28 29 29 28 27 26 26 26 30 25 25 25 24 24 24 23 22 22 22 24
41 41 41 42 39 37 36 37 36 35 33 31 31 30 29 30 27 26 26 26 26 26 28 28 28 28 28 28 27 26 25 25 25 24 24 23 24 24 22 22 22 21 22 23
39 40 40 40 40 38 35 34 33 32 32 31 30 28 27 27 26 25 26 26 25 24 24 28 32 28 28 29 26 25 23 23 23 23 23 24 22 22 21 21 21 22 22 22
36 36 37 35 36 36 33 33 32 30 30 29 28 27 24 24 26 25 25 23 24 25 25 27 27 26 26 28 27 23 22 22 22 21 21 22 20 21 21 21 22 21 21 21
33 34 33 33 31 32 32 33 33 31 30 30 28 27 25 24 24 25 25 23 24 26 26 28 26 25 25 25 23 22 21 20 20 19 19 19 19 19 19 20 20 19 19 18
31 31 30 31 31 28 29 31 32 30 29 28 27 26 25 23 23 23 24 24 24 30 26 25 25 28 27 26 22 21 20 18 18 19 18 18 18 18 18 18 17 16 16 16
32 32 32 31 31 28 30 30 30 29 28 27 27 26 26 25 25 25 22 25 26 28 24 25 30 29 27 21 21 19 18 17 17 17 18 18 18 18 16 14 15 15 14 14
31 31 30 30 31 30 26 26 26 26 26 26 25 26 25 23 22 24 28 30 31 26 24 25 28 28 24 18 17 17 16 16 15 16 17 20 16 15 13 13 12 13 13 14
30 30 30 31 31 26 25 23 22 22 23 22 22 23 23 24 24 22 24 25 28 22 20 27 27 24 18 17 16 16 16 15 16 15 14 13 12 12 12 12 12 12 15 15
30 32 32 31 28 28 26 27 23 23 23 21 20 20 21 23 25 21 21 21 19 22 16 16 18 17 16 16 17 15 14 14 15 13 15 14 12 11 11 11 12 12 12 12
27 29 27 26 27 27 26 25 24 23 24 22 19 19 20 21 21 20 21 17 17 15 15 15 15 17 17 16 15 14 14 14 16 15 15 11 10 10 11 11 11 12 12 13

GFSNGP_sfc_temp_012.txt.gz
Temp
38 40 38 36 36 36 32 36 32 40 42 48 52 54 56 58 56 53 56 58 54 55 57 58 55 53 49 48 50 53 55 55 54 54 53 52 51 51 50 50 49 49 48 47
32 39 39 34 37 37 36 36 39 41 40 52 53 53 52 51 48 50 54 57 54 54 55 52 49 49 47 48 49 52 54 51 50 50 50 49 49 49 48 47 47 47 46 46
31 42 40 33 36 37 37 38 40 34 44 50 42 42 42 44 48 52 54 53 52 53 52 50 49 48 46 48 51 54 50 50 49 49 47 48 48 48 46 46 46 45 45 45
30 35 29 41 45 44 41 42 44 45 48 49 48 48 47 52 52 52 54 53 53 50 50 51 51 50 51 53 51 50 49 48 48 47 46 47 47 45 45 46 45 45 44 43
31 32 40 44 43 43 41 43 50 47 49 51 52 51 52 47 48 53 55 55 54 52 52 52 51 52 51 50 50 49 47 47 47 47 45 45 44 44 44 44 44 44 43 42
34 30 31 44 49 50 50 42 51 49 50 49 49 44 49 46 49 51 50 50 49 50 51 51 51 52 49 48 48 46 46 46 47 47 45 44 43 43 42 44 42 43 41 42
34 33 41 49 50 50 41 44 50 50 53 53 49 49 44 46 43 47 51 50 51 51 50 48 51 50 47 47 45 45 46 46 45 45 44 44 43 43 42 42 41 41 40 41
38 34 34 51 50 46 51 52 50 50 48 49 47 44 43 43 44 44 43 45 47 46 46 48 49 48 45 42 44 44 44 43 42 43 42 42 41 41 41 41 40 39 39 40
45 48 53 54 54 56 51 50 50 50 49 48 44 42 42 41 41 42 44 44 46 45 45 47 48 45 40 41 44 43 42 41 40 41 40 41 41 40 40 40 38 38 37 37
46 53 52 54 55 52 49 48 48 50 48 48 44 43 41 41 41 41 42 42 43 43 42 42 45 43 42 43 43 42 40 40 40 39 39 40 39 39 39 38 37 36 36 35
48 53 55 53 52 49 46 47 47 48 48 46 44 43 43 41 41 41 41 42 42 40 39 39 41 41 42 42 43 40 39 39 39 39 39 38 38 38 38 38 37 35 35 35
51 53 54 53 49 48 47 46 46 44 43 44 44 42 42 41 42 41 40 40 39 39 39 39 39 39 40 42 42 40 39 39 38 38 38 37 37 38 34 34 34 34 34 34
56 52 50 49 48 48 46 45 46 45 44 41 43 42 42 41 42 41 41 40 38 37 37 38 38 37 39 40 42 40 39 38 37 37 37 36 35 34 33 36 34 33 33 33
52 50 48 47 49 47 46 45 45 45 45 44 43 43 42 40 40 39 38 38 38 38 37 38 37 36 39 40 39 38 37 35 37 36 36 36 34 33 33 31 30 32 34 32
50 48 47 48 46 44 44 44 42 41 41 41 43 41 40 38 37 36 37 37 37 36 36 36 35 35 38 38 37 37 37 36 36 36 35 34 34 33 32 31 30 30 31 32
44 45 45 45 43 42 43 43 42 41 41 40 40 40 39 38 36 36 36 37 36 35 35 35 35 35 37 37 36 36 36 33 34 35 34 33 32 31 30 30 29 30 29 29
41 36 35 35 37 41 42 45 45 42 41 40 38 37 37 36 35 34 35 37 36 35 36 35 34 35 35 35 35 35 35 34 31 33 32 31 31 30 29 29 28 28 28 29
49 48 47 47 44 43 43 42 42 41 40 38 37 37 36 37 35 34 34 34 34 33 34 34 35 34 34 34 34 34 34 32 32 31 30 29 30 29 28 28 27 27 27 28
47 46 47 46 45 44 41 41 41 39 37 37 37 37 37 36 35 33 34 34 33 32 32 35 33 34 33 32 33 33 32 31 30 30 29 28 28 28 27 27 27 27 27 26
42 43 44 42 41 42 39 39 38 37 37 37 35 34 32 32 33 33 34 33 34 35 34 34 34 33 33 32 30 31 30 29 28 28 27 27 27 27 27 26 25 25 25 25
39 39 38 38 37 38 38 37 37 35 35 37 36 34 32 32 32 32 30 30 30 33 34 32 33 32 32 31 30 30 29 28 27 26 25 25 25 25 25 25 24 24 23 23
37 37 36 36 37 35 36 37 37 35 35 34 33 32 30 29 29 29 32 32 32 32 32 32 32 31 31 28 29 28 27 26 26 26 25 24 24 24 24 23 22 21 21 21
38 37 37 36 35 34 36 36 35 34 33 32 31 31 31 31 31 30 27 30 32 31 32 32 32 30 27 28 27 27 26 25 24 24 24 24 23 23 22 20 20 21 20 20
36 37 35 35 35 34 31 32 33 33 33 32 31 31 30 29 28 32 32 31 32 31 31 32 31 28 25 26 26 25 24 24 23 23 23 22 22 21 20 20 19 20 20 19
34 33 32 33 33 32 29 29 28 29 29 29 29 29 30 32 31 30 31 31 30 29 29 29 27 25 25 25 24 24 23 23 23 23 23 21 20 19 19 19 19 19 19 21
33 33 34 35 32 31 31 32 29 29 29 26 26 27 28 29 30 28 28 27 27 26 25 25 25 25 24 23 24 23 22 22 22 21 21 20 19 18 18 18 18 18 19 19
32 32 30 30 31 32 32 30 29 28 29 28 25 26 26 26 27 26 26 25 24 24 23 23 23 23 23 23 22 22 22 21 21 20 21 20 18 18 18 18 18 18 18 18

GFSNGP_sfc_temp_015.txt.gz
Temp
41 43 42 39 39 40 33 35 30 39 40 47 51 52 51 56 58 60 59 59 61 58 60 62 59 61 58 56 57 56 54 52 53 54 55 55 54 53 53 53 52 51 50 49
32 41 41 37 43 42 38 38 36 36 35 48 53 51 52 51 52 50 52 55 59 58 59 57 56 54 53 53 53 54 52 51 52 53 53 51 51 50 50 49 49 48 48 47
32 44 42 36 38 38 39 41 38 34 41 50 47 45 45 45 49 47 49 54 56 56 56 53 51 49 48 50 50 48 47 48 51 50 49 49 49 49 48 48 48 47 46 46
32 37 30 44 48 46 42 47 49 48 49 50 50 49 47 48 48 50 53 54 54 55 51 49 48 47 48 46 47 46 46 49 49 49 47 48 48 47 47 47 46 46 45 45
31 34 42 45 49 44 40 43 52 47 49 53 54 50 43 45 48 51 54 55 54 51 48 46 45 44 42 41 43 44 44 47 47 48 47 47 46 46 46 45 45 44 44 43
34 30 31 46 54 54 52 42 53 51 52 50 51 45 40 45 48 49 52 49 48 48 48 47 47 49 47 45 47 45 45 48 49 49 47 45 45 44 44 44 43 43 42 43
33 32 40 52 54 54 41 45 53 50 54 54 49 44 46 47 50 50 48 45 45 46 44 47 51 51 50 49 47 48 48 47 47 46 45 45 44 44 44 42 42 42 41 43
36 32 33 56 55 47 53 56 55 54 49 50 47 45 46 46 45 48 48 49 50 50 50 52 53 51 47 45 46 46 45 44 43 43 44 44 43 42 42 41 41 41 41 41
47 49 59 60 56 59 57 54 55 53 53 52 46 43 44 42 44 45 45 46 49 48 48 49 48 46 42 43 44 44 43 42 42 42 42 42 42 41 40 40 39 39 38 37
49 57 58 60 61 57 54 52 53 53 52 53 47 46 43 43 43 44 45 46 47 46 44 42 43 43 42 42 44 44 41 40 41 40 41 41 40 40 40 38 38 37 36 35
52 57 60 58 56 54 51 52 51 52 52 50 48 46 45 43 44 44 44 45 45 42 39 39 41 41 43 45 45 41 41 40 40 40 41 40 39 39 38 39 36 34 34 34
51 58 57 56 54 53 51 50 50 48 46 48 47 45 45 44 45 44 43 42 40 39 39 40 41 42 43 44 43 41 39 39 40 39 39 38 38 37 36 35 35 35 35 33
58 58 55 53 52 52 50 49 49 48 47 44 46 46 43 44 44 44 43 42 41 39 39 40 40 39 42 43 44 42 40 39 37 38 38 37 36 35 34 36 36 36 35 34
60 56 52 51 52 51 50 48 48 47 47 46 44 45 44 43 43 42 41 40 41 41 40 40 39 39 42 43 41 40 38 38 38 37 37 36 35 34 34 32 31 32 36 35
57 56 52 53 50 48 47 47 45 44 44 44 45 43 43 40 38 38 40 40 40 39 39 39 38 38 41 41 39 39 38 37 37 36 35 34 34 33 33 32 31 31 32 34
52 51 49 48 47 46 46 46 44 43 44 43 42 42 41 40 39 38 39 39 37 36 37 38 36 37 39 39 38 37 35 34 35 35 34 33 33 32 31 31 30 30 30 30
44 38 37 37 40 44 45 48 47 45 44 43 41 40 39 38 37 37 39 40 38 37 37 36 35 36 37 37 37 36 36 34 32 34 33 32 31 31 30 29 29 29 29 31
54 54 49 49 47 46 47 48 46 45 43 41 40 40 38 38 36 36 36 37 36 35 35 36 36 36 35 35 36 35 35 33 32 31 31 31 30 30 29 29 28 28 28 29
52 50 51 50 50 48 47 45 44 44 41 40 40 39 40 38 37 35 36 36 34 32 33 35 35 35 34 33 34 34 33 32 31 31 30 30 30 29 29 28 27 27 27 27
46 48 49 47 47 45 44 44 42 41 40 41 40 37 36 36 36 36 37 35 37 36 36 34 35 34 33 32 32 33 31 30 30 29 29 28 28 27 27 27 27 26 26 25
43 44 41 42 42 43 42 41 41 39 39 39 38 36 35 35 36 36 32 31 33 36 35 34 34 33 33 32 32 31 30 29 29 28 27 27 26 27 26 26 26 25 24 24
40 40 39 39 39 38 39 40 40 38 38 39 37 35 34 32 33 33 36 32 33 35 34 34 33 33 31 30 31 30 29 28 27 27 26 26 25 25 25 24 23 22 22 22
41 41 40 40 38 38 39 39 38 38 37 35 34 33 33 32 33 31 28 33 33 34 34 33 32 30 29 30 29 28 27 27 26 26 26 25 25 24 23 21 21 21 20 20
39 40 39 39 39 38 35 36 35 36 35 34 34 34 33 31 32 34 34 34 34 33 33 32 30 28 28 28 27 26 26 26 25 25 25 25 24 22 21 21 20 20 20 20
38 35 35 35 35 34 32 32 31 31 32 32 32 33 34 34 32 32 33 32 33 32 30 30 28 26 27 26 26 25 25 25 24 23 23 22 21 20 20 20 19 19 20 20
35 36 36 38 36 33 32 34 31 32 31 29 29 30 30 31 32 31 30 30 29 29 27 27 27 26 25 25 25 25 24 24 23 23 22 21 20 20 19 19 19 19 19 19
35 36 33 32 33 34 35 33 31 30 31 30 27 29 29 29 29 28 28 27 26 26 25 25 25 24 24 24 24 24 24 23 23 22 21 20 19 19 19 19 18 18 18 18

GFSNGP_sfc_temp_018.txt.gz
Temp
37 40 39 37 37 39 34 35 30 35 36 42 46 46 48 51 51 52 48 51 53 54 54 54 52 52 52 52 52 50 51 52 52 53 52 52 51 50 50 49 45 45 44 44
32 38 38 34 38 40 40 38 37 37 37 47 50 49 47 47 46 45 47 50 53 55 52 52 51 51 51 50 50 51 52 50 50 50 50 48 49 47 47 44 42 45 44 42
28 40 37 32 38 40 41 43 41 35 41 46 47 47 46 45 46 47 49 50 50 54 48 49 49 50 49 50 51 49 47 46 46 45 43 44 46 44 42 42 43 42 41 41
30 32 23 40 47 47 43 45 47 47 46 47 46 47 44 44 44 46 48 51 52 49 47 46 48 47 46 45 44 43 42 41 41 40 40 44 44 43 43 42 41 40 40 42
30 27 36 42 47 44 39 40 48 45 49 50 48 45 42 44 47 48 49 48 47 46 45 45 44 44 44 42 41 41 39 39 39 41 41 42 42 40 41 40 40 41 40 39
34 28 25 44 49 51 48 36 49 46 46 48 48 39 37 43 45 45 46 46 44 45 43 42 41 42 41 39 38 38 38 40 42 42 43 40 40 38 40 41 39 39 37 36
32 31 35 48 50 52 35 38 48 48 45 44 39 39 43 45 42 42 42 42 43 43 40 41 42 41 38 38 36 37 39 43 43 42 41 41 41 41 37 35 35 34 34 35
34 31 27 49 48 40 46 48 49 47 45 42 42 43 42 42 44 41 40 41 42 40 40 41 40 40 41 41 42 42 42 41 41 42 43 40 35 34 34 34 33 32 32 31
39 39 51 52 50 50 50 47 47 46 46 43 41 40 41 39 42 43 45 45 46 43 41 42 42 41 38 38 40 41 41 39 37 36 36 36 34 33 32 33 31 30 30 29
44 49 49 51 52 50 47 45 47 48 48 46 41 41 40 41 40 41 42 42 41 40 39 38 39 39 40 42 42 40 36 35 34 33 34 34 33 32 30 29 28 29 28 27
44 49 48 48 47 47 46 47 47 47 47 44 42 42 41 41 40 41 41 41 41 38 36 37 40 39 42 42 40 36 34 33 33 33 32 30 30 29 30 29 29 26 26 27
41 50 48 44 45 48 46 45 45 43 42 43 43 42 42 40 40 39 38 37 37 37 38 39 40 40 39 39 37 36 32 31 30 29 30 29 28 28 37 36 36 35 35 32
51 49 49 47 47 47 45 45 45 43 42 40 42 42 41 40 39 40 37 37 37 36 37 38 38 37 37 38 36 34 29 29 30 31 28 27 28 27 25 30 38 37 37 37
52 49 45 46 44 46 45 45 45 43 43 42 41 41 41 40 40 38 36 36 38 37 37 36 35 34 34 34 31 31 30 37 28 28 27 27 27 27 26 25 24 24 33 34
51 49 47 46 45 44 44 44 41 39 40 40 40 39 39 36 35 36 37 36 36 35 34 34 32 31 34 33 31 30 29 28 28 27 26 28 27 27 26 25 24 24 25 29
45 45 44 43 42 42 43 42 40 40 39 39 39 37 36 35 35 34 34 34 33 30 30 31 29 30 32 32 30 28 28 34 32 27 27 26 26 25 25 24 23 23 23 23
39 35 34 33 37 40 42 44 43 41 40 38 36 36 34 33 33 32 32 32 31 30 29 29 29 30 31 31 29 27 26 27 33 27 26 25 25 24 24 23 22 22 22 27
47 47 44 43 42 41 42 43 43 42 40 38 37 36 34 34 33 31 30 30 29 28 29 29 29 29 30 30 29 27 26 26 26 25 25 25 24 24 23 23 23 22 22 26
48 45 46 46 45 44 43 42 42 40 38 37 36 34 34 33 32 30 29 28 27 26 26 29 35 30 28 32 29 26 25 25 26 25 25 27 23 23 23 22 22 22 22 24
43 45 46 45 45 45 42 42 40 38 38 37 36 34 31 31 31 30 29 29 28 27 28 29 29 27 27 29 31 25 24 24 25 24 24 23 22 22 22 25 24 23 22 23
40 40 40 40 40 40 40 38 39 37 36 36 34 32 31 30 30 29 28 27 28 30 29 32 27 27 27 27 26 24 23 22 23 22 21 21 21 21 21 21 22 23 22 22
37 37 37 37 38 36 37 37 38 36 36 34 33 32 31 28 28 28 28 27 27 34 28 26 26 30 27 31 24 23 22 21 21 22 20 20 20 20 20 20 19 17 17 16
39 38 38 37 36 36 36 36 36 36 34 33 33 31 31 30 30 27 24 28 27 32 27 26 31 31 31 24 23 22 21 20 19 19 20 20 20 20 16 12 13 14 13 14
36 37 36 36 37 36 33 33 32 33 33 33 32 32 31 29 26 27 30 33 34 31 27 27 28 30 29 21 20 19 19 18 18 18 19 24 19 14 12 13 13 14 14 16
32 29 29 29 29 29 29 29 29 30 30 30 30 30 30 30 27 26 28 29 34 28 25 31 29 28 21 20 19 19 18 18 18 12 12 11 10 10 12 13 13 13 14 14
30 30 31 32 30 29 30 31 29 30 29 28 28 28 28 30 30 27 27 28 26 28 22 22 21 21 20 20 19 19 18 18 17 14 16 12 12 12 13 13 13 13 14 12
27 32 27 27 28 31 31 31 30 29 30 29 26 27 27 27 27 26 27 24 23 21 21 21 20 21 19 19 18 18 18 17 19 15 12 11 11 11 13 13 13 14 14 15

GFSNGP_sfc_temp_021.txt.gz
Temp
35 37 36 34 35 37 33 35 30 36 37 41 46 47 49 49 49 49 48 48 49 48 48 46 45 47 48 47 50 52 52 52 51 51 51 50 50 49 50 49 48 47 45 44
26 36 35 31 36 38 39 39 38 38 37 48 51 48 48 49 48 47 48 47 48 49 47 45 46 45 46 47 49 48 50 48 49 48 48 47 46 46 44 46 45 44 43 41
22 36 33 29 35 39 42 43 41 35 42 50 46 45 41 41 43 46 48 50 50 46 44 45 45 45 43 43 46 48 46 46 45 45 43 43 42 42 42 41 42 42 41 41
28 30 22 39 44 45 41 44 45 45 47 48 49 45 43 44 42 44 47 50 46 44 44 44 44 42 43 42 43 42 41 41 41 40 39 39 39 37 37 38 38 38 39 39
30 29 33 40 44 41 39 40 45 43 43 45 46 45 42 43 43 42 44 44 44 44 43 43 42 43 41 40 40 39 39 38 39 39 37 36 35 35 36 36 37 38 38 39
33 27 23 40 45 48 45 36 46 45 43 43 42 38 39 41 42 42 43 43 41 42 42 41 41 42 40 39 38 37 38 37 38 38 37 37 38 39 38 38 38 40 36 34
32 31 34 44 46 48 33 37 43 45 42 41 38 38 41 42 40 41 41 41 42 41 39 39 40 40 37 37 36 37 37 37 38 39 39 39 38 39 39 37 35 32 32 31
34 30 26 47 45 40 45 44 44 43 42 39 39 39 39 40 40 40 40 40 41 39 38 38 40 38 36 35 37 37 36 37 38 40 42 40 38 34 32 31 30 29 29 29
37 36 46 48 49 46 46 44 43 42 43 42 38 38 39 37 38 39 40 40 40 38 36 37 38 39 36 38 40 41 40 39 38 38 36 34 31 30 29 29 28 28 28 26
43 45 46 47 44 44 43 42 44 44 43 43 38 40 38 38 38 38 38 38 39 39 37 37 39 40 39 40 41 39 37 34 32 32 31 30 30 30 28 27 25 27 26 24
40 46 44 44 42 43 43 43 43 44 44 41 39 39 40 38 37 39 38 40 40 38 37 37 40 40 40 40 39 34 31 30 30 30 29 28 28 28 28 27 28 26 25 26
38 50 46 44 42 44 42 41 42 41 41 41 41 40 39 37 38 36 37 38 37 37 38 38 39 38 38 37 35 33 30 29 28 27 27 27 26 27 37 36 37 36 36 32
48 49 46 44 44 44 42 42 42 41 41 39 39 40 38 36 36 38 35 36 35 36 37 38 38 36 35 35 33 31 28 28 29 29 27 26 26 25 24 28 36 37 37 37
49 47 44 44 43 43 43 42 43 41 40 40 39 39 38 37 37 36 36 37 37 38 37 36 34 31 32 32 30 29 28 34 26 26 25 24 25 25 25 24 23 23 31 34
47 46 46 43 41 40 41 41 40 39 38 38 38 38 37 35 35 35 37 36 35 33 32 32 31 29 31 31 29 28 27 26 25 24 25 27 26 25 25 24 23 22 24 28
42 43 41 41 39 39 39 39 39 38 38 37 35 35 34 34 33 34 34 34 32 30 29 29 28 29 30 29 27 27 28 34 29 25 25 25 25 24 24 22 22 21 22 22
40 36 32 32 35 38 39 41 41 39 39 36 34 34 34 32 32 32 31 30 29 29 28 29 28 29 29 29 27 26 25 27 32 25 24 25 24 23 23 22 21 21 21 25
43 43 44 43 39 39 39 40 41 39 37 36 35 35 33 33 31 29 28 28 27 27 28 28 28 28 29 29 27 26 25 25 25 24 24 24 24 23 22 22 21 21 21 24
43 43 44 43 42 42 41 40 40 39 37 36 35 34 34 32 30 29 28 27 26 25 25 28 33 29 28 31 27 25 24 24 25 24 24 26 22 22 21 21 21 21 21 22
41 42 45 43 43 44 41 40 38 37 36 37 34 33 31 30 29 28 27 26 26 26 26 28 27 26 27 29 29 23 23 23 23 23 22 22 21 20 20 23 23 22 20 21
38 39 39 40 39 40 39 39 38 35 35 36 34 32 30 30 30 28 27 26 26 30 27 31 26 25 26 28 25 22 22 21 22 20 20 20 19 20 20 20 20 21 21 20
37 36 37 37 37 34 35 36 37 36 35 34 33 31 30 27 27 26 27 27 26 34 27 25 25 29 28 29 23 22 21 20 19 20 19 19 19 18 18 18 18 16 16 14
37 38 37 37 36 35 36 36 36 36 33 32 32 32 31 30 30 28 25 27 27 31 25 25 31 33 32 23 22 21 19 19 18 18 19 18 18 18 15 11 12 13 12 13
34 36 35 35 35 34 33 32 32 32 32 32 32 33 31 29 27 28 29 32 33 31 25 27 29 32 27 20 19 18 18 17 17 16 17 23 18 13 10 11 12 12 13 14
31 29 28 29 29 28 28 28 28 29 30 30 30 31 31 31 29 26 28 29 34 28 25 32 31 30 20 19 18 18 17 17 17 10 10 9 9 8 10 11 11 12 14 12
29 30 30 31 30 28 29 30 29 29 30 29 28 28 28 28 29 27 27 28 27 28 22 22 21 20 19 19 18 18 17 16 15 13 15 11 10 10 11 12 12 12 13 12
24 32 27 27 27 28 28 28 28 28 30 29 27 27 27 27 27 26 28 25 23 21 20 20 20 21 18 18 18 17 16 15 18 14 11 9 10 9 12 12 12 13 13 13

GFSNGP_sfc_temp_024.txt.gz
Temp
33 36 34 33 34 35 29 34 27 35 36 41 45 48 50 46 47 50 50 48 46 48 49 45 43 42 43 44 46 46 47 47 48 49 50 50 49 49 49 48 47 45 42 42
30 34 34 30 34 36 37 39 38 37 36 47 50 52 49 43 43 43 46 49 50 48 44 42 41 42 43 42 43 46 48 47 48 47 47 45 45 43 42 41 40 40 40 41
23 33 32 27 32 36 39 41 38 35 42 47 45 46 42 41 41 40 45 47 49 46 41 40 42 43 40 41 43 43 42 44 44 43 41 41 41 41 39 37 38 38 38 40
26 29 20 37 42 43 39 42 42 42 44 46 44 43 42 42 40 40 41 42 43 42 41 40 40 39 39 39 39 40 39 39 39 40 40 40 38 36 35 36 36 35 35 36
28 28 33 38 41 40 37 39 44 42 44 44 46 41 41 42 42 41 41 40 40 42 42 40 39 39 38 37 37 37 38 39 40 40 38 37 35 34 35 34 33 33 35 36
33 26 24 38 43 46 44 33 44 44 43 41 44 39 38 40 42 41 42 41 40 41 41 40 41 41 40 39 38 36 37 38 39 39 37 36 35 35 34 33 35 38 37 37
33 30 32 43 44 46 32 36 44 43 43 40 41 39 38 41 40 41 41 41 41 40 39 39 40 40 37 35 33 36 38 37 37 37 36 35 35 36 36 37 36 34 31 30
34 30 27 46 42 39 45 43 44 43 41 39 37 38 37 40 40 40 39 40 40 37 36 38 39 39 36 34 35 36 36 35 36 38 40 39 37 36 34 31 28 27 27 26
35 36 46 47 46 46 45 43 42 41 42 40 37 37 40 37 38 39 40 39 39 37 35 38 37 38 34 35 38 39 39 38 38 38 37 34 30 28 27 27 26 26 28 26
40 43 44 46 44 43 42 41 43 44 42 41 38 37 38 39 39 36 36 38 38 36 36 37 39 40 38 37 40 39 36 34 31 31 29 29 30 29 27 26 25 27 27 25
41 43 46 43 47 43 42 42 42 42 41 40 39 38 38 38 38 38 38 39 39 37 36 37 38 38 39 38 36 32 30 29 29 29 27 26 28 27 28 26 28 26 25 26
37 46 48 47 44 44 42 40 40 40 38 39 39 38 37 36 37 38 37 38 37 37 37 37 38 37 34 34 33 31 29 29 27 26 26 26 26 26 37 37 37 36 35 31
44 46 47 46 44 42 41 41 41 40 40 37 38 38 36 35 34 38 38 36 36 36 36 37 37 33 32 32 31 30 27 27 28 29 26 25 25 25 24 28 35 36 36 36
47 48 43 43 44 43 42 41 42 39 39 38 37 37 36 35 35 35 36 36 38 37 37 36 31 29 30 30 29 27 28 34 26 25 24 24 25 25 24 24 22 23 30 32
46 47 46 41 40 39 39 38 37 36 37 36 36 35 35 32 32 36 37 37 36 35 33 30 29 27 29 29 29 27 26 25 24 24 24 25 25 24 23 23 22 21 23 27
42 44 43 40 39 38 38 37 36 35 37 36 33 33 33 33 36 35 34 35 33 30 28 28 28 27 29 28 27 26 27 32 28 25 25 24 24 23 23 21 21 20 21 21
35 34 35 31 33 37 36 38 37 37 37 36 34 33 32 31 29 29 30 30 29 28 28 29 27 29 29 28 27 25 25 27 31 24 24 24 23 22 22 20 20 19 20 24
39 40 40 41 40 37 36 38 38 38 37 35 33 33 32 32 31 28 27 27 27 26 28 28 28 28 29 28 27 25 24 24 25 23 23 23 22 22 21 21 20 19 20 23
40 40 41 41 41 39 39 39 38 38 36 35 34 33 33 31 30 28 27 27 26 24 24 26 33 29 27 29 27 24 23 23 24 23 23 25 21 21 20 20 20 20 20 21
39 40 40 42 41 42 41 41 39 36 37 36 35 32 30 29 29 28 28 26 26 25 25 27 27 27 27 29 29 23 22 22 22 22 22 20 19 19 19 22 22 21 19 20
36 37 37 38 38 38 39 39 38 35 35 35 34 33 31 29 30 28 26 26 26 29 25 31 25 25 26 28 24 21 21 20 21 19 19 19 18 18 18 18 19 20 19 19
36 36 36 37 37 34 35 35 36 34 33 33 33 32 30 28 28 27 28 28 26 34 27 25 25 29 27 29 22 21 20 19 18 19 18 18 17 17 17 17 17 14 15 13
35 36 37 37 36 35 34 34 34 34 33 33 32 31 31 31 30 28 26 27 29 31 25 25 29 34 32 22 21 20 19 18 17 17 18 17 17 17 14 9 11 12 11 12
32 33 32 35 35 34 32 32 32 33 32 33 33 33 32 29 27 28 30 32 32 31 25 27 31 33 27 19 18 18 17 16 16 16 17 22 17 11 8 10 10 11 12 13
29 28 27 27 28 29 28 27 28 29 31 31 31 31 32 33 31 28 30 30 34 29 25 34 33 31 19 18 18 17 17 16 16 10 10 8 7 7 9 10 10 11 13 12
27 28 29 29 29 29 28 29 28 28 29 28 29 29 29 28 29 29 29 30 28 29 24 24 22 20 19 18 18 17 16 16 15 12 13 10 8 9 10 11 11 11 12 11
25 32 27 27 27 28 28 28 27 27 30 29 28 27 27 28 28 29 29 27 25 23 21 21 21 21 18 18 18 17 16 15 16 13 10 8 8 8 10 11 12 12 12 13

GFSNGP_sfc_temp_027.txt.gz
Temp
32 35 33 33 34 33 28 32 26 32 33 40 46 48 49 50 46 46 44 46 48 50 48 49 43 42 42 41 43 44 44 44 43 47 48 50 49 48 48 46 43 42 41 40
26 33 32 30 33 34 35 35 35 36 34 47 48 45 48 44 43 42 41 44 47 49 46 41 40 40 41 39 41 43 42 42 46 46 46 44 43 42 42 42 41 40 39 38
25 32 31 27 32 34 35 38 37 31 40 43 44 47 43 42 41 39 41 42 42 40 38 41 41 41 39 40 41 40 41 43 43 42 41 41 41 41 39 38 38 36 36 36
27 29 20 36 39 40 38 40 40 41 43 46 46 44 43 42 40 40 39 39 40 41 40 39 40 39 40 40 40 38 38 39 40 40 38 38 38 37 36 36 35 34 33 33
28 28 31 36 39 38 37 38 43 42 44 43 46 39 37 42 42 40 41 41 40 41 40 39 39 39 38 36 38 38 37 38 39 39 38 37 35 34 35 34 34 33 33 33
32 27 22 36 42 44 43 33 44 43 43 42 42 35 37 40 40 40 41 41 40 40 41 40 40 40 37 35 35 35 35 36 37 38 36 35 35 35 35 34 32 34 32 32
32 30 31 42 44 45 31 35 42 43 43 40 38 39 37 40 40 41 40 40 40 40 39 39 40 38 35 34 32 35 37 37 36 37 36 36 35 34 33 33 33 33 32 31
33 31 26 44 43 38 43 42 43 42 41 41 38 37 37 41 39 38 39 39 39 37 36 38 39 37 34 33 35 37 35 34 35 36 37 36 35 35 34 32 30 28 27 27
34 36 45 46 44 45 44 42 41 40 41 40 38 37 37 36 37 38 39 39 39 37 37 37 38 38 34 35 38 38 38 37 37 37 35 32 31 28 28 27 26 26 28 25
38 41 43 46 47 44 43 41 42 42 42 40 38 38 36 39 36 35 37 34 37 38 37 37 39 39 39 39 39 38 34 30 29 29 28 27 29 28 26 25 25 27 26 24
38 42 44 43 46 46 43 42 41 40 40 40 39 37 36 39 38 37 38 37 38 36 34 35 38 38 37 36 33 30 28 28 27 27 25 25 27 26 28 25 27 26 25 26
35 42 42 44 47 45 43 41 42 40 37 38 39 37 36 35 39 38 37 37 37 37 37 36 37 35 31 32 31 29 28 28 27 26 25 26 25 25 37 37 37 36 34 30
43 43 45 47 44 44 42 41 41 40 39 37 37 37 35 34 34 39 38 37 37 36 36 37 35 30 30 31 30 29 26 27 28 28 25 25 25 25 23 27 35 35 36 36
47 45 41 42 43 42 41 40 42 39 38 38 37 36 35 34 35 36 36 37 37 37 37 35 32 28 29 29 29 27 27 33 25 24 23 24 25 24 23 23 21 22 29 32
44 44 43 43 41 39 39 38 37 36 36 36 35 35 34 32 31 35 37 37 36 35 34 30 28 26 28 29 29 26 26 25 24 23 24 25 24 23 22 22 21 20 22 26
38 38 40 41 42 38 37 36 36 35 35 34 34 34 32 32 36 35 34 34 33 32 29 28 28 27 28 28 27 26 27 32 28 25 24 23 23 22 21 20 20 19 19 20
31 31 31 31 31 36 36 37 37 36 35 34 34 34 33 33 33 33 33 34 32 29 28 29 27 28 29 28 27 25 25 27 31 24 23 23 22 21 21 19 19 18 18 22
35 37 38 37 37 38 37 37 37 36 36 37 35 34 31 30 30 30 30 29 27 26 28 28 28 28 29 28 27 25 24 24 24 22 22 22 21 21 20 20 19 18 18 21
38 38 38 38 38 38 38 36 36 36 36 35 33 31 33 32 30 28 27 27 26 24 24 26 33 29 27 29 27 23 22 22 23 22 22 24 20 20 19 19 19 18 18 20
37 38 38 38 39 42 41 40 39 37 36 36 35 32 30 29 29 28 28 27 27 27 25 27 28 27 26 29 30 22 22 22 22 21 21 20 19 18 18 21 21 19 18 19
36 36 36 37 37 37 38 38 38 36 35 35 33 32 30 28 29 28 27 27 27 29 25 31 26 25 25 27 24 21 20 20 21 19 19 18 18 18 17 17 18 19 18 18
34 35 36 36 36 35 35 35 35 34 33 32 31 31 29 27 27 27 29 29 27 33 28 25 25 28 26 31 21 20 19 19 18 18 17 17 17 16 16 16 16 14 14 13
33 33 34 35 34 34 35 35 34 34 32 32 31 31 31 30 30 29 27 28 28 32 26 25 29 33 34 22 21 20 18 18 17 17 17 17 17 16 14 9 10 12 10 11
30 31 31 32 34 34 32 32 32 32 32 32 32 32 31 29 28 29 31 32 33 33 26 27 31 35 32 19 18 18 17 17 16 16 16 22 16 12 7 9 9 11 11 13
28 28 27 28 29 29 28 27 28 29 30 30 30 31 32 33 32 29 28 30 34 30 27 33 35 34 20 19 19 18 17 17 16 10 10 8 7 7 8 9 10 11 11 12
26 27 28 28 27 28 29 29 28 28 29 28 29 30 29 29 29 29 29 31 30 29 25 27 25 23 20 19 19 19 18 17 16 13 13 10 9 9 9 10 11 11 11 11
27 30 27 27 27 28 27 28 27 27 30 29 28 28 28 28 28 28 30 29 27 25 24 24 23 23 19 19 19 18 18 16 17 13 12 9 8 8 10 11 11 12 13 13

GFSNGP_sfc_temp_030.txt.gz
Temp
31 34 32 32 32 32 28 30 24 29 30 38 43 45 49 47 47 45 41 41 42 42 41 41 40 40 40 40 43 45 44 44 44 46 48 48 48 48 47 46 44 44 43 42
23 32 31 29 32 34 33 35 34 35 34 46 46 48 47 47 41 41 42 40 42 41 39 41 41 41 41 41 41 42 41 41 44 43 44 44 43 42 42 42 41 41 41 40
20 30 30 26 31 33 35 36 36 30 40 44 42 46 45 41 39 39 40 39 38 40 40 39 39 40 39 39 41 40 40 39 41 40 40 40 41 40 39 38 38 38 39 38
20 27 19 34 38 39 38 39 39 39 41 43 43 46 41 37 36 37 39 40 39 38 39 39 40 39 39 40 39 39 39 39 40 39 39 39 38 37 36 36 36 35 34 35
22 28 31 36 37 37 37 38 42 41 43 43 43 41 37 39 38 38 40 40 40 40 40 40 39 38 37 37 37 36 37 38 39 39 37 36 35 34 34 33 33 33 34 33
31 26 22 36 41 44 42 34 43 42 42 40 39 35 37 37 37 37 38 40 39 40 40 39 38 37 36 36 36 35 35 35 36 36 35 33 33 32 33 33 32 33 32 33
31 27 31 40 44 45 31 35 42 41 42 40 38 39 37 39 37 37 39 39 40 39 38 38 38 37 35 35 32 35 37 36 36 36 35 34 33 34 33 32 31 30 30 31
33 28 25 43 42 39 44 41 42 40 40 40 39 37 37 39 36 37 37 37 39 37 36 38 39 38 35 34 35 35 35 34 33 34 35 33 31 30 30 31 31 29 28 27
33 33 43 45 45 47 45 44 40 39 40 40 38 36 37 36 36 39 37 38 39 37 37 38 38 38 34 36 38 38 37 36 35 34 32 31 29 27 27 26 26 26 28 24
36 39 41 44 45 45 43 41 41 41 40 39 38 38 36 36 35 36 34 34 37 38 37 36 38 39 38 38 38 36 32 28 27 27 26 26 28 28 26 25 25 27 26 24
37 39 42 42 46 46 45 42 42 41 40 40 39 37 36 38 38 38 37 34 35 33 35 36 37 36 34 32 31 28 27 27 26 26 24 25 27 26 28 24 26 25 24 25
35 40 40 42 45 45 43 42 42 40 37 37 39 37 36 35 39 38 37 37 37 35 34 35 36 34 30 30 29 28 27 27 26 25 25 26 25 25 38 37 37 36 34 30
40 40 41 43 43 41 42 42 41 40 39 37 37 37 36 33 35 39 38 37 37 36 36 37 34 29 29 30 29 28 26 27 27 28 25 24 24 24 23 27 35 36 35 35
42 44 42 42 39 41 41 42 41 38 38 38 37 37 36 34 35 35 37 37 37 37 36 35 32 28 28 29 29 26 27 32 25 24 23 23 24 23 22 22 21 21 28 31
40 40 39 41 42 39 38 37 36 37 36 35 35 35 35 33 31 35 37 37 36 36 34 32 27 26 27 28 29 26 26 25 24 23 23 25 23 23 22 21 20 19 20 25
34 35 35 35 36 41 39 35 35 36 35 34 33 33 34 33 34 35 35 35 34 33 32 29 28 27 28 28 26 25 26 31 27 24 24 23 22 22 21 19 19 18 19 19
30 31 29 32 32 34 38 38 36 36 35 34 33 33 34 33 33 33 34 34 33 33 32 30 28 29 29 28 27 25 25 26 30 24 23 22 21 21 20 19 18 18 18 21
33 34 34 34 34 35 37 37 37 36 34 35 35 34 33 33 33 32 32 32 31 28 29 29 28 28 28 28 26 25 24 24 24 22 22 22 21 20 19 19 18 18 18 20
38 37 38 38 37 37 38 39 39 36 35 36 35 34 34 33 32 32 31 30 29 26 26 27 33 30 27 29 26 23 22 22 23 22 22 24 20 19 18 18 18 18 18 19
37 37 37 37 39 38 39 40 39 37 36 36 35 33 32 32 31 28 29 28 30 30 27 28 29 28 27 29 30 22 22 22 22 21 20 19 18 18 18 21 20 19 17 18
34 35 34 35 36 37 36 37 38 36 35 35 34 32 31 30 30 29 27 27 28 30 28 32 28 26 26 28 25 22 21 20 20 19 19 18 18 17 17 17 17 18 18 18
32 32 33 34 35 35 35 35 36 35 34 33 32 31 29 28 28 28 30 31 29 34 30 28 27 29 28 31 22 21 20 19 18 18 17 17 17 16 16 16 16 14 14 12
31 32 32 32 32 33 34 35 34 34 32 31 30 29 29 30 30 29 28 29 30 33 28 27 30 34 34 22 22 20 19 18 17 17 17 17 17 16 14 10 10 12 10 11
29 30 29 30 32 32 30 32 32 33 32 32 31 30 29 29 29 31 32 33 33 33 27 29 32 35 33 21 20 18 18 17 16 16 16 22 16 12 8 9 10 11 10 12
26 26 26 26 28 28 28 27 28 28 30 30 30 30 30 30 31 30 30 31 35 31 27 34 35 35 21 20 19 18 17 16 16 10 10 8 7 7 9 10 10 10 11 12
25 28 26 26 26 26 27 28 27 28 28 28 29 30 30 31 30 29 29 30 31 30 26 28 28 25 22 20 19 18 17 16 16 13 13 10 9 9 10 11 11 11 11 11
20 29 25 23 25 25 26 27 26 27 29 28 27 28 29 28 29 28 29 29 29 26 25 25 25 25 20 19 18 18 17 16 17 12 11 10 10 9 10 11 11 12 12 13

GFSNGP_sfc_temp_033.txt.gz
Temp
33 35 33 33 34 32 28 31 28 32 31 39 43 45 47 49 46 44 43 43 41 41 42 42 41 42 43 43 44 45 45 45 45 48 49 48 46 46 47 47 46 46 45 43
25 34 33 30 33 34 34 35 34 35 35 47 49 46 46 45 41 41 41 40 40 40 41 40 40 40 41 41 41 42 42 42 43 44 44 43 43 42 42 42 42 42 41 41
22 32 31 27 31 33 35 36 37 31 40 44 44 45 44 42 40 38 39 40 40 39 40 40 39 40 39 40 41 41 40 41 42 42 40 40 41 40 39 39 39 39 39 40
23 28 20 35 39 39 37 39 39 40 42 44 44 45 44 41 39 38 39 39 39 39 40 40 40 39 38 39 40 39 39 39 40 39 38 38 38 37 37 37 36 36 36 36
23 24 31 36 37 36 36 39 42 41 44 44 44 43 39 40 40 39 39 39 40 41 40 39 38 38 38 37 37 37 36 37 38 38 36 36 34 34 35 34 34 33 33 33
31 25 21 37 41 45 44 36 45 42 43 42 42 38 40 39 39 38 40 40 40 40 41 38 37 38 36 36 36 35 35 36 36 36 35 33 33 33 34 34 32 34 32 32
31 29 30 40 43 45 34 38 44 43 43 42 40 42 40 39 38 39 41 39 41 40 38 38 39 38 36 35 33 36 36 36 35 35 34 33 33 33 32 32 32 31 30 31
33 28 25 43 41 39 46 44 45 43 42 42 41 38 38 39 37 38 38 38 38 38 38 39 40 37 35 34 36 36 36 35 34 34 35 34 33 31 31 31 32 31 31 31
33 33 41 43 45 46 46 45 43 42 42 42 40 38 38 37 37 38 38 39 40 36 36 38 39 38 35 36 38 38 36 34 34 34 33 34 33 32 32 32 31 31 31 30
35 39 40 44 47 45 44 43 43 43 42 42 40 38 37 37 37 38 36 36 39 38 35 35 38 39 39 39 38 35 32 32 32 32 31 31 33 33 31 30 30 31 30 29
35 39 41 42 44 45 46 43 43 43 42 41 40 38 38 37 39 38 38 36 36 36 35 36 37 35 35 34 34 32 31 31 31 30 30 30 31 32 32 30 32 30 29 30
34 40 41 41 43 44 43 41 43 42 40 40 40 38 37 36 40 39 37 37 36 36 35 36 36 34 32 33 33 32 31 31 31 30 30 31 31 31 38 38 37 36 34 33
40 41 41 43 43 41 40 40 41 41 40 40 39 38 37 36 36 40 38 38 37 36 37 37 35 32 32 32 32 31 30 30 32 31 30 29 29 29 28 31 35 35 35 35
41 40 40 41 40 40 39 39 41 40 39 39 38 37 37 36 36 36 37 39 39 38 37 36 34 31 31 31 31 30 30 33 30 29 28 28 28 27 27 27 26 26 29 32
38 39 40 38 37 39 41 38 37 37 37 36 36 35 35 33 33 35 37 39 38 37 35 34 32 29 30 31 31 29 29 28 28 28 27 28 27 26 26 25 24 24 25 27
35 34 34 34 34 34 36 39 36 36 36 35 34 34 34 34 34 36 37 37 35 34 33 33 32 30 30 30 29 28 30 31 29 28 27 26 26 26 25 24 23 23 23 23
30 30 28 29 32 32 33 36 39 39 37 35 34 34 33 34 35 34 35 36 35 34 33 33 32 31 31 30 29 28 28 30 30 27 26 26 25 24 24 23 22 22 22 24
32 33 35 36 34 33 34 36 37 38 36 36 34 33 35 34 34 33 33 33 33 31 32 32 31 30 30 30 29 27 27 26 26 25 25 25 24 24 23 22 22 21 22 23
35 37 37 37 37 37 35 37 39 40 38 36 36 34 35 35 35 33 33 32 31 29 30 30 34 31 29 30 29 27 26 25 25 24 24 26 23 23 22 22 21 21 21 22
34 37 36 36 37 38 36 37 38 38 37 37 36 34 33 33 32 31 32 32 33 33 31 31 32 30 29 31 31 26 25 25 24 23 23 22 22 22 21 22 23 22 21 21
32 34 34 34 34 36 36 36 37 37 36 36 35 33 33 31 31 30 30 29 30 32 30 33 30 29 29 31 28 25 25 24 23 22 22 22 21 21 20 20 20 20 20 20
31 32 32 33 33 34 35 35 36 35 34 34 33 32 30 28 29 29 32 32 30 35 32 29 29 31 30 32 25 24 23 22 22 21 20 20 20 20 19 19 19 18 18 17
31 31 31 31 31 32 34 34 35 34 33 32 31 30 30 29 29 27 27 31 31 33 30 29 31 34 35 25 25 23 22 21 20 20 20 20 20 19 18 17 16 17 16 15
28 29 29 29 31 31 29 30 29 31 32 32 32 31 29 27 27 29 33 34 34 34 28 30 34 35 33 24 23 22 21 20 19 19 19 23 19 18 15 15 15 15 15 16
26 26 24 24 25 26 26 26 27 28 30 30 31 30 30 30 30 29 29 30 35 33 29 35 36 36 24 23 22 21 20 19 19 16 16 15 15 14 14 14 14 14 15 15
24 25 25 25 24 24 25 26 26 27 28 28 29 30 29 29 29 28 28 30 30 30 27 31 31 27 24 23 22 21 20 19 20 18 17 16 14 14 14 14 14 15 15 15
17 27 23 22 23 22 22 28 24 24 27 27 27 27 28 29 29 28 30 29 29 27 27 27 28 27 24 23 22 21 20 20 20 17 17 14 14 13 14 14 14 15 15 16

GFSNGP_sfc_temp_036.txt.gz
Temp
39 40 39 39 39 39 34 41 36 43 42 50 54 55 56 56 55 52 50 49 48 48 48 45 46 47 47 48 49 49 49 49 50 52 53 53 52 51 51 50 50 49 46 45
33 38 38 35 40 41 40 41 41 43 42 54 58 57 55 55 51 49 47 47 47 46 45 44 44 43 43 45 46 49 48 45 47 49 49 46 48 47 47 46 46 43 42 42
32 37 37 33 38 40 42 43 43 38 47 54 51 52 52 52 48 47 46 45 45 45 43 42 41 41 39 43 46 45 44 43 44 45 44 42 42 42 40 40 40 40 40 41
32 35 27 42 46 46 44 46 47 48 50 52 53 54 53 49 49 47 45 45 45 43 42 41 41 40 40 41 42 41 41 41 42 42 40 39 38 37 36 36 36 36 36 38
32 33 40 45 42 42 42 44 49 47 51 53 53 51 50 48 48 47 46 46 44 43 42 41 40 39 39 38 37 37 37 38 40 39 37 36 35 35 35 34 34 33 34 34
34 27 29 44 49 51 51 41 51 51 50 51 50 47 52 47 47 46 46 46 44 43 42 40 39 41 38 36 37 35 36 36 37 37 35 34 34 33 34 34 33 34 32 32
36 32 40 50 50 52 37 43 52 51 52 50 48 52 50 48 46 47 47 46 44 44 42 41 41 40 36 36 34 36 37 37 37 37 36 35 34 34 34 34 33 32 32 33
37 32 29 51 48 44 51 52 51 49 51 50 51 47 47 47 46 45 44 44 44 44 42 42 42 41 37 36 37 38 38 37 37 38 38 38 36 34 35 37 37 37 37 37
42 42 52 52 52 54 54 52 51 51 51 50 49 47 47 46 46 46 46 45 46 45 42 41 41 42 38 38 39 40 40 39 41 42 42 43 43 41 41 41 40 39 37 37
43 50 50 52 54 51 52 52 52 52 51 50 49 49 48 47 46 46 46 45 45 44 44 42 43 44 43 43 44 44 42 41 42 41 41 42 41 41 41 40 39 38 37 36
45 49 50 52 54 54 53 52 52 52 50 50 49 49 49 48 47 46 45 43 45 45 43 44 44 44 44 44 44 42 41 41 40 40 41 40 40 41 40 39 39 38 36 37
44 52 53 52 54 51 49 48 49 49 49 49 49 50 48 48 48 45 42 42 40 43 42 42 44 42 42 42 43 42 40 40 40 39 39 39 39 39 38 38 37 36 35 36
50 51 51 52 50 49 46 47 49 48 50 48 49 49 48 47 47 45 43 42 40 40 40 41 42 41 41 41 41 40 40 39 38 38 39 38 37 38 36 35 35 35 35 35
49 49 47 48 48 46 46 47 47 47 48 48 48 47 47 45 45 45 44 42 42 40 39 39 41 40 40 40 40 39 39 37 39 38 39 38 37 36 36 35 34 34 32 33
45 45 44 45 44 44 44 45 44 45 47 45 45 45 44 43 43 44 46 44 41 39 38 37 38 38 38 38 38 38 38 38 38 38 37 36 35 34 34 33 32 32 32 32
41 41 42 41 41 41 41 42 43 44 43 41 43 43 43 45 45 45 44 41 39 35 35 35 34 38 38 37 37 37 37 35 36 36 35 34 33 33 33 32 31 31 30 30
39 37 35 35 38 39 39 41 42 43 44 42 42 43 42 42 42 42 41 41 39 37 36 34 34 36 37 36 36 36 36 35 35 34 34 33 33 33 32 31 30 30 30 30
39 39 39 39 37 37 39 41 41 43 42 43 42 42 41 40 41 40 36 36 34 34 34 34 34 36 35 35 35 35 35 35 33 33 33 31 31 31 31 30 29 28 29 29
40 39 38 38 38 37 38 39 40 42 43 42 39 37 38 39 40 37 35 35 34 33 34 33 35 35 35 34 34 34 34 33 31 31 32 31 30 30 30 29 29 28 28 27
38 38 38 36 37 36 36 37 37 38 40 39 38 37 36 37 36 34 34 34 35 35 32 32 33 35 34 35 34 34 33 32 31 31 30 30 29 29 29 27 27 28 27 27
36 36 36 35 36 38 37 37 38 38 38 38 38 38 37 36 37 35 31 31 32 35 33 35 35 34 34 35 34 33 32 32 31 30 29 29 28 29 28 27 27 26 26 25
35 35 35 35 35 36 36 37 38 38 36 35 35 35 34 32 32 31 32 32 31 36 35 35 34 34 34 35 32 31 31 31 30 29 28 28 28 28 27 26 26 26 25 25
34 34 34 33 33 34 36 35 35 36 34 33 33 33 33 33 31 28 27 29 29 35 34 34 34 35 35 32 31 30 30 29 29 29 28 28 28 27 26 26 25 25 24 24
32 32 31 32 34 33 31 32 32 33 33 33 33 33 32 30 29 30 30 31 31 33 30 33 35 36 36 30 30 29 29 29 29 28 27 27 27 26 25 25 24 25 24 23
30 30 30 30 30 30 29 30 31 32 33 34 34 32 32 32 32 31 30 32 34 32 30 34 36 36 33 30 29 28 29 28 28 27 27 26 25 25 25 24 23 23 23 24
29 30 30 29 30 29 28 30 29 31 32 32 33 33 33 31 31 31 31 31 31 31 29 31 34 36 30 29 29 28 28 27 27 28 25 25 24 24 24 23 23 23 23 23
28 30 30 30 29 28 28 30 28 28 29 30 30 32 32 32 30 29 30 30 30 30 29 31 35 33 30 29 28 28 28 28 27 26 26 25 24 23 23 23 22 22 22 22

GFSNGP_sfc_temp_039.txt.gz
Temp
43 44 42 41 42 43 37 41 39 47 48 53 57 57 59 59 59 56 55 53 52 51 52 50 48 46 45 46 49 51 51 50 51 53 52 52 52 51 51 51 50 51 49 47
34 42 42 38 43 44 43 43 44 46 46 58 60 62 58 58 56 53 52 51 50 50 48 45 44 43 43 44 46 48 48 47 49 49 48 47 47 47 46 45 46 46 45 45
34 41 39 34 41 43 45 47 47 41 50 57 54 55 55 55 54 51 50 49 49 47 44 43 42 42 41 43 45 45 45 44 45 45 43 42 42 40 40 40 40 40 41 42
33 37 27 44 50 49 46 48 50 51 54 56 56 57 57 55 54 51 50 49 48 46 43 43 43 41 41 41 42 42 43 43 44 43 41 40 39 38 37 36 36 36 35 35
33 35 43 47 47 45 44 45 52 50 53 55 57 55 53 53 54 52 51 50 47 45 44 42 41 41 40 38 38 37 37 38 40 40 38 37 36 35 35 34 34 33 34 33
37 30 31 45 51 54 53 42 53 54 53 54 54 47 51 51 51 50 50 49 46 46 43 42 42 42 38 37 37 36 37 37 37 37 36 34 34 33 35 35 33 34 32 33
36 33 41 53 53 55 39 42 54 54 54 53 50 53 53 52 51 51 51 48 47 47 43 42 43 41 37 37 34 37 38 38 38 39 38 36 35 35 34 34 33 33 33 34
38 33 30 54 51 45 52 56 55 53 53 52 53 52 51 51 49 49 48 47 48 46 44 43 43 42 38 36 39 40 40 40 40 40 40 39 37 35 36 39 39 39 39 38
45 44 54 56 56 57 57 55 54 54 52 51 51 51 50 49 49 49 49 49 49 47 45 45 45 45 41 40 43 43 42 43 44 44 45 45 44 43 42 43 41 39 38 37
46 52 53 55 57 56 55 55 55 55 54 52 50 52 51 50 50 50 50 49 49 48 46 44 46 46 46 44 46 46 44 43 44 43 43 43 42 42 41 41 39 38 37 36
47 52 52 55 58 57 55 55 54 54 54 53 53 52 52 51 50 51 50 49 49 48 48 46 47 47 47 47 47 44 43 42 42 42 43 41 40 41 39 38 38 38 36 36
45 56 55 57 58 57 54 53 52 51 52 53 52 51 53 52 52 51 50 47 46 47 46 46 47 47 46 47 46 44 42 41 41 41 41 40 40 38 38 38 37 37 36 35
55 57 57 57 56 54 52 52 52 51 51 51 53 52 52 51 52 51 49 45 44 43 44 45 45 44 45 45 45 44 42 40 39 38 39 39 38 38 36 34 36 35 35 35
55 54 51 52 51 50 50 50 50 50 51 51 52 52 51 50 50 50 47 46 45 44 44 43 42 42 45 44 42 42 41 40 39 39 40 39 38 36 36 35 34 34 33 33
51 51 49 49 49 49 48 48 47 48 50 51 50 49 48 47 47 48 50 48 45 43 42 40 40 39 43 42 40 40 39 38 39 38 37 38 36 35 34 33 33 33 33 34
47 47 47 46 45 45 45 45 45 46 48 48 47 47 48 48 49 49 49 48 41 39 39 38 36 37 38 40 39 39 39 38 38 36 35 34 33 33 33 32 32 32 31 31
44 41 38 37 41 43 42 44 44 44 45 46 47 46 44 45 46 47 46 46 44 42 39 36 34 35 36 38 39 38 37 36 37 35 34 33 33 33 32 31 31 31 30 32
45 44 44 42 40 39 38 40 43 44 44 46 46 45 43 43 43 44 44 43 41 38 35 35 35 35 35 37 38 37 37 36 34 33 33 32 32 32 31 30 30 30 30 31
44 42 40 39 38 37 38 38 39 40 43 45 44 42 43 42 42 41 39 37 36 34 34 35 36 35 33 35 36 36 36 34 33 32 32 33 31 30 30 30 30 30 29 29
41 41 41 40 39 37 36 38 37 36 38 39 41 39 38 39 37 36 36 36 37 38 35 35 34 31 33 36 37 35 35 33 32 32 31 31 31 30 30 29 28 29 29 29
39 39 39 38 38 40 39 40 39 39 39 39 38 37 36 38 38 36 34 33 34 36 35 35 33 31 33 36 36 34 33 33 32 31 30 30 30 29 29 29 29 28 27 27
38 38 38 37 38 38 38 38 38 38 37 36 35 36 36 35 34 33 34 35 33 36 33 32 32 31 34 37 34 33 33 32 32 31 29 29 29 29 28 27 27 26 26 25
37 36 37 36 35 36 38 37 36 36 35 34 33 33 33 35 35 32 30 32 32 33 31 31 31 32 36 35 32 32 32 31 31 30 29 29 29 28 26 25 26 26 25 25
34 34 34 35 36 35 33 34 33 34 34 34 34 33 32 32 32 33 33 33 32 33 30 31 32 35 37 33 32 31 31 31 30 30 29 30 27 26 25 25 24 25 24 24
33 32 33 32 33 32 31 31 33 33 34 35 35 35 33 33 31 32 33 32 33 32 30 33 33 34 35 31 31 30 30 29 29 28 27 26 26 25 25 25 23 24 24 24
32 33 32 32 32 31 31 31 30 31 32 32 34 34 34 34 32 31 31 32 32 32 30 30 31 32 32 31 30 30 29 29 29 28 27 26 25 25 25 24 23 23 23 23
31 31 33 33 32 31 31 31 31 30 31 31 30 34 34 33 32 31 30 30 31 31 30 30 31 32 29 29 30 30 29 29 29 27 27 26 25 24 24 24 23 23 22 22

GFSNGP_sfc_temp_042.txt.gz
Temp
38 42 38 37 39 41 33 36 30 38 40 45 48 50 52 53 53 52 51 49 48 46 43 43 44 44 44 45 46 47 44 44 44 45 44 44 44 43 44 45 44 43 42 41
29 41 39 33 39 40 41 41 40 41 40 49 51 53 52 52 51 50 49 48 47 46 43 43 42 42 43 43 44 46 45 44 46 44 45 43 43 43 40 41 42 43 43 43
26 38 35 28 36 39 41 42 42 35 43 49 49 51 50 49 50 49 47 47 45 41 40 42 41 41 40 41 44 44 43 43 44 43 41 41 40 39 38 37 37 37 39 40
24 29 18 39 45 46 43 45 45 47 48 50 51 51 51 50 48 47 47 46 43 40 39 41 41 40 40 40 40 40 40 41 41 41 39 38 37 36 36 36 35 35 34 35
30 25 35 40 42 42 41 41 49 46 48 48 50 47 44 49 49 47 46 43 41 41 40 41 41 40 39 38 37 37 37 37 38 38 36 36 35 34 35 34 33 33 33 33
35 26 23 40 46 50 48 37 49 50 48 48 47 38 40 46 47 46 45 43 41 40 42 41 41 39 38 37 37 36 37 37 37 36 36 34 34 33 34 34 32 33 32 33
33 30 34 46 49 50 34 37 48 50 50 48 45 45 46 47 47 46 45 43 42 41 41 41 41 39 37 36 34 37 39 39 38 38 36 35 34 35 33 33 31 24 29 31
35 31 25 48 46 39 45 48 48 48 48 48 47 47 46 47 45 45 43 43 43 41 41 42 42 40 37 36 38 39 40 39 39 39 39 37 33 32 28 28 29 29 30 29
37 36 47 49 46 49 50 49 48 47 48 49 49 48 47 45 44 44 44 43 44 44 42 42 42 42 38 38 40 40 38 36 36 37 36 36 34 33 31 32 31 30 30 27
41 44 46 49 50 50 47 48 49 50 48 48 47 48 47 46 45 44 45 44 44 42 39 38 39 40 38 38 39 38 36 35 35 35 34 34 33 32 30 30 29 30 29 28
40 44 43 48 50 50 50 49 49 49 48 47 47 47 48 47 46 46 45 45 45 43 41 39 40 40 39 39 39 37 35 34 34 34 33 31 30 30 29 29 31 28 27 28
37 47 46 48 51 52 49 48 47 45 44 46 47 46 47 46 49 47 45 44 45 44 44 44 43 43 40 40 39 36 33 32 31 31 31 30 29 28 38 37 37 37 37 32
46 49 48 48 49 48 48 47 46 44 45 44 46 46 46 46 47 48 45 43 44 44 43 44 44 43 42 41 38 37 32 31 31 33 31 30 30 29 27 30 37 36 35 35
49 48 45 45 43 45 45 45 46 44 45 45 45 46 46 45 46 46 45 44 43 44 43 43 42 41 42 41 36 35 33 38 30 30 29 29 30 29 29 28 27 27 33 33
45 45 43 44 44 43 43 43 41 41 43 44 44 43 43 42 42 43 44 44 42 41 42 41 40 39 41 40 35 33 31 30 30 29 30 31 30 29 28 28 27 26 27 31
43 43 42 41 40 40 39 39 38 39 40 41 41 41 42 42 42 43 44 42 39 38 39 39 37 38 39 38 35 33 32 36 34 29 29 29 29 28 28 28 26 25 25 25
38 34 32 31 36 37 36 38 38 39 40 39 39 41 40 40 43 43 43 40 38 37 35 36 36 36 36 36 35 34 31 31 35 29 28 28 28 28 28 26 25 25 25 29
40 40 39 38 36 35 36 39 40 41 38 39 40 40 38 38 39 41 41 40 37 34 33 35 35 35 35 35 35 34 32 30 30 28 29 29 29 29 27 27 26 25 25 28
41 39 38 38 38 37 37 37 38 38 39 39 37 37 37 37 38 40 39 37 35 33 33 34 36 35 34 35 35 33 31 30 29 29 29 31 29 28 26 26 26 26 25 26
39 39 39 37 37 36 35 37 38 37 37 37 37 37 34 35 36 36 35 34 35 36 35 34 35 33 33 35 36 33 32 30 29 28 28 27 27 27 26 29 27 26 25 26
37 37 36 35 35 36 35 35 36 36 37 37 36 35 33 35 37 35 33 32 34 36 35 36 33 32 32 31 33 32 31 29 28 27 27 27 27 27 26 25 26 27 26 25
35 35 35 34 34 34 34 34 34 34 34 34 34 34 33 33 32 32 33 33 33 37 34 33 33 33 32 33 30 31 30 30 29 28 26 27 27 26 25 25 24 22 22 19
35 35 35 32 31 32 34 33 32 33 32 31 31 32 32 32 32 30 29 31 31 34 32 32 33 34 34 31 30 31 30 29 28 28 28 27 27 26 22 17 19 20 17 17
33 33 31 32 32 32 30 30 28 30 30 31 29 28 30 31 31 31 32 33 34 33 31 31 33 35 34 29 27 29 29 29 27 26 27 30 25 21 17 17 18 19 17 21
31 30 29 26 27 26 26 26 27 27 28 29 30 30 28 28 30 30 31 31 33 33 29 33 34 34 31 28 27 29 28 27 26 25 25 24 23 22 21 20 20 18 16 17
30 30 29 28 27 26 26 27 26 27 27 26 27 28 28 28 27 28 29 31 30 32 27 29 31 32 29 27 27 28 27 27 28 27 25 24 24 22 21 20 18 17 16 15
25 31 26 26 26 26 26 26 25 24 27 26 26 28 28 28 27 32 30 29 30 30 28 28 29 31 28 28 26 28 28 27 27 25 25 23 21 19 20 20 18 17 16 17

GFSNGP_sfc_temp_045.txt.gz
Temp
36 39 37 36 37 39 32 37 31 38 37 42 47 47 48 49 49 48 47 47 46 43 40 39 39 42 44 44 45 46 43 43 44 43 41 41 40 40 40 41 43 44 42 43
26 37 36 32 37 38 39 40 37 37 36 48 49 50 49 48 49 48 47 46 45 42 41 39 40 41 42 42 44 45 44 43 45 43 42 41 41 41 41 41 40 40 40 41
22 35 32 27 34 37 38 41 41 34 43 45 47 49 47 46 48 47 46 45 43 40 39 40 39 41 39 41 42 42 42 42 42 41 40 39 39 38 37 37 37 37 38 39
22 27 18 36 42 42 41 42 43 43 44 47 49 49 48 48 47 45 45 44 41 38 38 38 41 40 40 40 40 40 39 40 40 39 38 38 37 36 36 36 35 35 35 36
24 27 32 37 40 41 38 38 45 44 45 47 48 46 41 47 48 45 45 42 40 38 37 40 40 40 39 38 38 38 37 37 38 37 36 36 35 35 35 33 33 33 33 34
31 25 22 38 42 46 46 34 46 48 46 45 45 38 41 45 45 43 42 41 38 37 38 40 38 40 38 37 37 36 36 36 37 37 36 34 34 33 34 34 32 33 32 27
30 28 32 43 45 47 33 36 46 47 47 46 43 44 44 44 44 43 42 40 40 38 37 38 37 39 36 36 34 38 39 38 37 37 36 35 34 34 33 26 23 27 30 31
29 29 23 46 44 38 44 44 44 46 45 45 45 44 44 44 43 42 41 41 40 38 40 40 40 39 37 36 38 39 39 39 38 36 36 35 33 31 26 26 27 27 26 26
33 33 43 45 45 46 48 47 44 45 45 46 45 45 46 44 43 43 42 41 41 39 40 41 41 40 37 38 40 40 36 34 34 34 34 33 31 30 29 29 28 28 28 26
38 40 43 46 46 47 46 45 48 47 47 48 47 47 47 45 44 43 43 42 42 40 39 40 42 42 40 39 37 36 33 32 32 32 31 31 31 31 29 28 27 28 28 26
37 41 43 45 47 47 47 47 46 46 46 46 46 45 45 45 45 45 44 44 44 42 41 40 39 38 37 37 36 34 33 32 31 32 30 28 29 29 29 27 29 27 26 27
35 43 43 44 48 47 46 45 45 45 43 43 44 45 45 44 46 46 45 44 43 44 43 42 42 40 38 39 36 33 32 31 30 29 29 28 27 27 38 37 38 38 37 32
44 46 45 43 45 46 45 44 45 44 42 41 42 44 43 43 44 46 43 43 44 43 44 44 43 42 42 41 39 34 31 30 29 32 29 27 27 27 26 30 37 37 36 36
47 46 43 43 41 42 43 43 45 42 42 42 42 43 43 42 43 43 42 43 43 42 42 44 43 42 43 42 37 35 32 37 29 29 28 27 28 29 28 27 26 27 34 35
42 43 43 42 41 41 41 41 39 39 40 40 41 41 41 40 40 42 43 42 41 40 39 40 41 40 41 41 38 36 35 31 29 28 28 29 28 28 28 28 27 27 27 31
42 42 40 39 39 38 38 37 36 36 38 38 38 38 39 39 40 41 42 40 38 38 36 39 38 40 40 40 37 35 34 35 33 29 29 28 27 28 27 27 27 27 26 26
38 34 32 31 35 35 34 36 36 36 37 36 36 37 38 38 38 39 40 42 41 39 37 37 36 36 37 37 36 35 34 34 36 30 29 29 28 27 27 27 26 26 26 29
38 38 37 38 35 35 37 38 39 39 37 36 36 36 36 35 35 36 37 38 38 36 35 35 35 35 36 36 36 34 34 33 33 31 30 29 28 28 27 27 26 26 26 28
40 37 36 38 38 37 37 37 37 38 38 38 37 36 34 34 34 35 36 36 36 35 36 35 37 36 35 35 35 34 33 32 31 30 30 32 30 27 26 26 26 26 26 26
38 38 37 35 36 35 33 34 34 35 35 36 37 37 36 35 33 33 34 35 36 37 36 33 34 34 34 35 37 33 33 32 31 30 30 29 28 27 26 29 27 27 25 26
34 37 36 35 34 34 33 32 32 31 32 34 35 34 33 34 33 32 33 32 35 37 36 35 32 33 34 36 36 30 30 30 30 29 29 29 28 27 26 26 27 27 26 25
34 33 34 33 32 32 32 31 31 30 30 30 30 33 32 32 32 32 33 31 32 38 34 32 32 34 33 35 32 29 28 27 30 29 28 28 27 26 26 25 25 23 22 21
34 35 34 32 30 31 31 30 29 29 29 27 28 28 30 31 31 30 30 32 30 34 32 31 33 36 35 33 30 28 27 27 30 29 29 28 28 27 26 23 22 22 20 20
32 32 31 31 31 30 28 28 27 29 28 29 27 26 28 29 30 29 31 33 34 34 32 31 33 35 36 30 29 27 26 26 29 28 28 31 26 25 23 23 22 21 22 23
30 30 29 27 28 28 25 24 25 25 27 28 28 28 26 25 28 30 30 31 33 33 31 33 34 35 33 29 28 27 26 25 27 25 25 25 24 24 23 22 22 23 22 20
29 30 30 29 28 27 26 26 25 25 26 25 26 27 27 27 26 29 29 30 30 32 29 28 31 32 29 28 27 26 25 25 29 28 26 24 24 24 24 23 22 21 20 19
27 31 28 28 28 27 25 26 25 24 26 25 25 26 26 26 26 27 31 28 26 26 29 29 30 31 27 27 26 25 25 27 29 26 25 23 22 22 21 21 20 20 19 19

GFSNGP_sfc_temp_048.txt.gz
Temp
33 37 35 34 35 38 34 38 33 39 37 43 46 48 49 50 48 47 46 46 45 41 38 37 38 39 40 43 45 45 41 42 42 42 40 40 39 40 39 39 39 39 39 39
25 36 35 32 35 37 39 39 37 36 35 45 50 49 49 47 46 46 46 45 44 42 39 38 37 38 41 42 43 45 43 43 43 43 42 41 41 40 40 39 40 40 40 41
20 32 32 27 33 35 37 40 39 32 43 43 44 48 48 47 47 47 45 44 42 40 38 37 37 39 40 41 42 42 42 42 41 41 40 39 39 38 37 37 37 37 37 39
20 26 17 35 39 41 40 41 43 42 43 47 47 48 48 47 47 46 45 44 41 38 37 37 38 39 39 40 40 40 40 40 40 39 38 37 37 36 35 35 35 35 35 36
21 20 31 37 38 37 35 36 44 42 44 44 47 46 40 47 48 46 44 42 39 38 37 37 38 40 39 38 38 38 37 38 38 38 37 36 35 34 34 33 33 33 34 34
29 25 21 35 41 44 44 32 44 45 43 44 43 39 41 45 45 43 42 41 38 37 38 38 39 40 38 37 37 36 37 37 37 37 36 34 34 33 34 34 33 30 24 21
27 26 30 40 43 46 30 34 44 43 44 42 42 42 44 43 42 42 41 39 39 38 37 36 37 39 37 36 35 37 38 38 37 37 35 35 34 34 30 29 30 30 31 31
29 26 23 43 41 37 42 43 43 43 43 44 44 42 42 42 41 40 39 39 38 36 37 37 37 39 37 35 38 39 39 38 37 37 37 36 33 31 26 24 24 24 25 25
33 33 43 44 44 46 46 46 43 43 43 44 43 43 43 42 41 40 39 39 39 38 38 38 37 37 37 38 39 39 39 38 33 32 32 31 27 27 27 27 26 26 28 26
36 40 41 45 45 45 45 45 46 45 46 47 47 47 46 45 44 42 41 40 40 39 38 39 39 38 37 39 40 36 33 32 31 30 30 29 30 30 28 27 26 28 28 27
35 38 40 44 46 47 45 44 44 45 44 45 46 45 45 44 45 44 43 43 42 41 40 40 41 38 37 37 36 33 31 30 30 30 30 28 29 28 29 27 28 27 27 27
36 42 43 44 46 46 44 44 44 44 43 43 43 43 43 43 44 44 43 43 42 42 42 42 42 41 38 38 36 33 31 30 29 28 27 28 27 27 37 36 39 38 36 31
38 43 46 43 42 43 44 43 43 43 42 40 40 42 40 42 42 44 42 41 42 42 43 43 41 41 41 40 37 35 32 30 29 31 27 26 27 27 26 30 38 38 37 37
43 42 41 43 41 42 43 42 44 42 41 41 40 41 40 40 40 41 41 42 42 41 41 42 42 41 43 41 37 35 33 37 31 30 28 27 27 27 27 27 26 27 34 36
43 40 41 42 39 39 40 40 38 38 38 39 39 38 38 38 38 39 41 41 40 40 40 40 40 41 43 42 38 37 36 35 33 30 29 30 29 28 27 27 26 26 26 31
37 38 41 40 39 38 38 37 36 36 36 36 36 36 37 37 37 38 39 39 36 37 36 37 38 41 42 41 38 37 37 37 35 32 30 29 28 28 27 26 25 25 25 25
33 34 35 34 36 36 35 36 36 35 36 35 34 34 34 35 36 36 37 38 37 39 39 38 37 35 37 38 37 36 34 35 37 32 32 31 29 29 28 27 25 25 25 28
38 37 38 38 36 35 37 38 38 38 37 37 37 34 33 33 33 34 35 35 35 35 35 37 36 35 35 36 36 35 34 35 35 32 32 31 29 29 28 27 26 25 25 27
40 37 37 38 38 38 37 37 37 38 38 38 37 36 36 34 32 32 32 33 33 33 36 36 37 36 35 35 36 35 34 33 32 32 31 33 31 28 27 27 26 25 25 26
35 36 36 35 36 35 33 33 33 33 33 35 35 34 35 34 34 33 32 31 32 36 37 36 35 34 34 35 37 34 33 33 31 30 30 30 30 29 28 30 27 27 26 26
33 33 33 34 33 33 32 32 31 30 31 31 31 32 32 33 34 33 32 29 33 35 37 36 33 32 33 35 36 33 31 29 29 27 28 31 30 30 28 27 28 27 27 26
33 32 32 32 33 32 31 30 30 30 29 29 28 28 30 31 31 31 33 31 32 36 34 33 33 34 33 37 32 32 30 29 28 28 26 27 29 29 28 27 26 24 24 23
32 32 31 30 29 31 30 29 28 29 28 26 26 26 27 29 30 29 29 32 32 33 33 31 33 35 35 33 31 30 29 28 28 27 26 28 30 28 26 24 23 23 22 22
31 31 30 30 30 30 28 27 27 28 27 28 25 24 24 25 24 27 28 32 33 34 32 32 33 35 37 32 30 29 28 28 27 26 26 29 27 26 25 24 24 24 23 25
30 29 28 28 27 28 27 24 23 23 26 26 27 27 25 24 26 25 30 30 32 32 31 33 35 35 33 30 29 28 27 27 26 25 24 26 26 25 24 23 21 21 21 21
28 28 29 29 29 29 27 26 25 25 26 25 26 26 26 26 25 24 25 31 29 31 29 27 30 31 29 29 28 26 26 26 27 27 25 25 24 23 23 22 21 23 21 20
29 30 28 28 28 27 26 26 24 24 25 25 25 26 25 25 24 25 28 24 29 28 29 28 26 30 28 28 26 25 25 25 27 25 26 24 23 23 23 22 21 20 18 17

GFSNGP_sfc_temp_051.txt.gz
Temp
33 36 34 32 33 38 34 36 32 38 36 42 45 45 46 46 47 45 44 44 44 41 39 38 38 39 40 40 42 45 41 39 39 40 40 40 41 42 40 38 38 38 39 42
25 33 33 32 34 35 38 38 38 39 36 46 49 45 45 48 47 47 45 46 44 42 39 38 38 38 40 41 43 44 43 42 43 42 42 41 41 41 40 40 40 40 41 41
19 30 31 27 33 34 35 38 39 34 42 44 44 45 48 48 48 46 46 46 44 42 40 38 37 38 38 40 43 42 42 42 41 41 40 39 39 38 38 37 38 37 38 39
18 26 15 33 38 39 37 41 40 40 41 45 46 47 48 47 47 45 45 44 42 40 38 38 38 38 38 39 41 40 40 40 40 40 38 38 37 36 36 36 35 35 35 35
20 18 28 35 35 36 34 36 41 42 44 43 45 42 44 46 46 47 46 42 40 39 38 37 37 37 37 39 39 38 38 38 39 38 37 36 35 34 34 34 34 33 33 32
26 24 19 34 39 42 40 30 41 41 42 40 41 37 41 44 44 43 43 41 39 37 36 36 36 37 37 37 37 37 37 37 38 38 36 34 34 33 34 34 32 28 24 20
31 27 29 38 41 43 28 33 42 42 42 41 40 43 44 43 41 41 40 39 38 38 37 37 37 38 37 37 35 37 38 38 37 37 35 35 34 34 33 32 31 28 26 24
29 28 23 41 39 35 41 42 43 43 41 42 43 40 41 41 39 39 38 38 38 37 37 37 37 37 36 36 37 38 38 37 36 36 37 36 33 30 26 24 24 24 24 25
31 32 42 42 43 45 44 43 43 43 42 44 42 41 41 40 39 39 38 38 39 38 36 36 37 38 37 36 36 37 37 36 33 36 36 34 29 26 26 25 25 25 27 25
34 38 39 43 45 44 44 44 44 46 44 44 44 43 43 42 41 41 40 39 39 38 37 36 37 37 38 37 38 38 37 33 31 30 31 28 29 29 27 26 25 27 27 27
34 39 40 43 43 45 46 45 44 43 44 44 47 45 46 45 44 44 42 41 41 40 39 39 39 37 37 37 36 33 32 31 30 30 31 27 28 27 29 26 28 27 27 27
33 38 34 39 43 44 44 44 44 44 42 41 44 45 42 43 43 43 42 42 41 41 40 41 41 39 39 38 36 33 31 30 29 29 28 28 28 27 36 36 38 39 37 31
34 38 41 43 43 42 42 43 43 43 43 42 40 41 39 41 41 43 41 40 41 40 42 42 42 41 41 40 38 34 32 31 30 32 28 27 28 28 26 30 39 39 38 38
40 38 37 42 39 42 42 41 44 41 40 41 40 40 39 39 38 40 40 41 41 40 41 41 41 41 42 41 38 36 34 37 31 30 29 28 28 27 27 27 26 26 34 36
36 37 36 38 41 40 40 39 38 37 37 38 38 37 37 37 37 38 39 39 39 38 39 39 39 39 43 41 38 38 35 34 35 33 32 30 28 27 27 26 26 25 26 31
37 35 37 37 40 39 39 37 35 35 36 35 35 35 35 35 36 37 37 37 36 35 36 37 38 40 42 41 39 38 37 37 36 34 33 32 30 28 27 26 25 25 25 24
32 33 34 33 36 37 36 37 36 35 35 34 34 34 33 33 34 35 36 36 36 36 37 35 38 37 37 37 37 37 35 35 37 33 33 32 32 31 30 27 26 26 26 28
38 36 35 36 35 36 36 37 37 36 35 36 37 37 35 33 31 31 32 33 34 34 34 35 35 36 36 36 37 36 35 34 34 32 31 31 31 31 30 28 27 27 26 28
37 35 34 35 37 38 37 36 36 37 37 37 37 36 36 35 34 32 30 31 31 31 34 35 37 36 33 35 36 34 34 33 33 31 30 33 32 30 30 29 28 27 27 28
35 35 35 34 34 34 33 32 33 32 32 32 33 32 32 32 34 33 33 31 30 32 32 34 35 34 34 35 38 34 34 33 31 30 31 30 28 30 30 31 29 29 28 28
32 32 33 32 32 33 32 32 32 30 30 30 30 31 30 32 32 30 30 31 31 31 35 36 34 33 33 34 36 32 32 30 30 29 29 30 28 29 30 29 30 29 29 28
33 32 31 30 30 31 31 30 30 30 29 29 29 28 27 27 30 30 32 29 30 36 34 32 32 34 33 37 33 32 31 30 30 29 28 28 28 27 27 29 28 26 26 25
32 32 32 31 29 28 30 30 29 30 29 27 27 26 25 26 27 29 28 30 31 33 33 32 34 36 37 30 31 30 30 29 29 28 28 28 28 27 26 25 25 26 25 24
31 32 31 31 29 29 28 29 27 28 28 28 26 24 23 23 23 27 26 32 32 33 32 32 34 35 36 31 30 29 29 29 29 28 28 30 27 26 24 26 26 26 24 25
31 30 29 28 28 28 27 27 26 25 27 27 27 27 24 22 22 24 25 30 31 31 31 32 34 35 32 31 30 29 28 27 28 27 27 27 26 25 26 24 24 23 22 20
29 30 29 30 29 28 28 26 26 26 26 25 26 26 25 25 23 23 23 28 29 29 29 30 25 30 30 29 29 28 27 26 27 28 27 26 25 24 24 23 22 22 21 20
29 31 29 28 28 28 28 26 25 26 26 25 24 26 25 25 23 24 27 22 24 29 29 29 26 26 29 25 28 27 25 24 26 25 24 23 22 23 23 22 22 21 19 18

GFSNGP_sfc_temp_054.txt.gz
Temp
31 34 33 33 34 37 34 36 32 38 38 43 47 49 44 45 45 44 43 42 42 40 39 38 38 39 40 40 41 41 40 39 38 38 39 39 42 41 39 38 37 41 41 42
27 33 32 31 33 33 37 38 38 38 37 48 45 44 44 45 45 44 45 46 43 41 39 38 37 37 39 40 42 43 43 42 43 42 42 41 41 41 40 40 40 41 41 41
20 29 30 25 32 33 33 37 39 33 42 42 45 46 46 45 47 47 48 46 45 42 40 38 37 37 37 39 41 42 42 42 41 41 40 39 39 39 38 37 38 38 38 39
18 24 15 33 36 38 36 38 39 39 42 43 45 46 46 47 47 44 45 45 43 41 39 38 38 37 38 39 39 40 40 40 40 40 38 38 38 37 36 36 36 36 35 32
19 18 28 33 34 34 33 35 38 39 42 44 42 41 42 46 46 48 46 44 42 40 38 37 37 38 38 37 38 39 38 39 39 39 37 37 35 35 35 34 34 33 31 27
25 19 18 32 37 40 39 29 40 40 40 39 38 33 43 44 44 43 43 42 39 38 36 36 36 37 37 36 38 37 38 38 38 38 37 35 34 33 34 34 32 30 24 22
27 27 29 37 40 41 27 32 41 41 42 39 36 41 43 41 40 40 39 38 38 37 36 36 37 37 36 36 35 38 39 38 38 37 36 35 34 34 33 30 25 21 21 22
27 27 21 39 38 33 41 41 42 42 42 41 40 40 39 40 38 38 37 37 37 36 36 37 37 37 36 36 37 38 38 37 37 36 37 36 33 31 30 29 28 27 24 25
30 30 40 39 40 43 42 42 42 42 43 42 41 40 40 39 38 37 37 37 37 36 36 37 38 38 35 36 36 38 37 36 35 36 36 34 30 28 26 24 24 25 27 25
33 36 37 40 41 41 41 42 45 46 47 45 43 41 41 40 39 38 38 37 38 37 36 35 36 36 37 36 36 36 36 34 34 34 34 32 29 29 27 25 25 27 27 26
32 37 37 38 39 39 42 43 42 44 44 44 45 44 45 43 42 42 41 40 40 39 39 39 38 38 38 36 36 34 34 33 31 32 34 29 29 28 29 27 28 28 27 27
28 34 32 36 41 42 41 40 43 42 42 41 43 46 45 43 43 42 40 41 40 40 40 40 40 39 38 37 37 35 32 31 31 30 29 28 27 28 36 36 38 38 38 31
32 37 36 38 41 41 38 41 42 41 42 41 39 42 42 41 41 43 41 39 39 39 41 42 40 39 40 39 38 35 34 32 31 33 29 28 28 28 27 31 39 40 39 38
37 34 33 37 36 38 38 41 42 39 39 39 39 39 39 38 38 39 39 40 40 39 39 40 40 40 41 40 39 37 35 37 32 31 30 28 29 29 28 28 27 27 35 37
35 35 35 37 37 39 39 40 39 37 37 36 36 36 37 36 36 37 37 37 37 37 38 38 38 39 41 41 39 38 36 35 34 32 32 32 31 30 29 27 26 26 26 31
36 37 37 35 36 37 38 38 37 37 36 35 34 34 34 34 34 35 36 36 35 35 36 36 37 39 39 39 37 38 38 37 37 34 33 33 32 31 30 29 27 26 26 26
32 33 34 33 33 35 37 37 37 37 36 35 34 33 33 33 33 33 33 34 34 34 35 34 35 35 36 38 38 37 36 36 38 33 33 33 33 31 32 30 30 29 28 29
36 36 34 34 32 34 35 35 36 37 36 36 36 35 36 35 32 30 31 31 32 32 33 33 34 34 34 35 36 36 36 35 35 33 33 32 32 32 31 31 30 29 28 29
35 35 34 34 33 34 33 33 34 34 36 36 36 35 35 33 32 31 33 31 30 30 31 31 36 35 32 33 35 34 35 34 34 33 32 33 31 29 27 29 30 30 29 29
33 34 34 34 33 32 31 32 32 32 31 32 32 33 33 33 32 30 31 31 31 32 33 32 32 32 33 35 38 33 33 33 33 33 31 31 30 29 27 28 29 30 29 29
32 32 31 32 31 31 31 29 30 30 30 30 30 29 29 31 32 31 30 28 28 32 34 34 31 32 33 33 34 32 32 32 32 31 29 30 29 29 28 27 28 29 29 28
32 31 29 30 30 29 30 29 29 29 29 30 29 29 28 27 27 29 31 30 30 33 33 30 30 34 34 36 32 30 29 31 30 30 29 29 29 29 28 27 26 25 26 26
33 32 32 31 29 29 29 29 28 29 28 29 28 28 27 27 26 28 25 26 31 32 32 31 35 36 37 32 30 30 29 28 29 29 29 29 29 29 28 27 26 26 25 26
32 33 32 31 30 29 28 28 27 27 28 29 28 27 26 25 23 26 24 31 32 32 32 32 34 36 37 29 26 28 29 29 27 27 28 31 28 28 27 27 27 26 26 27
31 31 31 29 28 29 28 28 27 26 27 27 28 28 26 25 24 24 23 25 31 30 29 32 33 33 31 31 30 30 29 28 26 26 26 27 27 27 27 26 25 25 25 23
29 30 31 31 30 28 28 27 26 27 27 27 27 27 26 26 25 24 23 27 27 30 28 29 29 29 30 29 29 29 28 28 27 27 26 26 26 26 26 24 23 24 23 20
27 32 30 29 29 28 28 28 25 25 27 27 25 27 26 25 24 24 27 22 22 28 29 29 28 29 29 29 28 28 27 25 26 23 24 23 23 22 23 22 22 21 20 19

GFSNGP_sfc_temp_057.txt.gz
Temp
33 35 35 34 35 38 36 38 32 38 37 44 47 47 49 49 48 46 46 45 46 45 44 44 42 43 43 44 44 44 43 42 42 42 42 43 43 42 42 42 43 44 43 42
26 34 34 32 33 34 37 39 39 39 38 48 50 47 48 48 47 46 47 47 47 46 44 43 42 42 42 43 44 44 43 43 44 43 43 43 43 42 42 41 42 42 42 42
23 30 31 28 34 34 34 36 38 34 42 47 45 45 47 48 48 47 48 49 47 46 45 44 42 42 41 42 43 43 44 44 43 43 41 41 41 40 39 39 40 39 40 40
20 26 17 34 37 37 36 38 39 40 43 45 45 47 47 48 49 49 50 48 47 46 44 43 42 41 41 41 42 42 42 42 42 41 40 39 38 38 37 38 37 37 36 37
21 20 28 33 35 35 34 36 39 39 43 43 43 41 43 49 48 49 50 51 50 47 45 42 41 41 40 40 40 40 40 41 41 40 38 38 37 36 36 36 35 34 34 34
25 20 20 33 38 41 40 31 42 41 41 40 41 35 44 46 46 47 47 46 44 43 41 41 40 40 39 38 39 39 40 40 40 40 38 36 36 34 36 36 33 33 30 29
27 24 30 37 40 41 28 33 42 42 42 41 38 41 43 43 43 42 42 41 40 40 40 40 39 39 38 38 36 40 41 40 39 39 37 36 35 35 34 33 31 29 30 29
28 25 22 39 38 35 39 41 42 42 43 42 42 42 42 41 40 40 38 38 38 38 38 38 39 39 37 37 39 40 39 38 38 37 37 36 34 33 33 32 31 31 31 32
30 30 39 39 39 40 39 38 40 40 43 45 44 43 43 41 40 39 39 38 39 38 37 37 39 40 37 39 39 39 39 37 36 37 37 36 34 32 30 29 29 30 32 32
34 36 35 37 39 38 38 39 42 42 42 44 43 45 44 43 41 39 38 38 39 38 37 37 38 39 40 38 39 38 37 36 36 35 35 34 33 31 30 29 29 31 32 32
31 34 35 36 40 40 40 41 40 41 42 42 44 45 45 44 43 42 41 40 40 39 39 39 38 39 39 38 38 36 37 36 35 35 35 33 32 31 32 32 33 32 32 33
26 33 32 35 38 40 37 37 38 39 40 42 43 43 45 45 45 44 42 41 40 40 41 40 39 39 38 39 38 37 35 35 34 34 34 33 31 31 36 37 37 38 38 34
32 37 36 36 38 38 36 37 39 38 40 39 41 42 42 42 43 43 41 40 40 40 41 42 41 40 40 39 38 37 36 35 35 34 32 32 31 31 31 34 39 40 39 40
38 36 33 37 36 39 38 38 39 38 39 39 40 39 39 39 39 40 40 40 40 40 40 41 41 41 42 40 38 37 37 38 35 35 34 33 32 32 32 32 31 32 38 39
36 36 35 37 39 39 40 39 37 37 37 38 37 38 38 37 37 37 37 37 37 38 38 38 39 40 41 41 38 38 37 36 36 35 34 34 33 32 32 32 31 32 31 34
35 35 36 36 35 36 35 35 36 38 38 37 36 36 36 35 35 35 36 36 35 36 36 36 36 39 40 40 38 38 39 38 37 34 33 33 33 33 32 32 31 31 31 31
31 31 32 33 32 32 33 36 36 37 37 36 36 36 35 34 34 33 33 33 33 34 34 34 35 36 36 38 37 37 37 37 39 35 34 33 33 32 33 33 32 32 32 33
35 34 34 34 32 32 33 34 34 33 33 33 33 34 35 34 34 34 31 31 32 32 32 32 33 34 35 35 36 36 36 36 37 35 34 33 33 33 32 31 32 31 31 32
36 34 33 34 34 32 32 31 31 32 32 33 33 33 33 33 32 31 31 33 32 31 30 31 35 34 34 34 35 34 35 35 34 35 34 35 33 32 32 31 31 28 28 31
34 35 34 33 33 32 31 32 31 32 32 32 32 32 32 32 32 32 31 29 29 31 34 34 34 34 33 35 38 34 35 34 33 33 32 32 31 31 30 30 29 28 28 28
30 30 31 31 30 31 31 29 29 29 31 30 30 30 29 30 30 30 31 31 30 33 34 33 33 33 33 35 35 33 33 33 32 33 31 32 31 31 30 29 29 28 27 27
28 29 29 30 30 30 31 30 29 29 29 30 30 29 29 28 28 29 30 28 30 33 33 32 32 34 34 37 33 33 32 32 32 31 31 30 30 30 30 29 28 28 27 27
29 28 32 30 30 30 30 30 28 28 28 28 28 28 28 28 27 28 25 28 31 32 32 31 34 37 37 32 28 27 27 31 31 31 30 30 31 30 30 29 29 28 27 27
27 32 32 32 29 29 28 29 28 28 28 28 28 29 28 27 27 27 27 29 32 32 31 32 33 35 34 31 30 29 25 27 30 30 29 31 29 29 29 29 29 28 28 29
25 25 28 29 29 29 29 28 27 26 27 27 28 29 28 28 27 27 26 27 29 30 29 31 33 33 31 31 31 30 30 29 29 27 27 27 27 27 27 27 28 28 27 26
23 25 26 28 30 30 29 28 27 27 26 26 27 28 28 27 26 26 26 28 26 29 28 29 29 29 29 29 30 29 29 28 29 28 27 27 26 26 25 25 26 27 27 26
21 29 25 30 27 28 28 28 26 26 27 27 26 27 27 27 26 26 27 24 24 25 26 28 28 29 28 28 28 28 27 26 26 24 24 25 25 25 24 25 25 25 24 24

GFSNGP_sfc_temp_060.txt.gz
Temp
41 41 41 41 42 44 39 43 37 43 45 52 56 57 58 60 59 59 59 58 58 58 59 58 56 55 55 55 54 53 52 50 49 51 50 49 48 49 49 49 49 48 46 45
33 39 40 37 42 43 44 45 45 46 44 54 57 59 57 58 59 58 59 59 59 59 59 58 57 55 54 53 53 53 52 50 51 49 49 48 47 45 45 45 45 45 44 45
33 37 38 34 40 42 43 45 46 40 48 55 52 53 54 56 57 57 59 61 61 60 59 58 58 56 53 52 53 51 51 51 50 49 46 45 44 42 42 41 42 42 42 43
33 35 28 40 46 45 44 46 48 48 49 52 53 55 55 57 56 57 60 60 61 62 60 60 59 54 52 51 50 50 50 49 48 46 44 42 41 40 39 40 40 39 40 41
33 33 39 41 43 43 42 43 49 48 50 52 54 52 56 57 56 56 59 63 62 63 62 60 55 51 49 48 48 47 47 47 46 45 42 40 38 38 38 37 37 37 38 39
35 29 29 42 47 49 48 39 48 49 49 49 50 45 53 54 54 54 57 59 57 58 59 56 53 52 49 47 46 45 46 46 46 44 41 38 38 36 37 37 34 37 34 34
36 33 39 47 48 49 36 38 47 48 47 48 46 50 54 55 53 52 50 51 51 53 53 53 50 49 47 46 42 46 46 45 44 42 40 38 36 36 36 35 34 34 33 34
36 32 29 47 47 41 42 47 46 47 47 46 48 50 52 52 51 49 48 47 48 49 48 48 48 48 45 44 46 45 45 43 42 40 39 38 36 34 34 35 35 37 38 38
40 40 45 47 46 46 46 44 45 44 47 47 47 49 52 51 51 50 47 46 48 48 46 47 47 48 45 46 45 45 42 41 40 39 38 37 36 35 35 36 37 37 37 38
40 41 41 46 46 48 47 44 45 46 46 46 45 48 49 52 51 49 47 46 46 46 46 45 46 46 47 46 45 43 42 40 39 37 36 37 37 36 36 35 36 38 37 38
39 43 44 45 48 46 44 44 44 45 45 44 45 46 48 50 50 48 47 47 47 46 46 46 46 45 46 45 44 42 42 39 37 37 37 36 36 35 37 39 40 38 39 39
35 41 38 40 43 43 42 42 43 42 41 44 45 45 48 49 51 49 48 45 44 45 45 43 41 42 41 43 41 40 38 38 38 37 38 37 35 35 38 39 39 39 40 39
36 41 38 40 41 43 40 40 41 41 41 40 43 45 47 49 51 50 48 47 47 47 47 48 45 43 41 40 39 38 37 38 38 38 37 36 34 36 36 38 39 39 39 40
40 38 34 37 35 39 39 41 42 41 41 42 43 45 46 47 48 46 44 46 48 48 48 48 47 46 46 41 39 38 38 39 37 37 38 37 36 37 38 38 36 37 39 40
39 39 37 38 38 39 40 39 36 36 39 43 46 43 44 44 45 44 43 44 43 44 46 46 46 47 48 45 40 39 38 36 37 37 39 40 38 36 35 35 35 36 36 37
38 37 37 36 35 36 35 35 34 36 38 40 42 41 39 38 39 40 42 42 41 43 44 43 44 46 46 46 43 41 40 38 38 36 35 34 35 35 36 36 36 36 36 35
32 31 33 32 33 33 33 34 35 34 35 35 35 35 35 35 36 38 40 40 40 40 40 38 39 41 41 43 43 42 42 41 39 37 35 35 34 33 34 33 33 34 35 37
38 37 36 34 32 32 33 35 34 33 32 33 34 34 34 33 32 35 36 37 38 37 37 37 38 39 39 39 41 41 40 39 38 37 36 34 34 34 33 33 33 33 33 33
40 38 37 35 35 34 32 32 32 32 33 32 32 33 33 33 33 33 36 37 36 36 35 37 36 37 38 38 39 39 37 36 36 36 35 36 34 33 33 33 32 32 32 31
37 38 37 37 36 35 33 34 34 34 36 34 33 33 31 32 33 34 34 33 32 33 35 36 35 35 36 37 38 38 37 36 35 35 34 34 34 33 32 32 32 32 30 30
32 32 32 33 34 35 35 34 32 32 34 34 32 32 32 32 32 33 33 32 31 33 35 34 35 35 35 36 37 37 38 37 35 35 35 35 34 33 34 34 33 32 32 32
32 31 30 31 33 34 35 33 32 32 32 32 32 32 31 32 31 31 31 30 33 33 34 33 33 35 37 37 37 38 37 36 35 34 34 33 33 34 34 34 33 33 32 32
32 31 31 32 33 33 34 33 32 31 31 30 30 30 30 30 30 30 29 32 33 33 33 32 34 36 36 35 34 36 36 36 36 36 34 34 33 34 34 33 33 33 32 32
31 30 30 32 33 32 31 33 31 30 29 29 30 29 29 29 30 32 32 31 31 32 32 32 34 34 34 33 32 32 32 34 34 34 33 33 33 33 32 32 32 33 32 32
28 27 28 28 29 31 32 33 31 29 28 29 30 30 30 30 28 30 30 30 30 31 31 32 32 32 32 32 32 32 31 31 32 31 32 32 32 32 32 32 31 32 32 31
28 30 31 30 31 31 32 33 30 30 29 28 30 31 31 31 30 31 29 29 30 30 31 31 31 31 30 30 31 31 31 31 31 31 31 31 31 31 31 31 31 31 31 31
28 32 31 32 34 33 33 32 30 29 30 28 29 30 30 29 29 30 30 29 28 29 30 30 31 30 30 30 30 30 30 30 29 29 30 30 30 30 30 30 30 30 30 30

GFSNGP_sfc_temp_063.txt.gz
Temp
44 45 45 44 46 48 41 44 39 46 47 54 58 59 60 62 62 62 62 63 63 62 63 63 61 61 60 59 58 58 55 54 53 54 53 53 52 52 52 52 52 50 48 47
35 43 43 40 45 47 47 48 47 48 47 59 61 61 59 59 60 60 61 63 64 63 63 63 62 60 59 59 58 57 56 54 54 53 52 50 50 49 47 47 47 46 46 46
35 41 40 36 43 45 46 49 48 42 51 56 53 54 56 57 58 58 60 62 63 65 64 64 64 62 58 57 58 56 55 55 54 52 50 49 48 47 44 43 43 43 43 44
34 38 29 42 50 48 46 48 50 50 51 53 54 56 57 60 58 57 58 59 62 65 66 66 65 63 60 57 56 54 53 53 52 50 48 47 45 42 41 41 40 40 40 42
34 36 43 42 45 46 45 41 50 48 51 52 54 55 56 60 59 57 57 59 61 66 65 66 64 62 57 53 53 52 51 51 50 49 46 44 42 40 39 38 38 37 39 40
38 31 31 43 49 52 51 39 48 49 48 48 50 46 52 56 57 58 57 57 59 61 62 64 64 60 54 51 50 49 50 50 50 48 45 42 39 36 38 37 35 36 34 35
36 34 41 47 49 52 36 37 47 48 48 47 45 49 52 57 57 58 56 55 53 56 58 59 60 56 52 51 47 49 50 49 48 46 44 41 37 37 36 35 34 34 34 34
37 32 31 48 49 41 44 48 48 48 48 46 49 50 52 53 55 56 54 53 52 53 53 54 53 52 50 49 50 49 49 47 45 44 42 39 37 35 35 34 34 35 37 38
42 41 47 50 49 49 49 47 47 46 47 47 47 48 50 51 53 56 54 53 52 51 50 50 51 51 50 50 49 48 46 45 44 43 41 39 37 35 34 35 36 38 37 37
42 45 46 49 51 50 50 46 46 47 47 47 45 47 47 50 52 54 55 52 52 50 49 49 50 51 52 51 49 47 45 44 42 39 38 37 37 36 35 35 36 37 36 36
41 47 48 50 51 50 46 46 46 47 46 44 45 45 46 48 50 53 54 51 49 50 50 50 50 49 50 49 47 45 43 41 39 39 38 36 36 36 36 39 40 37 38 38
39 44 42 43 47 45 42 42 45 42 41 43 43 42 45 46 49 52 53 49 47 45 46 47 48 46 44 45 43 41 40 40 38 36 37 35 35 35 40 41 42 42 42 40
40 43 41 42 43 44 41 40 41 41 42 40 42 43 43 45 48 51 53 51 45 44 44 48 47 44 44 44 42 39 38 36 36 36 36 35 35 34 34 38 40 40 40 40
45 42 38 40 38 41 40 40 42 42 43 42 42 45 46 46 47 49 50 51 51 50 49 51 50 49 49 44 41 39 38 39 37 36 37 36 36 35 37 37 34 35 39 40
44 44 41 41 40 40 40 39 37 37 38 38 41 42 44 43 44 45 47 47 46 46 46 49 49 49 51 47 42 40 38 37 37 37 36 37 35 35 37 37 36 36 35 37
42 41 40 37 37 37 37 36 34 35 36 36 36 38 38 38 40 39 40 42 41 43 47 46 46 48 49 48 43 41 40 39 38 36 35 35 35 34 35 35 35 35 35 35
33 33 35 33 35 35 34 36 35 35 35 34 34 34 34 35 35 36 36 37 38 40 42 40 40 41 42 43 44 42 40 39 39 36 35 35 35 34 35 34 34 34 35 35
43 42 40 39 35 35 34 35 35 35 33 33 33 33 33 33 33 33 33 34 33 35 36 37 38 38 39 40 41 41 40 39 38 36 35 34 34 34 34 33 33 32 32 34
42 40 40 40 39 38 35 34 34 34 33 33 33 32 33 33 33 33 33 33 33 33 34 37 35 36 37 38 38 39 37 36 36 36 35 36 35 34 33 33 33 33 32 31
38 38 38 37 38 38 37 38 37 37 37 37 36 35 35 35 33 32 35 32 32 33 35 36 35 34 34 36 38 39 36 35 34 34 33 33 33 33 32 33 32 31 32 32
34 33 32 33 33 36 38 38 37 35 36 35 33 33 33 35 36 33 31 32 32 33 34 35 33 34 35 36 37 36 36 35 34 33 33 34 33 33 33 33 33 33 33 32
34 32 31 31 33 34 37 37 36 34 34 34 33 33 32 32 34 33 33 31 34 34 34 33 33 34 36 37 37 37 36 36 36 34 34 34 33 33 33 33 32 33 32 32
35 34 33 31 31 33 35 35 35 33 32 32 31 31 30 31 31 29 31 32 33 33 33 33 34 35 36 34 33 34 35 35 36 36 35 35 34 34 33 33 33 32 32 32
34 33 31 32 31 30 30 33 34 34 32 32 31 30 30 29 30 31 32 32 32 32 32 32 33 34 34 33 32 32 32 32 34 34 34 33 33 32 32 32 31 31 31 31
31 30 29 29 30 33 33 33 33 32 32 31 30 31 30 30 29 30 29 30 31 31 31 32 33 32 32 31 32 32 31 31 31 31 31 32 31 31 31 31 31 31 31 31
32 33 34 33 33 33 33 33 32 33 32 30 30 30 30 30 30 30 30 30 30 31 31 31 31 31 31 31 31 30 31 31 31 31 31 31 31 30 30 31 31 30 31 31
32 34 34 35 36 35 34 33 32 32 33 31 29 30 29 29 28 30 31 30 28 29 30 31 31 31 31 30 30 30 30 30 30 29 29 29 29 30 29 30 30 30 30 28

GFSNGP_sfc_temp_066.txt.gz
Temp
40 42 41 40 41 44 37 40 32 38 40 46 49 49 50 52 53 54 54 55 55 54 52 52 51 51 52 51 50 50 48 47 47 47 47 48 47 47 48 47 46 46 44 45
28 40 39 33 41 42 43 44 44 45 42 50 52 50 50 50 52 52 53 54 55 56 55 54 52 51 52 50 50 50 48 47 48 47 46 44 44 44 43 43 43 43 44 45
29 36 35 28 37 40 41 43 42 37 43 47 47 49 49 49 50 49 51 52 53 53 54 54 53 53 50 50 50 49 48 48 48 47 45 44 46 46 40 39 42 42 42 43
25 28 18 36 44 45 43 45 45 45 47 47 48 49 49 49 48 48 50 51 51 52 54 54 55 52 50 50 48 47 47 47 47 45 43 43 44 42 39 40 40 39 40 41
25 25 35 38 41 41 39 39 44 43 45 46 47 45 46 51 50 49 49 50 49 50 51 52 53 51 50 47 47 46 45 45 45 44 42 41 41 38 38 38 38 37 38 38
30 24 23 37 44 47 45 32 43 44 42 42 43 35 40 47 50 51 50 49 48 47 49 50 51 50 48 45 45 44 45 45 44 43 41 41 41 36 38 37 35 36 34 34
29 26 33 42 45 47 29 30 43 44 43 41 37 39 44 48 48 49 50 48 48 46 46 47 48 47 45 43 42 44 45 44 43 42 42 40 36 36 36 35 34 33 33 33
31 26 22 43 42 35 37 42 42 41 41 40 41 43 45 46 46 47 48 49 47 44 45 45 46 45 44 42 44 45 44 42 41 40 42 39 36 35 35 34 33 33 34 32
36 33 41 42 42 44 43 40 39 39 40 41 41 41 43 43 44 46 47 48 47 44 44 44 44 44 43 43 43 43 41 39 40 41 40 38 36 35 34 34 34 34 34 32
36 37 40 42 44 45 42 39 41 42 42 41 39 40 40 42 43 44 46 48 46 44 43 42 43 44 44 44 44 42 39 38 40 39 38 37 36 35 34 33 33 34 33 31
35 39 40 43 41 40 40 41 40 41 40 40 40 40 41 40 41 42 44 46 46 44 46 44 43 43 44 43 42 40 39 37 38 38 38 35 35 35 35 37 38 35 34 33
30 36 35 37 40 41 38 39 40 39 39 41 41 40 41 41 42 42 43 45 46 44 44 45 46 44 42 43 42 41 39 37 37 36 36 35 34 34 40 40 41 42 42 37
34 37 38 39 40 40 38 39 40 39 39 38 40 40 40 41 44 46 44 45 48 44 45 45 44 43 43 43 42 40 38 37 37 35 35 33 32 32 32 36 41 42 41 41
39 37 34 37 34 37 38 39 40 39 39 39 39 40 40 40 41 43 43 44 45 44 44 46 46 45 45 41 40 40 39 39 36 36 36 35 34 33 33 33 32 32 39 39
38 38 36 36 36 36 36 36 36 35 36 36 38 37 38 35 35 37 40 42 42 42 43 44 45 46 47 43 39 37 38 37 37 37 36 36 35 34 33 33 32 32 31 36
37 36 35 34 34 34 33 33 34 35 35 36 35 35 35 35 35 35 37 39 37 38 40 40 41 42 42 44 41 40 39 39 39 36 35 35 34 33 33 33 32 33 33 33
26 27 30 28 31 32 32 33 34 36 35 35 35 33 34 33 34 34 35 36 36 35 37 36 36 37 39 39 41 40 40 39 40 36 35 35 35 34 34 33 33 33 34 35
37 36 35 34 31 32 33 34 34 35 34 34 32 31 32 32 31 32 32 33 33 34 33 33 33 33 34 36 36 39 39 38 38 36 35 35 35 35 34 33 33 32 33 34
37 36 34 35 34 33 33 32 32 35 36 35 31 28 29 29 31 33 31 32 32 32 34 34 34 33 32 34 37 37 37 36 36 36 35 36 35 33 33 32 32 32 32 32
34 34 34 33 34 32 31 33 35 37 38 37 35 31 30 30 30 30 29 29 31 32 33 33 32 32 32 33 37 36 36 35 34 34 34 34 34 33 32 33 32 32 31 31
27 27 28 28 29 31 32 32 33 34 35 36 32 29 29 30 30 30 28 29 31 31 32 33 32 32 32 34 36 34 34 33 33 33 33 34 33 32 32 32 32 32 32 32
26 26 26 26 27 29 30 30 31 32 33 34 32 29 29 28 29 29 30 30 31 34 32 31 31 32 34 36 33 33 32 32 32 32 31 32 32 32 32 32 31 32 31 31
27 27 25 25 25 27 28 28 29 30 32 32 31 30 29 29 29 28 27 29 29 31 31 31 33 34 35 32 31 31 31 31 31 31 31 31 31 31 31 30 28 26 26 30
27 28 26 25 23 22 23 28 27 30 31 32 32 31 30 28 28 31 30 31 31 31 31 30 32 34 34 30 31 30 30 30 30 30 31 33 30 29 25 27 29 29 29 30
25 24 20 21 22 25 26 28 27 27 30 32 31 30 30 30 28 28 29 29 30 30 28 31 33 32 30 29 30 29 29 29 29 29 29 29 29 29 28 28 28 28 28 28
25 27 27 27 26 27 28 28 28 28 29 31 31 30 29 29 29 29 27 29 28 29 27 27 28 28 28 29 29 28 28 28 28 28 28 28 28 27 28 28 27 28 28 28
24 32 26 25 28 28 29 29 25 27 29 30 30 29 29 28 28 28 28 27 26 27 27 28 27 28 27 26 27 27 27 27 28 27 27 27 27 27 27 27 27 27 27 27

GFSNGP_sfc_temp_069.txt.gz
Temp
37 40 38 38 39 40 35 37 30 37 37 42 43 44 45 46 48 50 49 50 50 49 48 47 47 49 49 48 48 48 47 46 46 46 45 45 45 45 45 45 44 43 42 43
28 39 38 33 38 39 40 41 40 40 39 45 45 45 46 46 48 47 48 49 50 50 49 49 47 48 49 48 47 47 46 46 46 45 44 43 42 42 41 41 41 41 41 44
24 34 32 27 35 37 38 40 41 36 40 43 43 46 45 44 45 45 47 48 48 48 47 48 49 50 49 49 48 47 46 46 45 44 43 42 42 40 39 38 38 38 40 43
21 27 17 34 40 41 40 40 41 41 41 42 42 43 44 45 43 44 46 47 47 46 47 47 47 48 50 49 48 47 45 45 45 44 42 41 40 40 41 37 37 36 38 41
23 22 31 34 38 38 37 34 40 39 40 42 43 41 40 45 48 45 45 47 47 46 45 45 46 47 47 47 46 46 45 45 44 43 41 40 39 38 39 36 36 38 39 39
27 21 22 34 41 45 44 30 40 41 39 39 40 33 38 43 46 46 46 48 48 46 45 44 45 46 45 46 45 45 45 44 43 42 41 38 38 38 37 37 36 36 34 35
27 22 29 38 42 44 28 28 40 40 39 37 34 36 40 43 44 44 44 45 47 45 43 43 43 44 43 42 42 43 44 43 42 41 39 38 38 37 35 35 35 34 34 34
27 24 21 40 40 33 35 38 39 39 38 37 38 39 40 41 41 42 42 44 46 45 43 43 43 43 42 42 43 43 43 41 40 39 40 38 37 36 35 35 34 34 34 33
31 30 39 40 38 38 38 36 35 35 37 38 37 37 39 39 40 41 41 42 44 44 43 42 42 42 41 42 41 41 40 39 39 38 38 39 37 35 34 35 34 33 33 33
35 35 37 36 37 38 37 36 36 37 36 37 37 40 40 41 41 41 42 41 42 43 42 41 41 41 41 41 41 40 38 37 37 37 38 37 36 36 35 34 33 33 33 33
32 33 34 34 35 36 37 38 38 39 39 39 39 39 40 40 41 42 43 42 42 42 43 46 45 44 42 41 40 38 37 36 36 37 39 36 36 35 35 37 37 35 35 35
29 33 32 33 35 37 34 35 37 37 37 39 39 38 39 39 41 42 42 45 44 41 43 45 45 45 44 43 42 41 39 38 38 37 38 36 34 34 40 40 41 41 41 37
32 34 35 35 36 35 34 35 36 36 35 35 38 38 38 38 40 41 39 42 41 42 43 45 45 44 44 43 42 41 40 38 38 36 35 34 33 33 32 36 41 41 41 41
36 34 32 33 31 34 34 35 36 35 35 37 38 38 37 36 38 36 36 37 38 40 41 43 44 45 46 43 42 41 40 40 37 36 36 35 34 33 33 32 33 34 40 40
34 34 33 33 33 33 34 33 31 31 32 34 37 37 36 35 34 34 37 38 38 39 39 40 42 43 43 44 41 40 39 37 38 37 36 36 34 34 33 33 32 31 31 36
34 33 32 31 31 31 31 30 29 31 31 32 35 36 36 33 33 34 35 37 34 34 36 37 37 40 39 40 40 40 39 39 39 36 35 35 34 33 33 33 32 32 32 33
23 27 29 27 29 30 30 31 30 31 32 32 34 36 34 32 33 33 34 36 35 33 34 34 35 35 36 36 36 38 39 39 40 37 35 35 35 34 34 33 33 33 33 34
33 33 31 31 27 28 30 31 31 31 30 32 35 35 33 30 28 29 31 35 33 33 34 33 33 34 34 34 35 35 36 38 38 37 35 35 35 35 34 34 34 33 34 34
34 33 32 31 31 29 28 27 28 29 30 32 32 33 34 31 29 29 28 28 29 29 34 33 33 33 32 33 34 34 34 35 36 36 36 36 35 35 34 34 34 33 33 32
32 32 31 30 30 29 28 30 30 30 31 32 33 34 33 30 30 29 29 27 28 29 33 32 32 31 31 32 35 34 33 33 34 35 34 34 34 34 33 34 33 32 32 32
27 25 26 27 28 29 29 28 28 28 29 30 30 32 32 32 30 29 27 27 30 30 31 33 30 30 30 33 34 33 32 32 32 32 33 34 33 33 32 32 32 32 32 31
24 23 24 24 25 27 28 27 26 27 27 28 28 31 31 30 29 28 30 29 30 32 30 29 28 31 33 35 32 31 31 32 32 32 32 32 32 32 32 32 31 31 31 31
26 25 26 23 25 26 25 25 26 26 26 27 27 30 31 31 30 28 27 29 29 30 29 28 32 34 35 29 29 30 30 31 31 31 31 31 31 31 31 30 30 30 30 30
24 25 24 25 20 18 20 26 24 27 26 28 29 31 31 30 28 29 30 32 31 31 29 30 31 33 33 29 30 29 29 29 30 30 30 32 30 29 29 29 29 29 29 30
23 21 19 20 22 24 24 25 24 26 25 27 30 31 30 31 28 27 27 29 30 30 28 30 32 32 28 28 29 29 28 28 29 29 29 29 29 28 28 28 28 28 28 28
24 26 27 27 26 27 27 25 24 26 25 25 29 29 32 29 28 28 27 29 28 29 27 27 28 27 27 27 28 28 28 28 27 27 28 27 27 27 27 27 27 27 27 27
21 30 26 26 28 26 26 27 23 25 27 25 26 29 28 28 27 29 29 26 26 26 26 27 27 28 27 24 26 26 25 25 28 26 26 25 25 26 26 26 26 26 27 26

GFSNGP_sfc_temp_072.txt.gz
Temp
34 37 36 35 37 38 32 34 29 36 37 38 41 43 43 44 46 47 46 47 47 46 44 45 46 46 47 47 47 47 46 45 45 45 45 44 44 44 44 44 43 43 41 41
27 36 36 32 35 37 38 38 37 38 38 41 41 43 43 43 44 44 44 46 47 47 46 46 45 45 46 47 46 46 45 45 45 44 43 43 42 41 41 40 40 40 40 40
23 31 33 28 33 35 36 38 39 35 40 42 41 43 42 41 42 42 44 46 46 46 45 44 45 46 45 47 46 45 45 45 44 43 42 41 41 40 39 38 38 38 38 39
20 26 17 33 39 39 37 37 38 38 39 40 40 41 41 42 40 41 43 44 45 45 46 46 44 44 45 46 45 45 44 44 44 43 41 40 39 38 37 36 36 36 36 37
23 20 29 33 36 36 34 32 37 36 37 39 40 40 38 41 42 41 41 42 43 43 45 44 44 44 43 44 44 44 44 44 44 42 40 39 38 37 37 36 35 35 36 37
26 21 22 33 38 42 41 28 36 38 35 35 37 31 35 40 41 41 41 43 43 43 44 43 44 42 42 42 42 43 45 44 43 42 41 39 38 36 36 38 35 36 34 35
26 21 28 36 39 41 27 29 36 36 36 35 33 35 38 39 39 40 40 41 42 42 41 43 43 41 41 41 41 44 43 42 41 41 40 39 37 35 35 37 36 35 34 34
26 25 22 38 37 33 34 35 36 35 35 35 36 37 38 38 38 39 39 40 41 40 40 42 42 40 40 40 42 42 42 42 40 39 40 39 36 34 36 36 35 35 34 34
30 30 35 34 35 35 37 35 33 33 35 35 35 35 37 38 39 39 41 41 40 39 39 41 41 40 39 40 41 41 40 39 38 37 38 37 36 35 35 35 35 34 33 33
33 33 31 33 34 35 35 34 35 35 35 35 34 37 39 40 38 40 41 42 44 39 38 38 42 41 40 41 40 39 38 37 36 36 36 35 36 36 35 35 34 34 33 33
29 29 31 32 33 33 34 35 35 36 36 36 36 37 38 39 40 40 40 42 43 43 38 39 42 46 44 43 41 38 37 36 35 36 38 35 37 36 35 37 38 35 35 35
29 32 31 31 34 35 32 33 34 34 33 35 35 37 38 37 39 39 40 40 37 41 41 39 41 44 45 44 42 41 39 38 38 38 39 37 35 35 40 40 41 41 41 38
31 32 33 33 35 33 32 33 34 33 33 31 34 38 38 37 37 39 37 37 37 37 37 38 39 42 45 44 42 41 40 39 38 38 37 35 34 34 33 36 41 40 40 41
33 33 31 32 30 32 32 33 34 33 32 32 33 35 36 37 37 36 34 36 37 38 38 38 38 39 44 43 42 41 41 41 38 38 37 36 34 34 34 33 33 33 38 40
32 32 32 31 30 31 32 31 30 29 29 31 32 32 33 36 35 35 35 36 36 37 37 37 37 37 41 41 40 40 40 39 39 38 37 37 35 34 34 33 33 33 33 37
31 30 30 29 30 29 28 29 27 28 29 30 30 31 33 34 35 34 35 35 33 32 35 35 34 36 38 37 37 38 39 40 39 37 35 35 34 34 33 33 33 33 32 33
23 26 27 24 28 27 28 28 28 28 29 28 29 31 31 32 32 32 32 33 32 35 35 34 33 36 35 35 35 35 37 39 40 37 35 35 35 34 34 34 33 33 33 34
31 31 30 28 25 26 28 29 29 28 27 28 29 29 29 29 29 31 30 31 30 31 31 31 34 34 34 34 34 34 34 35 37 37 36 35 35 35 34 34 34 34 34 34
31 31 30 31 29 27 26 25 25 25 26 26 26 27 29 30 31 33 32 29 27 27 30 31 34 33 31 32 34 34 32 32 33 35 36 37 36 35 34 34 34 34 34 33
31 30 30 29 29 28 27 27 27 26 28 27 27 27 28 29 31 31 30 28 28 30 30 33 32 31 31 30 33 33 33 31 32 33 34 35 35 35 34 35 34 33 33 33
24 24 25 26 27 29 28 27 26 25 28 27 26 26 27 29 33 32 30 28 31 31 30 32 29 28 28 32 33 33 32 31 31 32 32 33 34 34 34 33 33 32 32 32
20 19 20 22 24 25 28 26 25 25 25 26 26 26 26 30 31 31 31 29 31 34 31 29 28 30 31 35 32 30 30 31 31 32 32 32 32 32 32 32 32 32 31 31
23 22 23 21 23 24 25 24 25 25 25 25 25 26 25 29 31 29 28 30 31 31 31 29 30 33 34 30 28 28 30 30 31 31 31 31 31 31 31 31 31 31 30 29
23 24 22 23 18 17 19 25 23 26 25 26 26 27 25 28 30 30 30 32 32 31 30 29 31 32 31 25 26 28 29 29 29 30 29 32 30 29 29 29 29 29 29 30
22 19 16 19 20 23 23 25 23 23 24 25 26 26 25 26 28 30 28 29 30 30 28 29 31 30 26 27 27 28 27 28 28 27 28 29 28 28 28 28 28 28 28 28
24 26 26 25 25 25 25 24 23 25 25 25 26 27 26 27 28 29 26 29 28 29 26 27 27 27 27 26 27 27 26 26 27 27 27 27 27 26 27 27 27 27 27 27
21 28 24 23 24 24 24 24 26 25 27 26 25 26 25 27 26 30 30 26 26 26 26 26 27 27 26 26 26 26 26 25 27 26 25 25 25 25 26 26 26 26 26 26

GFSNGP_sfc_temp_075.txt.gz
Temp
33 35 34 34 34 36 30 33 29 33 35 36 39 40 40 41 44 44 44 44 44 43 42 42 43 44 45 45 46 46 45 45 45 45 44 44 44 43 43 43 43 42 41 40
26 34 34 32 33 36 36 35 35 36 34 40 39 41 40 41 42 42 42 43 43 43 43 43 42 43 44 44 45 45 44 45 45 44 43 43 42 41 41 41 40 40 39 39
23 30 32 26 31 33 35 37 38 32 38 39 39 41 39 38 39 39 40 41 41 41 42 42 43 44 42 44 44 44 44 44 44 43 42 41 41 40 39 38 38 37 37 38
19 26 18 31 35 38 35 35 35 36 37 39 39 39 38 38 36 38 40 40 40 40 42 43 43 43 44 43 43 43 43 43 43 42 41 40 39 38 37 36 36 36 36 37
21 19 28 31 35 34 33 31 35 34 35 36 38 36 35 39 40 38 40 40 41 41 41 42 42 43 42 42 42 42 42 43 43 42 40 39 38 37 36 35 34 34 35 35
26 21 21 31 36 40 38 28 35 36 35 34 36 30 34 37 38 38 39 39 40 40 40 39 41 40 39 41 40 40 42 43 42 42 41 39 38 36 35 35 35 33 34 34
26 21 28 34 37 39 26 29 35 35 34 33 32 34 36 38 38 39 39 39 39 39 38 39 40 39 39 39 39 41 42 42 41 41 40 39 37 35 35 35 34 35 35 35
27 27 21 35 36 32 33 33 35 34 33 33 34 35 36 36 36 37 37 38 39 37 39 40 40 38 38 38 41 40 40 40 40 39 39 38 36 35 33 34 35 36 35 35
30 29 33 32 32 33 35 34 32 32 33 33 33 33 35 36 36 36 37 39 40 41 39 39 38 37 37 40 39 39 39 38 38 37 37 36 35 34 33 34 36 35 34 34
31 30 29 31 32 33 34 33 33 33 33 34 32 33 34 35 36 38 39 40 42 41 39 41 39 39 43 44 40 38 37 37 36 35 35 34 34 35 35 35 35 34 33 33
29 28 28 31 31 32 33 34 33 34 33 33 33 32 33 35 36 37 37 38 40 37 36 39 39 38 41 45 44 40 37 36 35 35 36 34 35 36 36 38 38 35 35 35
28 31 31 30 33 34 31 31 32 31 31 32 32 32 34 34 36 38 37 39 35 36 36 38 38 38 39 42 44 41 39 38 38 37 38 37 36 36 41 41 41 42 41 38
31 31 32 32 33 32 30 31 32 32 31 30 31 32 32 33 34 38 38 37 35 33 34 37 38 39 41 41 42 41 40 40 38 37 37 36 35 35 34 36 41 41 41 41
30 32 29 31 29 31 29 32 32 31 31 31 31 32 32 32 33 34 35 37 37 36 34 34 36 38 40 39 39 38 40 41 39 38 38 37 35 35 35 34 33 35 40 40
30 30 31 29 29 29 29 30 28 28 28 28 30 29 30 30 31 33 35 36 36 35 34 34 35 35 38 38 37 36 37 38 39 39 38 38 36 35 35 34 34 34 33 37
31 29 28 27 28 28 27 27 26 27 27 27 27 28 29 30 31 32 33 34 31 32 34 34 34 34 35 36 36 35 36 38 40 38 36 36 35 34 34 33 33 33 33 34
23 25 26 23 27 26 27 27 26 27 27 27 27 28 27 27 28 28 29 31 31 33 32 32 33 34 34 36 35 34 34 35 37 38 36 35 35 34 34 34 33 33 34 35
30 30 28 27 24 25 27 28 28 27 25 26 26 26 24 24 25 27 29 31 32 31 30 30 32 32 33 34 34 33 33 33 34 34 36 35 35 35 34 34 34 34 34 34
29 29 28 30 27 26 25 24 24 25 25 24 23 23 24 25 26 27 29 29 31 30 31 30 32 33 33 33 33 32 32 31 32 32 33 35 36 35 34 34 34 34 34 33
30 29 29 27 28 27 25 26 25 25 26 25 24 24 24 25 26 27 28 31 32 32 32 31 29 31 31 31 33 32 32 31 32 32 32 33 34 35 35 35 34 34 34 34
24 23 24 26 26 27 27 25 24 24 27 26 25 25 26 27 26 26 28 29 32 32 31 32 31 30 29 31 32 31 31 31 30 30 31 31 33 34 34 34 34 33 33 33
19 18 18 19 22 24 26 25 24 24 24 25 26 25 25 25 26 26 30 30 32 34 32 31 29 30 30 33 32 31 29 28 29 30 31 31 31 32 33 33 32 32 32 32
22 21 22 21 22 22 21 22 23 24 24 24 24 26 25 26 25 24 26 30 32 32 31 30 31 32 33 32 29 27 26 28 29 30 30 30 29 32 32 32 32 32 31 30
22 24 22 21 15 16 18 23 21 24 23 24 24 25 26 23 23 26 27 32 33 32 31 30 30 32 32 27 26 26 26 27 28 28 28 31 28 29 29 29 29 30 29 30
21 19 15 18 20 23 22 23 21 22 22 24 25 25 24 24 23 26 25 30 32 31 28 30 31 31 27 26 27 27 26 27 27 26 26 26 27 28 28 28 28 28 28 28
21 23 24 23 23 23 23 22 21 23 23 24 26 27 26 25 24 27 25 28 28 29 27 27 26 27 26 26 27 26 26 26 25 26 26 26 26 26 26 26 26 27 27 27
18 27 22 21 23 22 23 25 26 24 25 24 24 26 26 25 24 27 28 26 26 27 26 27 26 26 27 26 25 25 26 24 27 25 25 25 25 25 24 25 24 25 25 25

GFSNGP_sfc_temp_078.txt.gz
Temp
31 33 34 33 34 34 30 31 28 32 33 36 38 38 38 39 40 41 41 41 41 40 39 39 40 42 43 43 43 44 44 44 44 44 44 44 44 43 43 43 42 42 41 40
26 33 34 32 34 33 34 33 33 34 31 37 36 38 38 37 39 39 40 41 41 40 40 40 39 40 42 42 42 43 43 43 44 44 43 43 42 41 41 40 40 39 39 39
22 29 31 26 29 32 33 33 34 31 37 38 37 39 37 36 38 38 38 39 39 39 39 40 40 41 40 42 42 41 42 43 43 43 42 41 41 40 39 38 38 38 37 38
19 26 17 31 34 35 34 34 34 34 35 36 37 36 37 37 35 36 37 38 38 38 40 40 41 41 42 41 41 41 42 42 43 42 41 40 39 38 37 36 36 36 36 36
21 18 27 29 32 32 31 31 34 33 34 35 36 35 33 37 37 35 36 37 38 38 39 39 38 40 40 40 40 41 41 41 42 42 40 39 38 37 36 35 34 35 35 35
26 20 19 28 34 37 36 28 33 35 34 33 34 30 32 35 37 37 37 37 37 38 39 38 40 40 38 39 40 40 42 42 41 41 41 40 39 36 35 35 35 33 34 34
30 20 27 32 36 38 25 28 33 34 33 32 32 33 34 36 36 37 37 37 38 37 36 38 39 38 36 38 38 41 41 41 40 40 40 41 37 35 34 34 33 33 34 35
29 27 20 32 35 29 33 31 33 33 32 32 32 34 34 35 34 35 35 36 37 35 36 38 39 36 37 36 40 40 40 39 39 39 39 38 36 34 34 34 35 35 36 36
29 29 32 30 31 32 34 33 31 31 32 32 31 31 33 33 33 34 35 35 37 35 36 37 38 36 35 38 42 43 38 37 37 37 36 36 35 36 34 35 36 36 35 35
31 29 29 30 31 32 32 31 32 32 32 32 30 31 31 32 33 33 34 37 35 36 34 34 36 37 36 38 40 42 41 40 36 35 35 34 36 36 36 36 36 35 34 34
29 29 28 31 32 32 32 32 32 32 32 31 31 30 31 31 32 33 34 35 35 33 33 33 35 37 40 41 39 38 40 40 38 37 36 34 33 36 36 38 39 36 35 35
29 32 31 31 32 34 31 30 31 30 30 31 30 30 31 30 32 32 33 34 33 33 34 33 33 34 37 40 41 38 37 39 40 38 38 36 36 36 41 41 42 42 41 39
31 30 31 31 32 31 29 30 29 30 30 28 30 30 30 30 31 35 33 33 32 33 34 34 33 33 35 38 38 37 35 36 39 39 38 36 35 35 35 37 42 41 41 41
30 30 28 30 28 29 29 30 31 29 29 29 29 29 29 29 30 30 31 33 33 34 33 34 34 34 36 37 36 36 36 37 36 39 38 38 36 36 36 35 34 35 41 41
29 29 29 29 28 27 28 28 27 27 27 27 28 28 27 27 27 28 31 32 32 32 32 32 33 33 36 34 33 33 35 35 35 37 38 39 36 35 35 35 35 35 33 38
31 28 27 26 26 27 25 25 24 26 26 26 26 27 27 26 26 27 28 29 28 29 31 32 32 34 34 34 33 32 35 36 36 35 36 36 36 35 34 34 34 34 33 34
23 25 25 23 27 25 26 26 25 25 26 26 27 27 26 26 26 25 26 27 28 29 30 32 33 34 32 32 31 33 33 34 35 34 34 35 35 35 34 34 34 34 34 35
29 29 28 27 23 25 26 27 27 26 25 26 26 25 22 21 21 24 25 26 26 28 32 34 35 32 31 31 32 33 32 32 33 32 33 33 34 35 34 34 33 33 34 34
28 29 29 29 26 26 24 22 23 24 24 24 23 23 23 22 23 23 25 24 24 26 30 35 34 33 30 30 33 32 31 31 31 31 32 33 33 33 34 34 34 34 34 34
30 29 29 27 28 26 25 25 24 23 24 24 24 23 23 24 25 25 25 24 26 28 34 31 30 30 30 31 34 31 29 30 30 31 32 32 32 32 33 35 34 34 34 34
24 23 24 27 26 27 27 25 23 22 25 25 24 24 25 27 26 25 22 24 28 29 32 33 31 31 31 32 31 30 29 29 30 30 30 29 30 31 32 34 34 34 34 33
19 18 18 19 20 23 25 25 23 23 23 23 24 24 24 24 26 26 27 25 29 34 34 32 30 31 32 34 31 30 30 29 28 29 29 29 30 31 31 32 33 33 33 33
21 20 21 19 21 21 20 21 23 23 22 22 22 23 23 24 25 24 24 27 26 30 32 30 31 33 34 32 28 28 27 26 27 28 29 29 30 30 31 32 33 33 33 32
19 20 18 20 13 14 17 21 20 23 22 23 23 24 22 22 24 24 26 30 32 32 32 32 31 32 33 28 26 26 26 26 26 27 28 31 29 28 25 24 26 27 28 31
17 15 12 15 17 21 20 21 20 20 21 22 23 25 25 25 24 26 25 25 29 30 29 30 32 31 26 25 26 26 26 26 26 25 26 26 26 24 23 23 25 26 27 28
19 20 21 20 20 21 22 23 22 23 23 23 24 26 27 27 25 26 24 26 25 27 29 26 26 26 25 25 25 25 26 26 25 24 25 25 24 24 23 24 26 26 26 27
15 24 19 19 21 21 22 24 22 21 24 23 22 25 26 26 24 25 26 23 22 25 26 27 26 26 26 26 26 25 25 24 25 24 24 24 23 22 23 25 25 25 26 26

GFSNGP_sfc_temp_081.txt.gz
Temp
31 33 35 35 35 36 32 33 31 34 34 37 40 40 40 41 42 42 42 42 42 42 42 43 43 44 45 46 46 46 46 47 48 49 49 49 49 49 48 48 48 48 47 46
27 33 34 34 35 35 37 36 36 34 36 41 39 40 40 39 41 39 40 40 41 41 41 41 41 42 43 44 45 45 45 46 47 48 48 47 47 46 46 46 46 46 46 46
23 29 32 28 30 34 35 36 36 34 37 39 39 39 38 38 38 38 39 39 39 40 40 41 42 42 42 43 44 44 44 45 46 46 46 46 46 45 45 44 44 44 44 44
21 27 19 32 35 36 36 35 36 36 35 37 38 37 37 38 38 37 38 38 39 40 40 41 42 42 42 42 43 43 44 44 45 45 45 45 44 44 43 43 43 42 42 42
22 20 28 31 34 34 33 33 36 34 36 36 37 38 37 39 38 38 38 39 39 40 40 40 40 41 40 41 41 42 42 43 44 44 43 43 43 42 42 41 40 40 40 40
26 21 21 31 35 38 38 30 35 37 36 36 36 34 35 37 38 38 38 39 38 39 39 39 41 40 39 40 40 40 42 42 43 43 42 42 43 40 40 40 38 39 37 37
28 22 28 34 37 38 27 30 35 36 35 35 34 36 36 36 37 38 38 38 39 38 38 38 39 39 38 38 38 41 42 42 42 42 42 42 41 40 39 39 38 36 36 36
26 23 20 33 35 31 34 33 35 35 34 34 34 35 35 35 35 35 35 36 37 36 36 38 38 37 37 36 39 40 41 41 41 41 41 41 40 38 38 38 37 36 37 38
29 29 33 32 33 33 34 34 34 34 34 34 33 34 33 33 34 34 35 35 36 35 35 36 36 36 35 37 40 40 39 40 42 40 39 39 39 39 38 38 37 37 36 37
31 30 31 32 32 33 34 33 34 34 34 33 32 33 32 32 33 33 34 35 36 35 34 33 35 35 36 38 40 40 39 40 41 40 40 39 38 38 38 37 37 36 35 36
29 31 29 32 33 33 33 34 33 33 33 32 32 31 31 31 32 33 34 35 36 34 33 34 34 34 36 37 38 39 38 37 39 40 40 39 36 37 38 40 40 37 37 37
30 32 32 31 32 34 32 32 32 31 31 32 31 31 31 30 32 32 33 34 33 33 33 34 34 34 35 36 36 37 35 36 36 37 39 39 37 36 41 41 42 42 42 40
31 30 32 31 32 32 31 31 31 31 30 29 30 30 30 30 31 34 33 32 32 32 33 33 33 34 36 36 36 36 34 34 36 36 36 38 37 35 35 37 42 41 42 42
30 32 29 30 29 31 30 30 31 30 29 29 29 30 29 28 29 29 29 31 31 31 32 33 33 33 36 36 35 34 34 35 35 35 35 36 37 36 36 35 35 36 41 42
30 29 30 30 29 28 28 28 27 27 27 28 28 28 28 27 27 28 29 30 30 30 30 31 31 32 35 35 34 33 33 33 34 36 36 36 36 36 36 35 35 36 34 39
31 29 28 28 27 27 26 26 25 26 26 26 26 27 27 27 27 27 28 27 26 28 30 30 30 34 36 35 33 33 33 34 36 35 34 34 34 34 35 34 34 33 34 35
24 25 26 23 26 25 27 27 26 25 26 26 26 27 27 27 26 25 26 26 28 28 29 30 30 33 34 34 31 32 32 33 35 34 32 33 33 33 34 34 34 33 34 35
30 30 27 27 23 26 27 28 27 26 24 26 26 24 22 22 22 24 25 26 26 27 28 30 31 33 34 33 32 32 31 32 32 32 32 32 32 32 33 34 34 33 34 34
27 28 28 29 26 25 24 23 23 23 23 23 22 22 23 23 23 24 25 23 24 24 28 30 33 34 31 32 32 32 31 32 31 31 31 32 32 32 32 32 34 34 34 34
29 29 29 27 27 26 24 25 24 23 24 23 24 23 22 23 25 25 25 24 26 28 29 29 30 32 33 32 33 32 31 30 29 30 30 31 32 32 32 33 33 34 34 34
22 21 23 25 24 26 26 25 23 23 25 26 24 24 24 26 25 25 23 24 29 31 30 32 32 32 32 32 32 31 30 29 29 29 30 30 30 30 31 32 32 33 33 33
17 16 14 17 19 21 24 23 23 23 23 24 24 24 24 23 24 24 27 25 29 33 32 31 33 33 33 34 31 31 31 30 29 28 28 29 29 29 30 31 31 32 33 33
18 17 17 16 18 18 18 19 21 22 22 22 22 22 23 24 24 22 22 27 29 30 30 31 33 35 35 32 29 28 28 27 27 27 28 28 29 29 30 30 32 32 33 33
16 16 15 16 11 12 15 20 19 22 21 22 22 23 23 23 24 26 26 29 30 29 28 29 31 33 34 28 26 26 26 27 27 27 28 29 29 30 29 29 30 30 31 33
14 12 10 11 16 19 19 20 20 21 22 22 23 24 24 27 25 26 26 26 28 27 25 30 32 32 28 26 25 25 26 26 27 27 26 26 27 27 27 28 29 29 28 30
17 17 18 18 18 18 19 20 20 20 21 21 21 22 24 26 26 25 25 25 24 26 24 26 27 27 27 27 26 26 26 26 26 25 25 25 25 25 25 26 27 27 28 28
12 21 16 17 18 18 18 21 18 17 19 18 18 22 23 23 23 24 24 22 22 23 26 26 27 27 27 27 26 26 25 24 25 25 24 24 24 23 24 24 24 26 26 26

GFSNGP_sfc_temp_084.txt.gz
Temp
40 41 42 42 42 45 40 43 41 42 44 47 49 50 50 50 50 50 50 50 50 50 51 52 52 53 53 53 54 54 54 55 55 57 58 58 58 58 57 57 57 57 56 55
35 42 43 39 43 43 44 44 45 45 43 52 51 51 49 49 48 48 47 48 49 50 50 50 50 50 51 51 51 52 53 53 54 55 56 55 56 57 56 55 55 55 54 54
34 39 40 38 40 42 43 44 45 43 45 49 47 47 47 47 47 46 46 47 47 48 49 49 50 49 48 49 51 51 51 52 52 53 52 53 54 54 53 53 53 52 53 53
35 39 31 40 44 43 42 43 44 44 44 46 49 47 47 48 47 46 46 46 47 48 48 49 50 49 49 49 50 49 50 51 51 50 50 51 52 52 52 52 51 50 50 51
36 37 38 39 42 42 41 41 44 44 44 45 45 46 43 46 46 45 45 46 47 48 47 48 48 48 48 48 48 48 48 48 49 49 48 49 49 50 52 50 49 49 50 49
38 32 32 40 44 46 46 40 44 45 44 44 45 43 49 45 45 45 46 46 46 46 47 47 47 47 46 46 46 46 46 46 48 48 48 47 48 48 49 49 47 47 44 45
38 35 39 44 45 46 36 40 45 46 46 45 45 45 43 44 44 44 44 44 46 46 45 45 46 45 43 44 43 44 44 46 47 48 48 48 47 47 45 46 45 44 42 40
37 33 31 44 43 41 44 43 45 44 45 43 43 42 42 42 42 42 42 43 44 43 43 45 44 43 42 42 44 45 45 44 45 46 47 46 46 46 43 45 44 43 42 41
41 42 43 44 43 44 44 45 44 44 43 42 41 41 41 41 42 42 42 43 44 43 43 45 44 43 41 43 44 44 44 43 43 46 47 47 45 45 42 43 43 41 39 40
40 41 43 44 42 43 43 43 43 43 42 41 40 40 40 41 41 42 43 42 43 42 42 42 44 44 44 44 44 43 43 43 43 43 42 46 43 42 40 39 39 38 36 37
41 43 41 43 43 44 42 41 41 41 41 40 40 40 40 40 41 41 41 41 41 41 40 41 43 43 44 43 43 41 42 42 42 42 41 40 42 40 39 41 41 39 38 38
43 43 44 43 43 43 41 40 40 39 39 40 39 39 40 40 41 40 39 41 40 40 40 40 41 41 43 43 42 40 39 40 41 40 41 38 37 39 43 42 42 42 43 41
44 42 41 40 41 41 40 39 39 39 39 38 40 39 39 38 39 39 40 39 39 39 39 40 40 40 42 43 42 40 38 39 39 39 39 39 37 36 35 39 42 42 41 42
41 41 38 39 40 40 40 39 38 38 38 38 38 38 37 36 38 38 38 39 39 38 38 39 39 40 42 41 40 39 38 37 36 37 37 37 35 35 36 35 35 36 41 42
40 40 39 39 38 38 38 37 37 37 38 37 37 36 37 36 36 37 38 38 37 37 37 38 38 39 41 40 38 37 36 34 34 35 37 36 35 35 36 35 35 35 36 38
38 38 37 37 37 37 37 37 35 37 36 36 36 36 36 36 36 36 37 37 34 35 37 37 37 39 39 39 38 38 37 35 35 36 36 34 34 33 33 34 34 35 34 35
32 32 34 32 34 37 36 38 36 35 35 35 35 36 35 34 34 34 36 37 36 35 36 36 36 38 38 38 38 37 34 34 34 35 35 34 34 32 33 33 32 34 34 35
39 39 38 37 34 34 36 35 35 34 32 33 33 31 30 29 29 30 31 33 32 33 34 36 36 37 37 38 36 34 33 32 32 33 34 33 32 32 33 33 32 33 34 34
38 37 36 36 35 34 32 30 31 31 30 30 29 28 30 30 30 30 31 30 29 30 34 38 36 35 35 36 35 34 32 33 33 33 34 33 33 33 34 34 33 33 33 34
36 36 35 34 34 32 32 34 34 33 34 33 32 31 30 31 32 31 31 29 31 32 34 34 34 33 34 35 34 33 32 33 33 32 32 32 32 33 33 34 34 34 33 33
29 27 28 28 29 30 31 31 30 29 31 31 29 29 29 30 30 30 28 28 32 34 34 34 34 34 35 34 33 33 33 32 32 32 32 31 32 32 33 33 33 33 34 33
27 25 22 23 26 28 29 27 27 27 27 27 28 27 27 27 28 28 30 28 32 33 33 32 33 33 33 34 34 33 33 32 31 31 30 31 31 31 32 32 32 33 34 33
26 25 24 23 23 23 24 25 26 26 25 25 24 24 25 26 27 25 25 31 31 31 31 32 32 33 34 33 33 32 31 30 30 30 29 30 30 30 31 31 32 32 32 33
24 24 23 22 21 22 21 23 23 24 24 24 25 25 25 24 26 30 30 30 30 30 30 31 31 32 34 32 30 30 29 29 29 29 29 30 30 30 31 31 31 32 32 33
21 20 21 21 22 23 22 22 23 24 23 24 24 25 25 27 25 27 27 27 28 28 28 30 30 31 31 30 29 29 29 29 29 29 28 28 28 29 30 30 30 31 32 32
23 24 24 22 22 22 22 23 22 22 22 22 23 25 26 27 27 26 26 27 26 27 27 28 29 29 30 29 29 29 28 28 27 27 27 27 27 27 27 28 29 30 30 31
21 24 23 23 23 22 22 23 20 20 22 21 21 26 25 25 25 25 26 25 26 27 28 28 29 29 29 29 28 27 27 26 25 26 26 26 25 25 26 26 27 28 29 30

GFSNGP_sfc_temp_087.txt.gz
Temp
44 45 45 45 45 47 43 48 43 45 46 49 52 53 53 54 54 53 52 52 52 52 53 54 54 54 55 55 55 55 56 56 56 57 58 58 59 59 59 58 58 59 58 57
38 46 46 42 46 48 47 48 48 49 46 56 57 56 53 53 52 51 51 51 52 52 52 52 52 52 52 52 53 54 54 55 55 56 56 56 57 58 58 57 57 56 55 55
36 44 44 40 42 45 46 48 47 45 48 53 51 51 51 52 51 50 50 50 50 51 51 51 51 51 50 50 52 52 52 53 53 54 53 53 54 55 56 56 56 54 54 54
36 41 32 42 48 46 44 46 49 48 48 51 53 53 51 53 52 50 50 50 50 50 50 51 52 51 50 51 51 51 51 51 52 51 50 51 52 52 53 54 54 53 52 53
36 40 41 42 45 45 44 45 48 47 48 48 49 49 48 50 50 49 49 50 50 51 50 51 51 50 49 49 49 49 49 48 49 49 49 49 49 49 51 51 51 51 51 51
42 34 34 43 47 50 49 41 49 49 48 47 48 44 46 48 48 49 49 50 48 49 50 50 50 50 47 47 47 46 46 45 47 48 48 46 47 47 47 48 49 49 47 47
41 38 42 48 49 50 37 40 49 50 50 48 47 47 47 48 48 48 48 48 48 49 48 48 48 47 44 45 44 46 46 47 46 47 46 47 46 46 45 45 45 46 45 44
41 36 33 50 47 42 46 48 50 49 49 48 48 47 46 46 46 46 46 47 48 46 46 47 48 45 43 43 47 46 46 46 46 46 47 47 46 46 45 43 43 43 43 43
43 44 48 50 49 49 49 49 48 48 48 47 45 45 45 44 46 46 46 47 48 46 46 47 48 47 43 45 47 46 45 45 46 46 46 46 44 45 43 43 41 42 42 42
44 49 48 50 50 49 49 48 47 47 47 45 45 46 44 45 45 45 46 46 46 45 44 44 47 47 47 47 47 45 43 44 45 44 44 45 45 44 42 40 39 39 38 37
45 50 48 49 50 50 47 46 45 45 45 44 44 44 44 44 44 45 45 44 44 43 42 43 45 45 46 46 46 43 43 43 43 44 43 43 43 42 40 42 41 39 39 39
45 51 50 48 48 49 46 44 45 44 43 44 43 42 44 43 45 44 43 43 42 42 42 42 43 43 44 45 45 43 41 41 42 41 41 41 41 41 42 41 42 42 42 41
50 48 47 45 46 46 45 44 44 43 43 42 44 43 43 41 42 42 42 42 41 41 42 42 42 42 44 44 44 42 40 40 40 39 39 38 38 36 34 38 41 42 42 42
47 46 42 43 44 44 44 43 42 42 43 42 42 42 41 40 41 40 40 42 42 41 41 41 41 41 44 44 43 41 40 39 36 35 35 36 36 35 34 33 32 35 40 41
45 45 43 45 43 42 42 42 39 40 42 42 42 40 40 38 38 39 41 41 40 39 39 40 40 41 44 44 41 39 39 38 37 35 34 35 35 35 34 33 33 33 35 38
42 42 41 41 41 41 40 40 39 39 41 41 40 39 40 40 39 39 39 40 37 36 38 38 38 41 42 41 39 39 39 39 37 35 34 34 35 34 33 33 32 32 33 34
33 33 36 35 37 40 39 41 40 39 38 38 38 39 39 37 37 36 37 39 38 37 37 36 36 39 39 39 38 38 38 36 35 34 32 33 34 33 33 32 31 32 33 36
42 42 41 40 36 37 38 38 37 36 34 34 34 34 32 31 30 31 33 34 34 34 34 36 37 37 37 37 37 37 35 33 33 32 33 33 33 34 32 31 31 32 33 35
41 38 38 38 38 36 34 31 31 32 31 31 30 29 30 31 31 31 33 32 31 30 34 37 36 34 34 35 36 35 34 32 31 32 33 34 33 33 32 32 32 33 34 34
37 38 37 36 36 34 33 35 34 33 34 34 32 31 31 31 31 30 30 28 30 32 35 34 33 32 33 34 34 32 31 30 31 32 33 32 32 32 32 33 33 32 34 34
30 29 30 30 31 32 32 32 30 29 30 31 29 28 28 28 30 29 27 27 31 34 32 32 32 32 32 33 33 32 32 32 32 31 31 31 31 32 32 32 32 33 32 32
30 27 23 25 28 30 30 28 29 28 27 27 27 27 26 26 27 27 29 28 31 33 31 31 31 32 32 33 32 32 32 32 31 31 30 30 30 30 30 31 31 32 32 33
28 27 26 24 25 25 26 27 26 26 25 25 23 24 24 25 26 24 23 29 30 30 29 30 31 32 33 31 31 32 31 30 29 29 29 30 29 30 29 30 31 31 31 32
28 26 25 24 23 24 23 24 24 25 25 24 25 24 23 23 25 28 29 29 29 29 29 29 30 32 33 31 31 30 29 29 29 29 29 30 29 29 29 29 30 31 32 32
24 22 22 22 24 25 24 24 24 25 25 25 26 27 26 28 25 26 27 27 28 28 28 30 31 32 30 30 30 29 29 29 28 28 28 27 27 27 28 29 29 30 31 31
25 26 26 24 24 24 24 25 24 25 24 24 25 27 28 28 27 27 27 27 27 28 28 29 29 30 30 29 29 29 28 28 27 26 27 26 26 26 26 27 27 28 29 30
23 25 25 25 26 24 24 24 23 22 24 23 22 27 26 26 26 26 27 26 26 27 27 28 29 30 29 29 28 27 27 26 26 25 25 25 24 24 25 25 26 27 27 28

GFSNGP_sfc_temp_090.txt.gz
Temp
39 42 41 41 41 42 37 40 31 37 38 41 43 43 45 46 47 47 46 46 46 46 45 46 47 47 47 47 48 48 48 48 48 49 50 50 50 51 52 52 52 52 52 52
29 42 41 36 41 42 42 42 43 42 39 50 51 47 46 45 47 46 46 46 47 47 46 46 45 45 46 45 46 48 47 47 49 49 48 48 48 48 49 50 50 50 49 49
27 38 37 29 37 39 41 42 40 35 40 46 45 48 46 45 46 45 45 46 45 45 44 44 44 45 43 44 46 46 46 47 47 47 46 46 47 47 46 46 48 47 47 48
25 30 21 35 43 43 41 44 44 44 43 45 44 44 45 46 44 44 45 45 44 43 43 44 45 44 44 44 44 44 44 44 45 44 44 44 44 43 44 44 45 46 46 46
25 25 35 37 40 39 37 37 43 42 43 44 45 43 39 45 44 42 41 42 43 43 43 43 43 43 42 42 42 42 42 42 42 43 42 42 44 45 46 45 45 47 46 45
32 25 24 35 42 45 43 31 42 44 43 42 41 34 34 42 43 42 42 43 42 42 43 42 42 41 39 39 39 39 40 41 42 42 41 41 44 43 44 45 44 45 45 45
31 26 33 41 43 44 27 30 42 43 43 41 37 37 40 43 43 43 42 41 42 41 40 41 41 40 38 38 37 40 41 41 41 41 40 39 39 40 43 43 43 42 43 43
31 25 23 43 40 34 39 40 42 41 41 41 41 42 42 41 40 41 40 41 42 39 39 41 41 39 37 36 39 41 40 40 39 39 40 41 37 37 38 43 42 42 42 43
35 34 42 42 40 41 43 42 40 39 41 41 40 39 40 40 39 40 41 41 41 39 38 39 39 39 37 38 40 40 38 37 37 38 39 38 36 35 35 40 40 40 39 40
37 39 40 42 42 42 41 40 41 41 41 40 37 40 38 39 39 39 39 39 39 37 36 36 37 38 38 39 40 39 36 36 36 36 37 36 37 36 34 33 36 38 38 37
37 42 39 42 42 43 42 41 40 40 40 38 38 38 38 38 38 38 38 38 38 36 35 36 36 37 37 39 38 36 36 35 35 36 35 34 34 34 34 34 35 37 37 38
34 42 40 38 40 44 40 39 39 38 37 38 37 37 37 36 37 37 36 37 35 35 35 35 35 36 37 38 37 35 35 35 34 34 33 33 32 33 40 41 41 41 41 40
41 40 39 40 41 40 39 39 39 37 36 35 37 37 36 35 36 39 36 35 34 34 34 34 35 36 37 39 38 36 33 34 33 35 31 30 30 29 29 34 40 40 40 40
40 40 36 38 36 38 38 39 39 36 37 36 36 36 36 34 35 34 33 35 35 34 34 34 35 35 38 39 38 35 34 38 33 30 30 33 32 32 32 32 31 33 37 38
39 39 38 39 39 37 37 36 33 33 35 35 36 34 34 32 31 32 34 34 34 33 33 34 34 35 38 38 36 34 33 31 31 35 36 35 34 30 32 33 33 32 33 36
37 37 36 35 36 35 33 32 31 32 33 33 32 32 33 32 32 32 32 32 30 31 32 33 33 35 36 36 35 34 32 37 38 36 35 33 32 30 30 31 32 31 31 32
28 27 30 29 32 33 32 34 33 31 31 29 29 29 29 28 28 28 30 31 30 31 31 31 31 34 34 34 34 34 33 33 37 35 33 32 29 28 29 30 29 31 31 33
35 34 34 33 29 31 31 30 29 28 25 28 27 26 23 22 22 24 26 28 29 29 30 31 33 33 33 33 33 33 33 32 31 31 31 30 30 30 30 30 30 31 31 32
35 32 33 32 32 30 27 24 22 23 23 23 22 20 21 21 21 24 25 25 25 25 28 30 32 31 30 31 32 31 31 31 30 30 30 31 30 29 29 29 29 29 29 31
31 31 31 30 30 28 27 27 27 26 27 26 24 23 22 23 24 24 24 23 24 27 31 29 30 28 29 30 33 31 31 30 29 29 29 29 29 29 29 31 30 30 30 29
25 25 26 27 27 28 27 25 24 23 24 24 23 22 22 23 24 23 22 22 26 28 31 31 28 29 29 31 31 30 30 29 28 28 29 29 28 27 27 28 28 29 30 31
23 21 18 20 23 24 24 24 23 23 22 22 22 21 21 21 22 22 24 22 27 31 29 27 28 30 30 33 30 29 28 28 28 29 27 26 25 26 26 27 28 28 29 30
23 23 21 20 19 18 20 23 21 21 20 18 18 19 18 20 20 19 19 25 27 28 28 27 30 31 32 30 29 28 29 28 28 27 26 25 25 27 26 26 27 27 28 28
23 23 20 19 16 16 16 18 18 21 19 19 20 19 17 18 20 19 23 27 28 28 28 28 29 32 33 28 28 27 27 27 26 26 26 29 26 25 25 25 26 27 28 29
21 18 16 15 17 18 19 19 18 17 18 19 19 20 20 20 18 22 24 25 28 27 26 28 30 31 28 27 27 26 26 26 26 26 24 24 24 23 24 25 25 26 27 28
22 23 23 21 19 19 19 19 18 18 18 18 20 21 22 21 21 22 21 25 25 27 24 24 25 27 27 26 26 26 25 24 24 24 24 23 23 22 23 23 24 25 26 27
18 24 20 20 22 21 20 19 17 16 19 18 18 21 21 22 21 23 24 22 23 22 23 23 24 26 28 26 25 25 25 24 24 23 21 21 21 21 21 21 23 24 25 25

GFSNGP_sfc_temp_093.txt.gz
Temp
36 40 39 37 37 38 34 35 28 33 33 36 39 39 39 41 43 44 43 44 43 42 42 42 43 44 45 44 45 45 45 45 45 46 47 47 47 48 48 49 49 50 50 50
27 39 39 33 37 38 39 39 38 37 35 42 41 41 41 41 43 42 42 43 43 43 43 42 41 42 43 43 43 44 43 44 45 45 45 44 45 45 45 45 46 47 47 48
25 34 34 28 33 35 37 38 37 33 36 42 41 44 42 41 42 41 42 42 42 40 41 41 41 42 41 42 43 42 42 43 43 43 43 43 43 43 43 43 43 43 44 45
21 29 20 34 39 40 38 40 40 40 40 40 41 41 40 40 40 40 42 41 41 40 41 41 42 42 41 41 41 41 40 40 41 41 41 41 41 41 41 45 45 44 44 46
23 20 31 34 38 36 34 34 39 39 40 40 41 39 37 41 41 38 38 40 41 40 40 40 40 40 39 39 39 38 39 39 39 39 39 39 39 38 40 42 43 44 45 45
28 23 23 34 39 42 40 28 39 41 40 40 39 31 33 39 41 40 40 41 40 40 40 38 38 38 38 37 37 37 39 39 39 39 38 37 37 37 38 39 42 44 43 44
28 23 31 38 41 42 26 31 40 40 40 39 36 36 38 40 40 40 40 40 41 40 38 38 39 39 37 36 34 37 38 39 39 38 37 36 35 35 35 35 38 38 42 42
28 24 22 41 38 34 38 38 41 39 38 38 38 39 39 40 40 40 39 40 40 37 37 38 38 37 36 34 38 38 38 37 36 35 37 39 34 33 33 33 34 35 40 41
33 32 40 40 39 39 41 40 39 39 38 40 39 39 39 38 38 38 38 38 38 36 36 36 36 35 34 35 36 36 35 35 35 35 35 35 32 32 31 32 32 33 35 37
35 36 38 40 39 41 40 39 39 39 39 39 37 37 36 38 37 36 37 37 37 35 34 33 34 34 34 35 36 35 33 33 33 32 33 33 34 33 31 30 30 31 31 32
33 38 37 40 39 40 40 39 38 39 39 38 37 35 34 35 35 35 36 36 35 34 32 33 33 33 34 35 35 33 33 33 33 34 32 31 31 31 31 31 32 34 36 36
34 40 39 37 39 40 38 37 38 37 36 36 35 34 34 33 34 34 33 34 33 33 32 32 32 33 33 34 34 32 33 33 33 32 31 30 29 29 36 38 39 40 40 39
40 38 38 38 39 40 38 38 38 37 36 33 33 34 32 33 33 37 33 32 31 31 31 31 31 32 33 34 34 33 32 33 33 35 31 29 28 26 27 32 38 39 39 40
38 38 34 36 35 37 38 38 39 35 34 34 33 34 32 31 32 31 30 32 31 31 31 31 32 32 34 35 34 33 32 36 33 30 29 28 28 28 30 28 27 29 36 38
36 35 37 36 36 35 35 35 33 32 33 33 32 30 29 28 28 28 30 30 30 30 30 30 31 31 34 34 33 32 31 32 31 29 30 36 34 32 32 29 28 29 31 33
34 34 34 34 33 33 32 32 30 31 31 30 28 27 27 27 26 27 27 28 26 26 28 29 29 31 32 32 31 31 31 34 35 33 32 31 31 31 31 27 27 28 30 31
27 27 29 27 30 31 31 31 30 28 28 27 27 27 26 25 24 24 25 26 26 26 27 28 28 31 31 31 30 29 29 30 34 33 32 30 29 28 29 28 27 28 30 32
33 32 33 32 29 30 30 29 28 27 25 26 26 25 21 19 17 20 22 24 24 24 26 27 29 30 30 30 29 30 30 29 30 30 31 30 29 30 29 29 30 29 29 30
33 31 31 31 31 29 27 24 23 23 23 22 22 21 18 17 18 19 22 21 21 20 24 27 31 29 27 29 31 30 29 29 30 30 30 31 30 30 29 28 27 28 28 29
30 30 30 29 29 28 26 26 25 24 25 25 23 22 20 20 21 21 21 19 21 22 27 28 29 26 27 27 31 30 28 27 27 28 29 29 28 28 29 29 29 29 29 29
25 26 27 28 27 27 26 25 24 23 24 25 22 21 20 21 20 20 18 19 24 25 29 29 26 27 27 30 31 29 28 27 27 27 27 28 28 28 27 26 27 27 28 29
22 22 21 22 25 24 25 24 23 23 23 22 22 21 20 19 20 19 22 20 24 29 28 26 27 28 30 33 29 28 27 27 27 28 27 27 26 25 25 25 26 26 27 27
24 23 22 22 22 21 20 22 22 22 21 20 19 19 18 18 18 17 18 23 26 28 28 26 29 31 32 28 27 27 27 26 26 26 26 26 26 26 25 24 24 25 25 26
24 23 21 21 19 19 18 18 19 21 20 21 20 19 16 14 18 17 19 25 27 29 27 27 28 31 32 27 26 26 25 25 25 25 25 26 24 25 23 23 23 25 25 26
23 19 19 19 20 21 20 20 18 18 19 20 20 20 18 18 16 19 17 21 25 26 24 26 28 28 24 26 26 25 25 24 24 24 23 22 22 22 22 22 22 23 24 24
22 23 23 23 22 22 21 21 20 20 20 18 20 20 19 19 19 19 18 23 21 24 20 21 22 24 24 25 26 25 25 24 24 23 23 21 21 20 20 20 20 21 23 24
21 25 22 22 22 22 21 21 19 19 20 19 18 20 19 19 18 21 22 19 20 19 19 20 20 22 24 26 24 25 24 24 24 23 21 20 20 19 19 19 20 22 23 23

GFSNGP_sfc_temp_096.txt.gz
Temp
33 36 37 35 34 36 32 31 27 31 31 35 36 37 37 38 40 41 40 41 40 40 39 39 40 41 42 42 42 43 43 42 42 43 44 44 44 45 45 45 45 46 47 47
26 36 36 35 36 36 36 36 35 34 32 39 37 36 37 38 40 40 40 40 40 41 40 39 39 40 41 40 41 42 41 41 42 42 43 42 42 42 42 42 42 43 44 44
24 31 33 28 33 33 34 36 35 31 35 38 38 41 40 39 40 39 39 39 39 38 38 38 39 40 39 39 40 40 39 40 40 40 40 40 40 40 40 39 40 40 41 42
22 27 18 32 37 38 35 37 37 37 37 39 39 37 37 38 38 39 39 39 39 38 38 39 38 39 39 39 38 38 38 38 39 38 38 38 38 37 37 38 39 40 40 42
21 20 30 32 37 36 34 35 38 38 37 38 38 36 34 39 39 38 38 38 39 38 38 37 37 38 37 37 37 36 37 37 38 37 36 36 36 35 36 36 37 38 40 40
25 22 22 33 37 40 39 28 39 40 38 38 37 31 34 39 40 39 38 39 39 38 38 37 37 36 36 36 35 35 36 37 37 37 36 35 35 35 35 35 36 38 38 38
27 23 29 37 39 40 25 31 39 40 39 37 35 36 38 39 38 39 39 39 39 37 36 36 36 35 34 34 32 35 36 36 36 36 34 34 33 33 33 32 33 32 35 35
26 23 21 39 37 33 38 36 39 38 38 38 37 37 37 37 37 38 38 39 39 36 36 36 36 34 33 33 35 36 36 35 34 33 35 36 31 31 31 30 30 30 31 32
31 31 39 39 39 39 39 39 38 38 37 39 37 36 37 37 35 36 36 36 37 35 34 34 34 33 31 33 34 34 33 33 35 36 35 32 30 30 29 29 29 30 30 30
35 34 36 40 38 39 39 38 38 37 38 38 36 36 35 36 35 35 35 35 35 33 32 31 32 32 31 32 33 32 30 31 33 32 34 33 31 31 29 28 28 31 30 31
32 36 37 39 38 39 39 38 37 37 37 37 36 34 33 34 34 33 33 33 33 31 31 31 31 31 32 32 32 30 30 31 32 33 32 32 31 30 30 30 30 30 31 32
36 39 39 38 37 39 37 37 37 37 36 36 35 34 33 32 32 32 31 32 30 31 30 30 30 30 31 32 31 30 31 32 32 33 33 32 30 29 35 37 38 38 39 38
41 38 38 37 37 37 37 36 36 36 36 34 33 34 32 32 32 34 30 29 29 29 29 29 29 29 30 31 31 30 29 30 31 32 31 31 30 27 26 31 37 37 37 39
38 37 33 35 36 37 37 37 39 34 34 34 33 31 30 29 30 28 28 29 29 28 27 27 27 27 30 31 30 29 28 33 30 30 29 30 30 28 28 30 30 29 34 35
36 36 37 36 34 33 34 34 32 32 32 31 30 28 28 27 27 27 27 29 28 27 26 26 26 27 30 30 29 28 28 29 29 30 30 31 32 31 31 31 31 30 28 32
33 33 33 33 32 32 32 31 30 30 30 29 28 27 27 27 26 26 26 26 24 23 25 25 26 27 29 29 28 27 28 31 32 30 30 30 30 31 30 29 28 27 27 28
28 28 29 27 30 30 31 31 30 30 29 28 27 27 26 26 24 23 23 24 25 24 25 26 26 29 29 29 27 28 29 30 33 29 28 28 29 29 29 28 28 28 28 32
35 34 33 32 30 29 29 29 29 28 27 27 27 24 21 19 17 20 22 23 23 23 25 26 27 30 28 28 28 29 27 28 28 28 29 29 29 29 28 29 28 28 28 30
34 32 31 32 31 29 27 26 25 25 25 24 23 20 19 18 19 20 21 21 21 19 22 24 29 28 26 27 30 28 26 27 28 27 27 29 28 28 28 28 28 29 28 28
31 30 30 28 29 28 26 26 26 25 25 25 24 23 21 20 21 21 21 19 20 20 23 26 28 25 26 26 30 29 28 28 28 27 27 28 28 27 28 29 29 27 27 27
27 28 28 28 27 27 27 26 25 24 25 25 23 22 21 21 20 20 18 19 23 24 29 28 26 25 26 29 30 26 24 26 26 26 26 26 27 26 27 27 26 26 26 27
24 23 23 24 25 24 24 24 25 24 24 23 23 22 21 20 20 19 22 20 23 28 28 25 24 28 30 33 24 24 25 25 24 24 25 25 25 25 25 26 25 25 25 24
24 24 23 23 23 22 21 23 23 23 22 21 20 21 20 19 19 17 18 22 24 25 27 23 28 31 32 26 24 24 24 23 23 23 24 24 24 23 23 24 23 23 23 24
24 24 22 21 18 19 20 21 21 22 20 21 20 21 19 16 18 19 20 24 26 26 25 24 27 30 31 23 23 24 23 23 23 23 23 25 22 21 21 21 21 21 21 22
22 21 20 19 19 20 22 21 20 19 19 20 20 21 19 20 18 19 17 19 24 24 21 24 26 26 22 22 22 24 23 23 23 24 22 21 20 19 19 20 20 20 21 22
23 23 22 21 22 22 23 21 20 21 20 19 20 21 21 21 20 19 18 22 19 22 18 18 18 20 20 21 23 23 23 23 23 22 23 20 19 19 19 19 19 20 20 22
17 26 20 20 22 22 22 21 19 19 21 20 18 20 20 20 19 20 22 18 17 17 16 17 17 18 19 20 21 23 22 22 22 22 21 20 19 19 19 19 20 21 22 22

GFSNGP_sfc_temp_099.txt.gz
Temp
32 34 33 34 34 34 30 30 25 30 29 34 36 36 37 38 39 39 39 39 39 38 36 37 38 39 40 41 41 42 41 41 41 41 42 42 42 42 43 43 43 43 43 43
26 34 33 32 35 35 34 33 32 31 31 38 36 36 36 37 38 38 38 39 39 38 38 37 37 37 38 38 39 39 39 39 40 39 39 39 39 39 40 40 41 42 42 42
23 30 31 27 32 34 34 35 35 30 36 37 37 39 39 37 38 38 39 39 37 36 36 36 36 38 37 37 37 37 37 38 38 38 37 37 37 37 36 36 37 37 39 40
22 26 17 32 35 37 35 37 37 36 36 38 38 37 37 38 38 38 38 38 38 36 36 36 36 37 37 37 36 36 36 36 37 37 36 36 35 35 34 35 35 35 36 38
20 18 29 31 35 34 33 34 38 37 36 35 36 35 35 38 37 37 36 37 37 36 36 35 35 36 35 36 35 35 35 35 36 36 35 35 34 33 33 33 33 34 36 36
25 20 21 31 35 38 37 28 37 39 37 35 35 29 33 37 39 38 38 38 37 36 36 35 35 34 34 33 33 33 34 34 35 35 34 33 32 32 32 32 34 34 34 34
26 22 28 35 38 38 26 31 37 38 38 36 34 36 37 38 38 38 37 36 36 34 34 34 33 33 32 31 32 33 34 34 33 33 32 32 31 31 30 29 30 30 31 31
25 22 21 38 36 33 37 34 37 37 38 37 36 37 37 38 37 36 35 35 35 34 34 34 33 32 30 30 32 32 32 32 32 32 33 34 29 28 28 28 27 28 28 30
30 30 38 38 38 38 38 39 37 37 37 38 37 36 37 36 34 35 34 34 34 32 32 32 31 30 29 31 31 31 30 30 30 32 33 33 31 29 29 28 27 28 30 29
33 35 35 38 38 39 39 38 38 38 38 37 36 36 34 35 33 33 33 32 32 31 30 29 30 30 29 30 30 29 27 27 28 27 31 32 32 32 30 29 26 30 29 29
30 35 35 38 38 38 39 38 36 36 36 36 35 34 33 33 33 32 32 31 31 29 29 29 29 29 29 29 29 28 27 28 28 29 29 30 31 30 31 30 29 28 30 30
36 39 40 39 38 39 37 36 37 36 34 35 35 34 33 32 31 31 29 28 28 28 28 27 27 27 28 29 28 26 28 28 28 30 29 30 30 30 36 37 39 39 39 36
43 39 38 37 36 35 37 36 36 35 35 33 32 34 33 31 31 32 28 27 27 27 27 26 26 26 28 29 29 28 26 28 29 30 29 28 28 27 26 32 37 37 38 37
38 36 34 34 37 36 35 36 38 34 33 33 32 31 30 29 28 27 26 27 27 27 26 25 25 25 27 28 28 26 26 31 28 27 27 28 28 28 28 27 27 29 36 36
35 36 37 35 34 33 32 32 30 30 30 29 30 29 29 27 27 27 26 28 27 26 25 25 25 25 27 27 28 27 27 27 28 29 29 31 30 29 29 30 30 30 29 32
33 32 31 32 31 31 31 30 29 29 28 27 28 27 27 27 26 26 26 25 24 23 25 24 25 26 28 28 27 26 27 31 31 30 29 27 27 29 29 29 29 29 27 28
26 26 27 27 30 30 30 30 30 29 28 27 27 27 26 26 25 24 24 24 24 24 25 26 26 28 28 28 26 26 26 26 30 28 26 26 26 27 28 29 29 29 29 30
32 34 33 32 30 30 30 30 30 28 26 27 26 24 21 21 22 22 22 23 22 23 25 26 26 27 29 28 27 26 26 26 27 27 28 28 27 27 27 28 29 29 29 30
32 31 31 32 32 31 29 27 26 25 24 23 21 19 21 22 22 20 21 20 21 20 22 23 27 28 26 27 29 27 26 26 28 28 28 29 26 26 28 28 28 28 28 28
29 30 30 29 30 29 27 27 26 24 24 24 24 23 22 22 22 21 21 19 21 21 23 25 27 25 25 25 29 28 24 25 26 26 26 27 25 25 26 28 27 27 26 26
22 24 26 28 28 28 28 27 25 24 25 25 24 23 23 23 21 21 19 19 24 24 26 28 26 25 25 27 29 25 21 25 25 25 24 23 24 25 25 26 26 26 26 26
20 19 20 23 24 24 25 24 25 25 24 24 24 23 21 20 21 21 22 20 23 27 26 25 23 26 29 31 25 22 25 25 24 24 23 22 23 22 23 23 23 24 23 23
21 21 21 22 22 21 21 22 22 24 23 22 22 21 20 20 20 18 18 22 24 25 26 22 26 30 31 27 22 22 23 22 22 22 22 22 22 22 21 20 21 21 20 21
22 22 19 17 15 16 16 18 21 23 23 22 21 21 20 18 19 20 21 24 26 26 25 23 26 29 30 21 21 21 20 19 21 21 22 25 22 20 19 19 19 20 20 20
21 19 16 16 17 19 18 20 18 18 19 21 21 21 21 21 19 18 18 20 23 24 20 23 26 25 19 18 19 20 18 18 21 22 20 21 20 19 19 19 19 19 20 20
21 23 23 21 21 19 20 20 20 21 20 19 21 22 22 22 21 21 19 22 20 22 17 18 16 18 17 17 19 19 20 20 20 19 21 20 20 20 20 20 20 20 20 20
17 25 18 18 20 20 21 21 19 19 23 21 20 20 21 21 20 21 22 19 18 17 16 16 15 16 18 18 17 17 18 19 20 20 19 17 19 19 20 20 20 20 20 21

GFSNGP_sfc_temp_102.txt.gz
Temp
30 32 32 33 33 33 30 29 26 29 29 34 35 36 36 37 37 37 37 37 37 36 35 36 36 38 40 39 39 41 41 40 38 40 40 40 40 39 40 40 40 41 41 41
24 33 31 31 33 33 33 33 32 31 31 37 34 34 35 36 36 37 37 38 37 36 35 35 35 35 37 36 36 37 36 37 38 38 38 36 37 38 38 38 37 38 39 39
23 29 30 27 30 32 34 34 34 29 35 36 35 37 38 36 37 37 37 38 37 35 36 35 34 36 35 35 35 35 35 36 36 35 35 35 35 34 34 33 34 34 35 36
21 26 16 32 33 35 35 36 36 34 36 37 37 37 38 38 37 37 38 38 37 36 35 35 34 35 35 35 34 34 34 34 35 35 34 34 34 33 32 32 32 32 33 34
19 17 29 31 32 34 32 34 36 36 36 35 35 34 35 39 38 38 37 37 36 35 35 34 34 33 34 34 33 33 33 33 33 33 32 32 32 31 31 31 31 31 33 33
23 19 20 30 33 37 36 27 36 38 36 35 34 30 33 36 37 37 37 37 36 35 35 34 33 33 32 32 31 31 31 32 32 32 31 29 29 28 29 30 30 31 31 31
25 22 27 34 36 38 24 31 35 37 37 34 33 36 37 37 36 37 37 36 36 33 33 33 32 31 30 30 28 31 31 31 31 30 29 29 28 29 28 30 30 28 29 29
23 21 20 36 35 32 37 33 37 36 36 36 36 35 34 36 35 36 35 35 34 32 32 31 31 29 29 27 29 30 30 30 29 29 30 32 27 26 26 25 25 27 27 28
30 30 37 37 38 39 38 38 37 37 38 38 36 35 35 35 34 34 33 33 32 31 30 30 29 28 26 27 28 28 27 27 27 28 30 30 27 28 28 28 25 26 29 28
31 34 35 37 38 37 38 38 37 37 38 37 36 35 34 34 33 32 32 31 30 29 27 26 26 27 26 27 28 27 25 25 26 26 28 27 29 30 28 27 26 29 29 28
29 36 35 39 37 39 38 38 37 36 36 36 35 33 33 33 32 32 32 31 30 28 28 27 27 27 28 29 27 26 25 26 26 27 25 26 28 28 30 29 29 31 31 31
34 41 38 40 38 38 36 37 36 36 33 32 34 34 33 32 32 31 30 29 29 29 29 28 28 27 27 28 27 25 26 27 27 28 26 27 27 27 34 35 37 37 38 37
39 35 37 39 38 37 37 36 36 36 35 34 32 33 32 31 30 33 28 27 27 27 27 26 25 26 27 27 27 26 25 26 28 28 27 26 28 28 27 32 36 36 37 38
36 33 33 34 37 37 36 35 38 34 33 33 32 31 30 29 28 27 25 25 27 26 26 25 24 24 26 26 27 26 25 29 26 26 26 28 29 29 29 28 27 29 35 36
34 34 35 34 33 33 31 31 30 30 29 29 29 29 28 27 26 26 25 27 27 25 25 24 23 23 26 26 28 26 26 26 28 30 29 29 28 27 28 28 28 29 29 32
33 31 32 31 33 30 30 29 29 29 29 28 28 27 27 26 25 25 25 25 23 23 25 23 24 26 27 27 27 26 25 29 30 29 28 28 27 27 27 27 27 28 29 29
24 26 28 27 29 28 29 29 31 30 29 28 28 28 27 26 25 24 24 24 25 24 24 26 26 28 28 28 26 26 25 26 30 26 27 28 28 27 27 26 26 27 28 30
29 31 32 32 28 28 29 30 30 29 27 28 27 25 22 22 21 23 23 23 23 22 25 27 27 28 29 28 27 27 28 26 26 26 28 28 27 27 26 26 26 26 28 29
31 31 32 32 30 30 28 26 24 24 23 23 22 22 22 22 21 22 23 20 19 19 22 24 27 29 27 27 29 27 25 25 25 25 27 28 26 26 25 25 26 26 27 27
30 30 29 27 29 28 26 26 24 23 23 23 23 22 21 22 24 22 21 18 20 22 23 24 27 26 26 25 29 26 26 25 26 26 26 26 24 23 24 25 25 25 26 26
22 23 25 27 28 27 27 25 23 22 23 24 22 22 23 24 22 22 18 20 24 25 25 28 26 26 26 27 29 25 22 24 25 24 23 23 22 22 23 23 23 23 24 24
20 19 18 20 24 24 24 23 23 23 22 22 22 23 22 21 21 20 22 21 24 28 27 25 25 26 28 32 24 21 20 21 22 23 22 22 22 22 22 22 20 20 21 21
22 21 21 20 21 19 19 21 21 22 21 19 20 21 21 20 22 19 19 22 23 25 26 25 26 30 31 23 21 20 20 20 21 21 21 21 22 22 21 20 19 20 19 19
24 23 22 19 15 14 15 16 16 19 18 19 19 19 17 16 19 20 21 25 27 25 25 24 26 29 29 17 17 16 17 19 20 19 21 24 21 21 20 19 19 20 19 19
24 22 19 17 19 21 19 17 14 14 15 17 18 18 17 18 18 17 17 20 24 24 22 24 26 25 19 16 14 14 17 18 19 21 19 19 20 19 19 19 19 19 21 20
22 24 25 23 24 23 20 18 18 17 17 17 19 20 19 19 18 22 18 21 20 22 19 19 18 19 16 15 15 16 15 17 17 18 20 19 18 18 19 19 20 20 20 20
19 26 20 19 21 21 20 20 17 18 22 20 19 20 21 20 19 21 23 19 18 18 18 18 17 16 16 15 15 15 15 16 18 18 19 17 17 18 19 19 20 21 22 22

GFSNGP_sfc_temp_105.txt.gz
Temp
30 33 33 33 34 33 30 31 28 31 30 36 37 38 40 41 40 40 40 41 41 41 41 40 41 42 42 42 42 42 42 42 41 42 43 41 42 42 42 42 43 43 43 43
24 33 32 29 32 32 33 33 31 32 32 40 40 39 38 39 39 39 39 40 41 41 40 39 39 39 39 39 39 40 40 39 40 40 40 40 40 39 40 40 40 40 40 40
23 29 29 27 31 31 33 34 35 31 37 38 37 38 39 39 38 39 39 40 40 40 40 39 39 39 39 39 39 39 38 39 38 38 38 38 38 38 38 37 38 38 38 39
22 26 19 34 36 36 35 36 37 37 38 39 40 40 40 41 40 39 40 40 40 39 39 39 39 38 38 38 37 37 37 37 37 37 37 37 37 36 37 37 37 37 37 38
20 18 30 32 34 35 33 35 37 37 37 38 38 38 39 41 40 41 40 40 40 39 39 38 37 37 37 37 36 36 35 35 36 36 35 35 35 34 35 35 35 35 36 36
23 20 22 32 35 39 39 30 38 37 37 37 37 34 38 39 40 39 39 39 38 38 37 37 36 36 36 35 34 34 35 35 35 35 34 33 34 33 34 34 34 34 34 35
25 22 28 35 37 37 27 34 38 38 39 36 35 39 39 38 38 38 38 38 38 37 36 35 35 35 34 33 32 34 34 34 34 34 33 32 32 32 31 31 32 31 33 34
23 21 20 37 36 34 39 36 38 38 38 37 37 38 37 37 37 37 37 37 36 35 34 34 34 33 32 30 32 32 32 32 32 32 32 33 30 31 31 30 31 30 31 32
29 30 38 37 39 39 39 40 40 38 39 38 37 37 37 36 35 36 36 35 34 33 33 32 31 30 30 31 30 30 30 30 30 31 32 32 31 30 31 31 30 30 31 31
32 35 36 37 38 39 38 39 40 40 41 38 37 37 36 35 34 34 34 33 33 32 31 30 29 30 30 30 30 29 28 28 30 29 32 31 31 32 30 30 29 30 31 32
29 35 37 39 36 39 39 38 37 39 39 38 38 35 35 34 34 33 33 32 32 30 30 29 29 29 30 30 29 28 28 29 29 30 28 29 30 30 31 32 32 32 32 33
34 38 38 37 39 39 38 40 39 36 35 36 36 36 35 33 33 32 31 30 30 30 30 29 29 29 29 29 28 27 28 29 28 30 29 29 29 30 34 36 37 37 37 36
40 35 36 37 37 38 38 40 38 36 36 34 34 34 33 31 31 33 29 29 28 28 28 27 27 27 28 29 29 28 27 27 29 29 28 28 29 29 28 32 34 35 36 37
36 32 33 34 35 35 35 35 38 33 34 33 32 33 32 30 31 28 28 28 28 27 26 26 26 26 28 28 28 27 27 29 28 27 27 29 28 29 28 27 26 28 34 35
34 34 35 33 32 32 33 32 31 31 30 30 30 30 30 29 28 28 27 28 28 27 26 26 25 26 28 28 28 27 27 27 28 28 29 30 30 29 29 28 28 27 29 32
33 31 30 30 31 31 30 30 30 29 29 28 28 29 29 28 27 26 26 26 25 25 26 26 27 27 28 28 27 27 27 28 30 29 29 27 28 28 28 27 27 27 28 29
26 28 28 27 30 30 30 30 30 30 29 28 28 28 26 26 25 24 24 25 26 26 26 27 26 29 29 28 27 27 27 27 30 28 28 27 28 27 27 27 26 26 27 30
30 31 31 31 28 30 30 30 30 30 28 28 27 25 22 20 20 23 23 24 24 24 26 28 28 28 29 29 28 27 27 28 27 27 27 27 27 28 26 26 25 25 27 28
30 30 30 31 31 30 28 27 27 25 24 24 22 20 19 17 18 20 23 22 21 21 23 25 28 28 27 28 29 28 26 26 26 26 27 28 26 26 25 25 25 25 25 26
31 31 31 30 30 29 28 28 26 24 23 23 22 20 19 20 22 22 22 20 21 23 25 25 27 27 26 26 29 27 27 25 25 25 26 26 24 24 24 25 25 25 24 24
27 25 26 28 29 29 29 26 25 24 23 23 22 22 22 22 21 21 18 20 24 25 26 28 27 26 26 27 28 26 24 22 22 23 22 22 22 23 24 24 24 24 23 23
21 21 22 23 26 26 26 25 24 24 23 22 22 22 21 20 20 19 21 20 22 28 27 26 26 27 28 32 24 22 21 21 21 20 21 21 21 21 22 22 22 22 22 22
24 23 22 22 24 23 22 23 23 23 22 19 19 20 19 20 19 18 18 21 23 25 26 25 27 29 31 23 21 20 18 18 19 19 20 20 21 21 20 21 21 22 21 21
24 24 21 20 18 18 19 20 19 21 20 19 19 19 17 15 15 17 20 25 28 26 24 25 26 29 30 20 18 16 16 16 17 18 19 23 19 19 20 20 20 21 21 21
25 23 19 19 20 23 22 21 19 16 17 18 18 18 18 18 18 15 16 20 25 24 21 25 26 26 20 18 16 15 16 16 16 19 17 17 18 18 19 19 20 21 23 23
25 26 26 25 26 25 23 21 22 20 19 17 18 19 18 19 18 19 17 21 19 21 19 19 19 19 18 16 17 17 16 15 16 16 18 17 18 17 18 19 20 21 22 22
25 29 22 21 23 23 22 23 21 21 23 20 18 19 20 19 18 18 22 19 16 15 17 18 18 17 17 16 17 16 16 15 17 18 17 16 16 17 18 19 20 21 22 23

GFSNGP_sfc_temp_108.txt.gz
Temp
41 43 43 41 41 42 38 40 36 44 42 50 51 50 51 52 51 50 49 50 51 51 52 51 51 50 49 49 49 49 47 47 45 47 48 48 47 47 47 48 48 48 47 48
33 44 42 37 41 41 41 42 42 43 42 55 56 55 53 51 51 49 50 50 51 51 50 50 49 49 48 48 48 48 48 46 47 47 46 46 45 44 45 44 45 46 46 45
33 40 39 36 42 42 42 43 43 38 48 55 48 48 50 52 51 50 52 52 51 50 50 50 49 48 47 47 48 47 46 46 45 45 45 44 45 45 45 44 45 44 45 45
32 37 30 42 47 46 43 46 47 48 49 50 51 52 53 54 54 53 52 52 52 52 50 50 49 48 47 46 46 45 45 44 44 44 43 44 43 43 43 43 42 42 42 43
31 32 41 43 42 42 41 45 49 48 51 50 50 48 51 53 54 55 55 54 54 53 51 49 48 47 46 45 44 43 43 43 43 42 41 41 41 40 41 40 40 40 41 41
34 28 31 43 46 48 47 41 50 48 49 48 47 44 54 52 52 52 52 52 50 49 48 48 46 46 44 43 43 42 41 41 41 41 40 39 39 38 39 39 38 39 39 40
32 29 38 49 48 48 37 44 50 48 50 48 46 53 50 49 48 50 50 48 48 47 47 46 45 44 43 42 41 40 40 40 40 40 39 39 39 38 38 38 38 38 39 40
34 30 28 48 44 42 51 50 50 50 51 48 50 50 48 48 48 46 45 45 46 45 43 43 42 42 41 39 40 39 38 38 38 39 38 39 38 38 39 38 38 38 39 39
42 43 50 49 53 52 50 49 50 50 52 51 50 49 49 46 46 45 45 45 44 43 41 41 40 39 38 39 38 37 37 37 38 38 38 39 38 38 38 38 37 36 36 37
40 50 48 52 53 52 52 50 51 51 49 50 48 51 48 46 45 43 43 41 41 41 40 38 37 37 37 36 36 35 35 36 37 37 37 38 38 37 36 36 35 34 35 34
42 47 49 50 51 52 50 49 48 49 48 48 48 48 48 46 44 43 42 40 40 39 38 37 36 35 35 35 34 34 34 35 35 35 36 35 35 35 35 36 36 34 34 35
41 51 50 52 52 49 48 48 49 47 47 47 46 46 46 45 45 42 40 39 38 37 37 36 35 34 34 34 34 33 33 35 34 34 35 34 34 35 37 36 37 36 36 36
49 54 51 52 49 48 46 46 46 45 46 46 45 46 44 43 42 40 39 38 38 37 37 35 34 33 34 34 33 32 32 32 33 33 33 33 33 32 30 34 35 36 36 36
50 48 44 44 46 46 43 44 44 43 43 43 44 43 42 40 39 39 38 38 37 36 34 34 33 33 34 33 32 32 32 32 32 32 32 32 32 32 31 29 29 31 36 35
46 46 47 44 40 41 42 41 39 40 40 39 41 40 40 38 38 37 37 36 35 34 33 33 32 32 33 33 32 32 32 32 32 32 32 32 32 31 31 31 30 30 32 34
42 42 41 39 39 40 39 39 38 39 38 38 38 38 39 40 38 36 35 34 32 33 33 32 32 33 33 32 32 32 32 30 31 32 32 31 31 30 30 30 29 30 30 30
34 35 37 34 37 39 38 39 39 40 38 38 38 38 37 35 34 33 32 33 33 32 32 32 32 33 32 32 31 31 31 31 32 32 30 30 30 28 29 29 28 29 29 31
41 42 39 38 36 37 38 37 36 37 35 36 36 34 32 30 32 31 31 31 31 30 31 33 33 32 32 32 31 31 31 31 30 29 30 29 29 30 29 28 28 28 29 30
37 37 38 37 36 36 36 34 34 34 32 32 30 30 30 30 29 29 30 28 28 28 32 32 30 30 31 31 31 32 30 30 30 30 30 30 29 29 28 28 27 28 28 28
37 37 37 36 37 35 35 35 36 34 34 33 32 30 29 29 30 29 29 28 31 32 31 30 30 30 30 30 30 31 30 29 28 28 28 28 27 26 27 27 28 27 28 27
32 33 33 34 34 35 34 35 34 33 32 32 31 31 31 31 30 29 27 27 31 31 31 29 30 30 30 30 31 30 29 27 26 25 25 25 25 25 26 26 27 27 26 26
33 30 29 30 32 34 33 32 32 32 30 30 29 30 28 28 28 27 29 29 31 30 31 30 30 29 30 32 29 27 26 25 24 24 24 25 24 24 24 25 25 25 25 26
33 32 31 30 30 32 31 30 30 31 29 28 27 27 27 30 29 27 26 29 30 29 30 30 29 29 30 29 27 25 23 22 23 23 24 24 23 24 24 23 24 24 25 25
34 32 31 30 26 27 27 28 28 28 28 28 26 26 27 26 26 28 30 29 29 29 29 29 29 29 30 27 25 23 22 22 22 22 22 24 24 23 23 23 23 23 24 25
32 32 29 27 26 29 29 29 26 25 25 26 26 26 25 28 29 30 28 28 28 28 28 27 27 27 26 24 23 22 21 22 22 22 23 22 22 22 22 23 23 23 25 25
32 32 32 30 32 33 31 29 28 28 27 26 27 27 27 27 26 27 26 26 26 26 27 26 25 24 24 23 22 22 22 22 21 21 21 22 22 21 22 22 23 23 24 24
33 34 30 29 29 30 30 29 28 28 29 28 29 27 27 26 26 27 26 25 26 26 25 25 24 23 23 23 23 22 22 21 21 21 22 22 21 20 21 22 23 23 24 25

GFSNGP_sfc_temp_111.txt.gz
Temp
45 47 46 44 44 46 42 43 37 43 46 53 57 57 57 57 55 53 53 54 55 54 56 55 54 53 53 52 51 51 50 49 48 48 49 48 47 47 47 47 47 47 48 48
35 45 47 42 45 46 45 45 45 46 45 56 59 61 59 59 56 54 54 55 55 56 55 54 54 53 51 51 50 51 50 49 49 48 48 47 47 47 47 46 46 46 46 46
34 45 43 38 46 46 46 48 47 41 50 57 55 55 55 57 57 56 56 56 56 55 55 55 54 53 51 50 50 49 48 48 47 47 46 46 46 46 45 45 45 44 44 44
33 39 30 45 52 50 48 50 52 51 52 55 55 57 58 59 58 58 58 57 57 57 56 55 54 51 50 49 49 47 47 47 46 45 44 44 44 43 43 43 42 42 42 42
33 36 43 47 44 45 43 47 54 52 54 56 57 56 53 59 59 59 60 60 59 59 57 55 52 51 49 47 47 46 45 45 44 44 42 42 41 41 41 40 40 40 41 41
40 30 31 47 50 52 50 40 55 53 52 52 52 45 53 56 58 58 58 58 57 56 54 53 51 50 47 47 45 44 43 42 43 43 41 40 40 39 40 40 39 40 39 40
34 32 39 53 51 52 38 45 54 54 54 53 49 54 56 54 53 55 55 54 54 52 50 50 49 47 45 45 43 42 41 41 41 41 40 40 39 39 38 38 39 38 39 41
37 33 29 53 48 43 53 55 54 54 54 53 54 56 56 54 53 51 50 50 50 49 48 46 45 44 43 42 42 41 40 39 39 40 40 40 39 39 39 39 39 39 39 39
45 44 55 54 56 57 56 53 54 53 55 54 53 53 55 53 52 51 50 48 49 48 45 45 44 43 41 42 40 39 39 38 39 39 39 40 39 38 37 38 37 36 36 36
47 52 54 56 57 57 57 54 55 55 54 53 51 53 53 54 52 50 49 47 47 46 44 42 42 41 41 40 39 37 37 37 38 37 38 38 38 38 36 35 35 34 34 34
46 51 54 56 57 59 59 57 53 53 53 51 51 51 52 52 51 49 47 46 45 44 43 43 41 40 40 39 38 36 37 37 37 37 37 37 37 37 36 37 36 34 33 33
43 55 54 56 57 54 52 51 53 51 49 51 51 49 52 50 51 48 45 44 42 42 41 40 39 38 38 38 37 35 34 35 36 35 35 35 35 35 39 38 38 37 37 36
52 58 56 57 53 56 52 52 52 49 49 47 50 50 50 49 48 47 45 42 41 40 40 40 38 37 38 37 36 34 33 34 34 34 34 34 33 33 31 35 37 37 37 37
57 56 51 52 49 52 52 49 48 47 47 47 48 48 48 46 45 43 42 42 42 41 39 38 37 37 38 37 35 34 34 34 33 33 33 33 33 32 32 30 29 31 36 36
52 53 51 52 47 46 47 46 43 43 44 43 45 45 44 42 41 41 42 40 38 38 37 37 36 36 37 36 34 33 33 33 33 33 33 34 33 32 31 31 30 30 31 33
48 49 49 45 44 45 44 43 40 41 43 43 42 42 42 43 42 40 39 38 35 34 36 35 35 36 36 35 33 33 33 33 32 32 32 32 32 30 29 29 29 29 29 29
35 36 38 38 39 43 41 43 42 42 41 40 41 41 40 39 38 36 36 37 36 36 36 35 34 36 35 34 33 32 33 32 33 32 31 31 31 29 29 29 28 28 29 31
47 46 44 43 39 39 40 40 39 39 38 38 38 37 35 34 34 34 34 34 34 33 34 35 35 35 33 33 33 33 32 31 31 31 31 31 30 30 29 29 29 28 28 30
46 43 41 41 41 39 38 36 36 35 34 34 33 32 33 33 33 32 33 31 30 30 33 35 34 31 32 33 32 32 31 31 30 30 30 30 30 29 29 28 27 28 28 28
42 41 41 41 39 38 37 38 39 37 36 35 35 33 32 32 33 32 31 29 32 34 35 33 31 31 31 32 31 30 31 30 29 29 28 28 28 27 27 27 27 27 27 27
35 35 36 36 37 38 37 38 37 36 36 36 34 34 33 33 33 31 29 29 33 34 33 33 31 31 32 31 31 31 30 29 28 26 26 26 26 26 26 26 27 26 26 26
37 34 32 33 35 37 37 36 36 36 34 33 33 34 32 31 31 30 31 31 34 34 32 32 32 31 31 31 31 30 29 27 26 25 24 25 25 25 24 25 24 24 24 25
37 35 34 33 34 35 35 34 34 34 32 31 30 30 30 31 31 28 26 30 31 32 31 31 32 31 30 30 30 28 26 25 24 24 24 24 24 24 24 23 23 24 24 24
38 36 34 33 32 31 31 32 31 31 31 31 30 30 30 29 29 31 32 33 32 32 30 31 31 30 31 30 28 26 25 24 23 23 24 25 24 24 23 23 23 24 23 24
35 34 33 31 30 32 32 32 29 29 28 29 29 29 29 32 31 31 30 30 31 30 29 31 30 30 28 27 26 24 23 23 23 23 23 23 22 22 23 23 23 23 24 25
36 37 37 35 35 34 33 31 31 31 29 28 29 29 29 30 29 30 28 29 28 30 29 28 27 27 26 25 25 24 24 24 23 22 22 22 22 22 22 22 22 23 23 24
35 38 36 34 33 33 33 32 30 32 32 30 30 30 29 28 28 29 28 27 26 27 27 27 27 26 25 25 24 24 24 23 23 21 22 22 21 21 22 22 22 22 23 24

GFSNGP_sfc_temp_114.txt.gz
Temp
39 42 41 39 40 41 37 38 32 37 38 44 47 48 51 49 48 47 47 47 48 47 46 46 45 45 45 44 44 44 43 42 40 41 41 40 40 41 43 43 43 43 43 43
29 40 40 36 40 41 41 41 41 42 40 51 52 50 47 48 48 48 48 49 50 49 48 47 46 45 46 44 43 44 42 41 42 41 40 39 39 38 39 38 38 39 38 38
26 36 36 30 39 41 42 42 41 36 44 48 46 49 48 48 50 49 50 50 50 49 48 47 46 47 44 43 44 42 41 41 41 40 39 38 38 37 36 35 35 35 35 36
28 30 19 38 44 45 42 45 46 46 47 47 48 49 50 49 48 49 51 51 50 49 48 47 46 45 43 43 42 41 40 40 40 39 37 37 36 35 34 34 33 33 33 34
23 24 35 40 41 39 37 39 47 45 46 48 46 44 43 49 50 49 48 50 50 49 47 45 44 44 44 42 42 41 41 39 39 38 36 35 33 32 32 32 31 32 34 33
29 23 23 37 43 47 44 30 47 48 46 44 45 35 40 45 48 49 47 49 48 47 46 44 42 42 41 40 39 38 38 38 39 38 37 35 34 33 33 34 34 35 35 35
31 28 32 44 45 46 27 35 46 47 46 45 41 43 46 47 46 46 47 46 46 44 43 42 41 40 38 38 36 36 37 36 36 35 34 34 34 34 34 33 34 33 33 34
30 26 23 45 42 37 43 43 47 47 47 46 46 47 48 48 46 45 44 44 44 42 40 39 39 38 36 35 35 36 35 34 33 33 35 36 31 31 32 32 31 32 32 32
36 34 46 47 46 49 48 46 45 44 46 47 45 45 47 46 45 44 43 42 43 40 38 37 37 36 35 34 34 34 32 31 31 32 33 33 30 29 29 30 29 30 30 29
40 43 48 51 50 49 49 48 48 47 46 46 44 45 44 45 45 43 42 41 41 39 37 35 35 35 34 33 33 32 29 29 29 29 31 31 31 32 29 28 27 29 29 29
41 46 49 51 53 53 52 50 48 47 47 45 44 43 43 43 44 43 41 40 39 37 36 36 35 34 33 33 32 29 29 29 29 30 29 29 31 30 31 30 30 29 30 30
40 47 47 46 46 47 46 46 47 46 44 44 43 42 43 42 44 41 39 37 36 36 35 34 34 33 33 33 31 29 28 29 29 29 28 28 28 29 37 38 39 38 38 36
49 51 48 47 45 46 46 46 46 45 44 42 42 42 43 42 42 43 38 36 35 34 34 34 32 31 32 32 30 29 27 28 29 30 28 27 27 27 27 32 37 37 37 37
51 47 45 45 43 45 44 44 45 41 42 41 41 41 42 40 40 38 36 36 36 35 35 33 32 31 32 32 30 28 27 33 28 27 26 26 27 27 27 27 27 27 33 35
51 47 47 44 42 40 41 41 38 37 38 38 39 39 39 37 36 36 36 35 34 33 32 32 31 31 33 31 30 27 27 27 27 26 26 28 27 27 27 28 27 27 28 31
40 42 43 42 40 39 39 38 36 35 36 37 36 36 37 37 36 35 33 33 30 29 29 30 29 31 31 30 28 26 26 32 32 27 26 26 27 26 28 28 26 26 26 27
32 32 33 33 35 37 36 37 37 37 36 35 35 35 35 34 33 32 32 32 31 30 30 30 30 32 31 30 28 27 26 27 32 28 25 25 24 25 27 26 26 26 26 28
41 39 39 37 35 35 35 36 35 35 34 34 34 33 31 30 31 30 30 30 29 29 30 31 31 31 30 30 29 27 26 26 26 24 26 25 25 26 26 26 26 25 26 27
41 39 38 38 37 35 33 31 32 30 30 31 31 30 30 28 29 29 29 27 26 25 27 29 34 33 28 30 30 25 22 22 24 24 25 28 24 25 26 27 26 25 25 26
36 37 37 36 36 34 33 33 34 33 33 31 31 29 29 30 30 29 28 26 27 27 30 29 30 28 27 28 32 21 21 23 25 24 24 22 21 22 26 27 26 25 24 25
31 30 32 34 33 34 34 34 33 32 32 32 31 30 30 30 30 29 27 26 28 30 30 32 27 27 27 28 28 22 22 27 22 19 19 19 19 22 25 24 24 24 24 24
31 30 31 30 31 33 33 33 33 32 32 31 31 31 30 29 29 28 30 28 28 35 31 28 28 30 27 33 24 23 28 20 17 16 16 18 18 22 24 23 22 23 23 22
34 34 32 30 31 32 32 33 31 32 31 30 30 30 30 30 30 27 26 29 28 33 28 28 30 33 33 28 24 22 20 16 15 15 17 16 21 23 22 22 22 23 22 21
38 36 33 29 28 27 30 31 30 31 31 30 30 30 29 27 27 30 28 33 32 32 29 28 31 34 33 23 21 17 15 14 13 13 15 24 23 22 22 22 22 22 22 21
37 37 31 27 27 31 32 29 28 27 27 29 29 29 30 30 31 29 29 28 33 32 28 32 33 33 26 22 18 16 15 13 13 11 16 20 20 20 21 21 21 21 22 22
35 35 35 33 34 34 33 30 31 30 29 28 29 29 29 29 29 30 28 29 28 31 26 26 27 28 23 21 19 18 17 16 18 15 16 17 21 21 21 21 19 19 20 20
32 36 29 29 31 34 33 33 30 31 32 31 31 30 28 27 28 29 29 27 26 28 27 25 26 27 21 20 20 19 17 16 19 14 15 15 16 13 18 20 19 20 20 21

GFSNGP_sfc_temp_117.txt.gz
Temp
35 37 37 37 37 38 35 37 29 37 35 43 43 43 45 46 46 43 42 42 44 44 43 42 42 43 43 42 41 42 40 39 38 38 38 37 37 36 37 37 36 37 37 37
25 36 35 32 36 37 38 38 39 39 38 49 51 45 43 45 45 43 45 45 46 47 45 43 43 42 43 42 42 43 41 40 40 39 38 37 36 35 35 34 34 34 34 34
24 32 32 27 35 36 37 38 39 33 42 46 43 45 45 46 46 45 45 47 47 47 46 44 43 44 41 41 41 40 40 40 39 39 38 37 37 36 34 32 32 31 31 32
23 27 18 35 41 44 40 42 43 43 44 44 44 46 45 44 44 46 46 48 47 46 45 44 43 42 41 41 40 39 39 39 38 37 35 35 34 32 32 33 33 33 32 32
21 20 31 36 39 38 36 37 43 43 45 44 45 40 41 46 45 44 46 47 47 46 44 42 41 41 40 39 39 38 38 37 37 36 34 33 31 30 31 30 30 31 33 34
25 21 22 35 39 43 42 30 42 43 43 43 42 35 38 45 46 45 44 46 45 43 42 41 39 40 39 37 37 36 36 36 35 34 33 31 30 29 30 30 31 31 32 32
31 28 30 40 42 43 29 37 43 45 44 43 41 43 44 44 45 45 45 44 43 41 41 40 39 39 37 36 34 36 35 35 34 33 31 31 30 29 29 28 29 28 30 30
29 27 22 42 41 38 43 42 45 43 43 44 44 45 45 45 44 44 44 43 42 39 38 37 38 37 35 34 34 34 33 33 31 30 32 34 28 28 28 27 27 26 27 28
33 33 42 44 45 47 45 45 44 43 45 46 44 44 45 44 43 43 42 41 40 38 36 35 35 36 34 33 33 32 31 30 29 30 30 30 27 27 27 27 26 26 28 27
38 43 44 48 48 47 46 46 46 47 46 45 44 43 42 42 42 41 40 39 39 36 34 33 33 34 33 32 32 30 28 27 28 27 28 28 29 30 27 26 25 28 28 27
40 47 48 50 50 50 50 48 46 46 45 45 43 42 42 41 41 41 40 38 37 36 34 34 33 33 32 32 31 28 27 28 28 28 26 26 28 27 29 28 28 28 29 31
38 49 47 49 46 46 45 45 46 44 43 44 43 42 41 39 40 40 38 36 35 34 34 33 32 32 31 31 29 28 28 28 28 28 26 27 26 26 34 36 37 37 37 36
47 51 48 47 46 46 46 45 45 44 43 42 42 41 40 39 40 42 37 35 35 34 34 32 31 31 31 30 29 28 27 27 28 30 27 25 26 25 24 29 35 36 36 36
45 43 43 44 45 45 44 45 45 42 42 41 40 40 39 38 39 38 36 37 35 34 33 32 31 30 30 30 29 27 26 33 27 26 25 25 25 25 25 25 25 26 32 34
44 45 46 44 42 41 41 40 38 38 37 37 38 37 37 37 37 36 36 36 34 33 32 31 30 30 31 30 29 27 27 26 26 25 25 27 26 25 25 25 25 25 26 30
43 41 40 38 39 39 38 37 35 35 35 34 35 35 36 37 36 35 34 33 33 32 31 30 30 30 30 29 28 27 26 32 31 26 26 26 25 25 25 24 23 24 25 26
34 35 33 33 35 36 36 36 36 35 35 34 35 36 35 35 34 33 32 33 32 32 31 30 30 31 31 30 28 27 26 27 32 28 25 24 23 23 24 24 24 25 25 28
37 38 38 38 36 35 35 35 34 34 33 34 35 34 33 31 32 31 31 31 31 30 31 31 31 31 30 30 29 27 26 26 26 24 25 24 25 24 23 24 25 24 25 27
36 36 36 37 37 36 34 31 31 31 30 31 29 30 32 32 30 30 30 29 28 28 31 30 34 33 30 30 31 27 25 24 25 23 25 27 24 24 23 23 23 24 24 24
36 36 37 37 38 36 35 34 35 34 34 32 32 32 30 31 31 31 30 29 31 31 31 30 31 30 29 28 34 26 24 24 24 23 24 22 20 20 21 24 25 24 23 23
32 32 34 35 35 35 35 35 34 34 34 33 32 32 32 32 31 30 27 29 32 31 32 33 31 29 29 29 30 25 24 23 23 24 20 19 18 19 21 22 22 23 23 23
35 32 34 33 33 35 34 33 33 33 32 31 31 32 30 30 30 29 32 31 31 35 32 29 30 30 29 33 27 25 24 23 24 21 17 17 17 17 19 20 20 22 23 21
36 36 34 33 33 33 32 32 33 32 30 29 30 31 31 33 32 28 28 31 30 33 32 29 30 33 34 31 27 25 24 22 20 17 18 16 16 17 16 17 21 21 21 22
34 36 33 31 26 25 29 36 31 30 30 30 30 31 32 30 29 32 33 33 34 33 31 28 31 34 35 28 25 24 22 20 18 15 16 23 16 14 19 19 18 19 21 20
37 34 25 27 28 32 34 34 27 27 28 29 31 31 31 33 32 31 31 30 34 32 31 32 34 35 32 26 25 23 21 19 17 12 14 13 13 17 14 17 20 21 18 18
37 38 38 33 34 36 34 27 30 33 30 30 31 31 31 31 31 32 29 30 29 32 28 28 31 32 29 25 24 23 21 18 20 18 17 15 12 13 16 18 19 15 16 17
33 37 33 28 30 32 32 33 31 32 33 32 33 34 32 31 30 30 30 27 27 28 29 27 29 31 25 24 24 22 20 19 20 16 15 12 12 11 15 15 16 16 16 17